[[{"header":{"parameterUnit":"m.s-1","parameterCategory":1,"la1":31.0,"la2":29.5877,"lo1":-88.7671,"lo2":-86.6584,"dx":0.0162,"dy":0.0185,"nx":115,"ny":88,"refTime":"2022-11-09T06:00:00:Z","depth":0,"parameterNumber":2,"parameterNumberName":"U-component_of_WINDS"},"data":[0.0,0.0,0.0,0.0,0.0,0.0,0.0,0.0,0.0,0.0,0.0,0.0,0.0,0.0,0.0,0.0,0.0,0.0,0.0,0.0,0.0,0.0,0.0,0.0,0.0,0.0,0.0,0.0,0.0,0.0,0.0,0.0,0.0,0.0,0.0,0.0,0.0,0.0,0.0,0.0,0.0,0.0,0.0,0.0,0.0,0.0,0.0,0.0,0.0,0.0,0.0,0.0,0.0,0.0,0.0,0.0,0.0,0.0,0.0,0.0,0.0,0.0,0.0,0.0,0.0,0.0,0.0,0.0,0.0,0.0,0.0,0.0,0.0,0.0,0.0,0.0,0.0,0.0,0.0,0.0,0.0,0.0,0.0,0.0,0.0,0.0,0.0,0.0,0.0,0.0,0.0,0.0,0.0,0.0,0.0,0.0,0.0,0.0,0.0,0.0,0.0,0.0,0.0,0.0,0.0,0.0,0.0,0.0,0.0,0.0,0.0,0.0,0.0,0.0,0.0,0.0,0.0,0.0,0.0,0.0,0.0,0.0,0.0,0.0,0.0,0.0,0.0,0.0,0.0,0.0,0.0,0.0,0.0,0.0,0.0,0.0,0.0,0.0,0.0,0.0,0.0,0.0,0.0,0.0,0.0,0.0,0.0,0.0,0.0,0.0,0.0,0.0,0.0,0.0,0.0,0.0,0.0,0.0,0.0,0.0,0.0,0.0,0.0,0.0,0.0,0.0,0.0,0.0,0.0,0.0,0.0,0.0,0.0,0.0,0.0,0.0,0.0,0.0,0.0,0.0,0.0,0.0,0.0,0.0,0.0,0.0,0.0,0.0,0.0,0.0,0.0,0.0,0.0,0.0,0.0,0.0,0.0,0.0,0.0,0.0,0.0,0.0,0.0,0.0,0.0,0.0,0.0,0.0,0.0,0.0,0.0,0.0,0.0,0.0,0.0,0.0,0.0,0.0,0.0,0.0,0.0,0.0,0.0,0.0,0.0,0.0,0.0,0.0,0.0,0.0,0.0,0.0,0.0,0.0,0.0,0.0,0.0,0.0,0.0,0.0,0.0,0.0,0.0,0.0,0.0,0.0,0.0,0.0,0.0,0.0,0.0,0.0,0.0,0.0,0.0,0.0,0.0,0.0,0.0,0.0,0.0,0.0,0.0,0.0,0.0,0.0,0.0,0.0,0.0,0.0,0.0,0.0,0.0,0.0,0.0,0.0,0.0,0.0,0.0,0.0,0.0,0.0,0.0,0.0,0.0,0.0,0.0,0.0,0.0,0.0,0.0,0.0,0.0,0.0,0.0,0.0,0.0,0.0,0.0,0.0,0.0,0.0,0.0,0.0,0.0,0.0,0.0,0.0,0.0,0.0,0.0,0.0,0.0,0.0,0.0,0.0,0.0,0.0,0.0,0.0,0.0,0.0,0.0,0.0,0.0,0.0,0.0,0.0,0.0,0.0,0.0,0.0,0.0,0.0,0.0,0.0,0.0,0.0,0.0,0.0,0.0,0.0,0.0,0.0,0.0,0.0,0.0,0.0,0.0,0.0,0.0,0.0,0.0,0.0,0.0,0.0,0.0,0.0,0.0,0.0,0.0,0.0,0.0,0.0,0.0,0.0,0.0,0.0,0.0,0.0,0.0,0.0,0.0,0.0,0.0,0.0,0.0,0.0,0.0,0.0,0.0,0.0,0.0,0.0,0.0,0.0,0.0,0.0,0.0,0.0,0.0,0.0,0.0,0.0,0.0,0.0,0.0,0.0,0.0,0.0,0.0,0.0,0.0,0.0,0.0,0.0,0.0,0.0,0.0,0.0,0.0,0.0,0.0,0.0,0.0,0.0,0.0,0.0,0.0,0.0,0.0,0.0,0.0,0.0,0.0,0.0,0.0,0.0,0.0,0.0,0.0,0.0,0.0,0.0,0.0,0.0,0.0,0.0,0.0,0.0,0.0,0.0,0.0,0.0,0.0,0.0,0.0,0.0,0.0,0.0,0.0,0.0,0.0,0.0,0.0,0.0,0.0,0.0,0.0,0.0,0.0,0.0,0.0,0.0,0.0,0.0,0.0,0.0,0.0,0.0,0.0,0.0,0.0,0.0,0.0,0.0,0.0,0.0,0.0,0.0,0.0,0.0,0.0,0.0,0.0,0.0,0.0,0.0,0.0,0.0,0.0,0.0,0.0,0.0,0.0,0.0,0.0,0.0,0.0,0.0,0.0,0.0,0.0,0.0,0.0,0.0,0.0,0.0,0.0,0.0,0.0,0.0,0.0,0.0,0.0,0.0,0.0,0.0,0.0,0.0,0.0,0.0,0.0,0.0,0.0,0.0,0.0,0.0,0.0,0.0,0.0,0.0,0.0,0.0,0.0,0.0,0.0,0.0,0.0,0.0,0.0,0.0,0.0,0.0,0.0,0.0,0.0,0.0,0.0,0.0,0.0,0.0,0.0,0.0,0.0,0.0,0.0,0.0,0.0,0.0,0.0,0.0,0.0,0.0,0.0,0.0,0.0,0.0,0.0,0.0,0.0,0.0,0.0,0.0,0.0,0.0,0.0,0.0,0.0,0.0,0.0,0.0,0.0,0.0,0.0,0.0,0.0,0.0,0.0,0.0,0.0,0.0,0.0,0.0,0.0,0.0,0.0,0.0,0.0,0.0,0.0,0.0,0.0,0.0,0.0,0.0,0.0,0.0,0.0,0.0,0.0,0.0,0.0,0.0,0.0,0.0,0.0,0.0,0.0,0.0,0.0,0.0,0.0,0.0,0.0,0.0,0.0,0.0,0.0,0.0,0.0,0.0,0.0,0.0,0.0,0.0,0.0,0.0,0.0,0.0,0.0,0.0,0.0,0.0,0.0,0.0,0.0,0.0,0.0,0.0,0.0,0.0,0.0,0.0,0.0,0.0,0.0,0.0,0.0,0.0,0.0,0.0,0.0,0.0,0.0,0.0,0.0,0.0,0.0,0.0,0.0,0.0,0.0,0.0,0.0,0.0,0.0,0.0,0.0,0.0,0.0,0.0,0.0,0.0,0.0,0.0,0.0,0.0,0.0,0.0,0.0,0.0,0.0,0.0,0.0,0.0,0.0,0.0,0.0,0.0,0.0,0.0,0.0,0.0,0.0,0.0,0.0,0.0,0.0,0.0,0.0,0.0,0.0,0.0,0.0,0.0,0.0,0.0,0.0,0.0,0.0,0.0,0.0,0.0,0.0,0.0,0.0,0.0,0.0,0.0,0.0,0.0,0.0,0.0,0.0,0.0,0.0,0.0,0.0,0.0,0.0,0.0,0.0,0.0,0.0,0.0,0.0,0.0,0.0,0.0,0.0,0.0,0.0,0.0,0.0,0.0,0.0,0.0,0.0,0.0,0.0,0.0,0.0,0.0,0.0,0.0,0.0,0.0,0.0,0.0,0.0,0.0,0.0,0.0,0.0,0.0,0.0,0.0,0.0,0.0,0.0,0.0,0.0,0.0,0.0,0.0,0.0,0.0,0.0,0.0,0.0,0.0,0.0,0.0,0.0,0.0,0.0,0.0,0.0,0.0,0.0,0.0,0.0,0.0,0.0,0.0,0.0,0.0,0.0,0.0,0.0,0.0,0.0,0.0,0.0,0.0,0.0,0.0,0.0,0.0,0.0,0.0,0.0,0.0,0.0,0.0,0.0,0.0,0.0,0.0,0.0,0.0,0.0,0.0,0.0,0.0,0.0,0.0,0.0,0.0,0.0,0.0,0.0,0.0,0.0,0.0,0.0,0.0,0.0,0.0,0.0,0.0,0.0,0.0,0.0,0.0,0.0,0.0,0.0,0.0,0.0,0.0,0.0,0.0,0.0,0.0,0.0,0.0,0.0,0.0,0.0,0.0,0.0,0.0,0.0,0.0,0.0,0.0,0.0,0.0,0.0,0.0,0.0,0.0,0.0,0.0,0.0,0.0,0.0,0.0,0.0,0.0,0.0,0.0,0.0,0.0,0.0,0.0,0.0,0.0,0.0,0.0,0.0,0.0,0.0,0.0,0.0,0.0,0.0,0.0,0.0,0.0,0.0,0.0,0.0,0.0,0.0,0.0,0.0,0.0,0.0,0.0,0.0,0.0,0.0,0.0,0.0,0.0,0.0,0.0,0.0,0.0,0.0,0.0,0.0,0.0,0.0,0.0,0.0,0.0,0.0,0.0,0.0,0.0,0.0,0.0,0.0,0.0,0.0,0.0,0.0,0.0,0.0,0.0,0.0,0.0,0.0,0.0,0.0,0.0,0.0,0.0,5.32,0.0,0.0,0.0,4.9703,0.0,0.0,0.0,0.0,0.0,0.0,0.0,0.0,0.0,0.0,0.0,0.0,0.0,0.0,0.0,0.0,0.0,0.0,0.0,0.0,0.0,0.0,0.0,0.0,0.0,0.0,0.0,0.0,0.0,0.0,0.0,0.0,0.0,0.0,0.0,0.0,0.0,0.0,0.0,0.0,0.0,0.0,0.0,0.0,0.0,0.0,0.0,0.0,0.0,0.0,0.0,0.0,0.0,0.0,0.0,0.0,0.0,0.0,0.0,0.0,0.0,0.0,0.0,0.0,0.0,0.0,0.0,0.0,0.0,0.0,0.0,0.0,0.0,0.0,0.0,0.0,0.0,0.0,0.0,0.0,0.0,0.0,0.0,0.0,0.0,0.0,0.0,0.0,0.0,0.0,0.0,0.0,0.0,0.0,0.0,0.0,0.0,0.0,0.0,0.0,0.0,0.0,0.0,0.0,0.0,0.0,0.0,0.0,0.0,0.0,5.5357,5.4334,5.4942,5.4251,5.201,0.0,0.0,0.0,0.0,0.0,0.0,0.0,0.0,0.0,0.0,0.0,0.0,0.0,0.0,0.0,0.0,0.0,0.0,0.0,0.0,0.0,0.0,0.0,0.0,0.0,0.0,0.0,0.0,0.0,0.0,0.0,0.0,0.0,0.0,0.0,0.0,0.0,0.0,0.0,0.0,0.0,0.0,0.0,0.0,0.0,0.0,0.0,0.0,0.0,0.0,0.0,0.0,0.0,0.0,0.0,0.0,0.0,0.0,0.0,0.0,0.0,0.0,0.0,0.0,0.0,0.0,0.0,0.0,0.0,0.0,0.0,0.0,0.0,0.0,0.0,0.0,0.0,0.0,0.0,0.0,0.0,0.0,0.0,0.0,0.0,0.0,0.0,0.0,0.0,0.0,0.0,0.0,0.0,0.0,0.0,0.0,0.0,0.0,0.0,0.0,0.0,0.0,0.0,0.0,0.0,0.0,0.0,0.0,0.0,0.0,0.0,0.0,5.6945,5.6374,5.398,0.0,0.0,0.0,0.0,0.0,0.0,0.0,0.0,0.0,0.0,0.0,0.0,0.0,0.0,0.0,0.0,0.0,0.0,0.0,0.0,0.0,0.0,0.0,0.0,0.0,0.0,0.0,0.0,0.0,0.0,0.0,0.0,0.0,0.0,0.0,0.0,0.0,0.0,0.0,0.0,0.0,0.0,0.0,0.0,0.0,0.0,0.0,0.0,0.0,0.0,0.0,0.0,0.0,0.0,0.0,0.0,0.0,0.0,0.0,0.0,0.0,0.0,0.0,0.0,0.0,0.0,0.0,0.0,0.0,0.0,0.0,0.0,0.0,0.0,0.0,0.0,0.0,0.0,0.0,0.0,0.0,0.0,0.0,0.0,0.0,0.0,0.0,0.0,0.0,0.0,0.0,0.0,0.0,0.0,0.0,0.0,0.0,0.0,0.0,0.0,0.0,0.0,0.0,0.0,0.0,0.0,0.0,0.0,0.0,0.0,5.6204,5.6852,5.6998,0.0,5.398,0.0,0.0,0.0,0.0,0.0,0.0,0.0,0.0,0.0,0.0,0.0,0.0,0.0,0.0,0.0,0.0,0.0,0.0,0.0,0.0,0.0,0.0,0.0,0.0,0.0,0.0,0.0,0.0,0.0,0.0,0.0,0.0,0.0,0.0,0.0,0.0,0.0,0.0,0.0,0.0,0.0,0.0,0.0,0.0,0.0,0.0,0.0,0.0,0.0,0.0,0.0,0.0,0.0,0.0,0.0,0.0,0.0,0.0,0.0,0.0,0.0,0.0,0.0,0.0,0.0,0.0,0.0,0.0,0.0,0.0,0.0,0.0,0.0,0.0,0.0,0.0,0.0,0.0,0.0,0.0,0.0,0.0,0.0,0.0,0.0,0.0,0.0,0.0,0.0,0.0,0.0,0.0,0.0,0.0,0.0,0.0,0.0,0.0,0.0,0.0,0.0,0.0,0.0,0.0,0.0,0.0,0.0,0.0,0.0,0.0,5.7619,5.8448,5.7946,5.6639,0.0,0.0,0.0,0.0,0.0,0.0,0.0,0.0,0.0,0.0,0.0,0.0,0.0,0.0,0.0,0.0,0.0,0.0,0.0,0.0,0.0,0.0,0.0,0.0,0.0,0.0,0.0,0.0,0.0,0.0,0.0,0.0,0.0,0.0,0.0,0.0,0.0,0.0,0.0,0.0,0.0,0.0,0.0,0.0,0.0,0.0,0.0,0.0,0.0,0.0,0.0,0.0,0.0,0.0,0.0,0.0,0.0,0.0,0.0,0.0,0.0,0.0,0.0,0.0,0.0,0.0,0.0,0.0,0.0,0.0,0.0,0.0,0.0,0.0,0.0,0.0,0.0,0.0,0.0,0.0,0.0,0.0,0.0,0.0,0.0,0.0,0.0,0.0,0.0,0.0,0.0,0.0,0.0,0.0,0.0,0.0,0.0,0.0,0.0,0.0,0.0,0.0,0.0,0.0,0.0,0.0,0.0,0.0,0.0,0.0,5.9048,5.9627,6.0142,5.9244,5.7705,5.5573,0.0,0.0,0.0,0.0,0.0,0.0,0.0,0.0,0.0,0.0,0.0,0.0,0.0,0.0,0.0,0.0,0.0,0.0,0.0,0.0,0.0,0.0,0.0,0.0,0.0,0.0,0.0,0.0,0.0,0.0,0.0,0.0,0.0,0.0,0.0,0.0,0.0,0.0,0.0,0.0,0.0,0.0,0.0,0.0,0.0,0.0,0.0,0.0,0.0,0.0,0.0,0.0,0.0,0.0,0.0,0.0,0.0,0.0,0.0,0.0,0.0,0.0,0.0,0.0,0.0,0.0,0.0,0.0,0.0,0.0,0.0,0.0,0.0,0.0,0.0,0.0,0.0,0.0,0.0,0.0,0.0,0.0,0.0,0.0,0.0,0.0,0.0,0.0,0.0,0.0,0.0,0.0,0.0,0.0,0.0,0.0,0.0,0.0,0.0,0.0,0.0,0.0,0.0,0.0,0.0,0.0,0.0,0.0,6.0618,6.1473,6.1935,6.1935,6.072,5.9391,0.0,0.0,0.0,0.0,0.0,0.0,0.0,0.0,0.0,0.0,0.0,0.0,0.0,0.0,0.0,0.0,0.0,0.0,0.0,0.0,0.0,0.0,0.0,0.0,0.0,0.0,0.0,0.0,0.0,0.0,0.0,0.0,0.0,0.0,0.0,0.0,0.0,0.0,0.0,0.0,0.0,0.0,0.0,0.0,0.0,0.0,0.0,0.0,0.0,0.0,0.0,0.0,0.0,0.0,0.0,0.0,0.0,0.0,0.0,0.0,0.0,0.0,0.0,0.0,0.0,0.0,0.0,0.0,0.0,0.0,0.0,0.0,0.0,0.0,0.0,0.0,0.0,0.0,0.0,0.0,0.0,0.0,0.0,0.0,0.0,0.0,0.0,0.0,0.0,0.0,0.0,0.0,0.0,0.0,0.0,0.0,0.0,0.0,0.0,0.0,0.0,0.0,0.0,0.0,0.0,0.0,0.0,0.0,0.0,6.184,6.2542,6.2858,6.282,6.16,6.0373,0.0,0.0,0.0,0.0,0.0,0.0,0.0,0.0,0.0,0.0,0.0,0.0,0.0,0.0,0.0,0.0,0.0,0.0,0.0,0.0,0.0,0.0,0.0,0.0,0.0,0.0,0.0,0.0,0.0,0.0,0.0,0.0,0.0,0.0,0.0,0.0,0.0,0.0,0.0,0.0,0.0,0.0,0.0,0.0,0.0,0.0,0.0,0.0,0.0,0.0,0.0,0.0,0.0,0.0,0.0,0.0,0.0,0.0,0.0,0.0,0.0,0.0,0.0,0.0,0.0,0.0,0.0,0.0,0.0,0.0,0.0,0.0,0.0,0.0,0.0,0.0,0.0,0.0,0.0,0.0,0.0,0.0,0.0,0.0,0.0,0.0,0.0,0.0,0.0,0.0,0.0,0.0,0.0,0.0,0.0,0.0,0.0,0.0,0.0,0.0,0.0,0.0,0.0,0.0,0.0,0.0,0.0,0.0,0.0,6.3561,6.3693,6.3705,6.368,6.224,6.0943,0.0,0.0,0.0,0.0,0.0,0.0,0.0,0.0,0.0,0.0,0.0,0.0,0.0,0.0,0.0,0.0,0.0,0.0,0.0,0.0,0.0,0.0,0.0,0.0,0.0,0.0,0.0,0.0,0.0,0.0,0.0,0.0,0.0,0.0,0.0,0.0,0.0,0.0,0.0,0.0,0.0,0.0,0.0,0.0,0.0,0.0,0.0,0.0,0.0,0.0,0.0,0.0,0.0,0.0,0.0,0.0,0.0,0.0,0.0,0.0,0.0,0.0,0.0,0.0,0.0,0.0,0.0,0.0,0.0,0.0,0.0,0.0,0.0,0.0,0.0,0.0,0.0,0.0,0.0,0.0,0.0,0.0,0.0,0.0,0.0,0.0,0.0,0.0,0.0,0.0,0.0,0.0,0.0,0.0,0.0,0.0,0.0,0.0,0.0,0.0,0.0,0.0,0.0,0.0,0.0,0.0,0.0,0.0,6.4508,6.5756,6.5051,6.4589,6.4551,6.2585,6.1248,0.0,0.0,0.0,0.0,0.0,0.0,0.0,0.0,0.0,0.0,0.0,0.0,0.0,0.0,0.0,0.0,0.0,0.0,0.0,0.0,0.0,0.0,0.0,0.0,0.0,0.0,0.0,0.0,0.0,0.0,0.0,0.0,0.0,0.0,0.0,0.0,0.0,0.0,0.0,0.0,0.0,0.0,0.0,0.0,0.0,0.0,0.0,0.0,0.0,0.0,0.0,0.0,0.0,0.0,0.0,0.0,0.0,0.0,0.0,0.0,0.0,0.0,0.0,0.0,0.0,0.0,0.0,0.0,0.0,0.0,0.0,0.0,0.0,0.0,0.0,0.0,0.0,0.0,0.0,0.0,0.0,0.0,0.0,0.0,0.0,0.0,0.0,0.0,0.0,0.0,0.0,0.0,0.0,0.0,0.0,0.0,0.0,0.0,0.0,0.0,0.0,0.0,0.0,0.0,0.0,0.0,0.0,0.0,0.0,6.5897,6.5628,6.5474,6.5436,6.3896,6.2585,0.0,0.0,0.0,0.0,0.0,0.0,0.0,0.0,0.0,0.0,0.0,0.0,0.0,0.0,0.0,0.0,0.0,0.0,0.0,0.0,0.0,0.0,0.0,0.0,0.0,0.0,0.0,0.0,0.0,0.0,0.0,0.0,0.0,0.0,0.0,0.0,0.0,0.0,0.0,0.0,0.0,0.0,0.0,0.0,0.0,0.0,0.0,0.0,0.0,0.0,0.0,0.0,0.0,0.0,0.0,0.0,0.0,0.0,0.0,0.0,0.0,0.0,0.0,0.0,0.0,0.0,0.0,0.0,0.0,0.0,0.0,0.0,0.0,0.0,0.0,0.0,0.0,0.0,0.0,0.0,0.0,0.0,0.0,0.0,0.0,0.0,0.0,0.0,0.0,0.0,0.0,0.0,0.0,0.0,0.0,0.0,0.0,0.0,0.0,0.0,0.0,0.0,0.0,0.0,0.0,0.0,0.0,0.0,0.0,6.6859,6.6821,6.6667,6.6359,6.5006,6.3688,6.2369,0.0,0.0,0.0,0.0,0.0,0.0,0.0,0.0,0.0,0.0,0.0,0.0,0.0,0.0,0.0,0.0,0.0,0.0,0.0,0.0,0.0,0.0,0.0,0.0,0.0,0.0,0.0,0.0,0.0,0.0,0.0,0.0,0.0,0.0,0.0,0.0,0.0,0.0,0.0,0.0,0.0,0.0,0.0,0.0,0.0,0.0,0.0,0.0,0.0,0.0,0.0,0.0,0.0,0.0,0.0,0.0,0.0,0.0,0.0,0.0,0.0,0.0,0.0,0.0,0.0,0.0,0.0,0.0,0.0,0.0,0.0,0.0,0.0,0.0,0.0,0.0,0.0,0.0,0.0,0.0,0.0,0.0,0.0,0.0,0.0,0.0,0.0,0.0,0.0,0.0,0.0,0.0,0.0,0.0,0.0,0.0,0.0,0.0,0.0,0.0,0.0,0.0,0.0,0.0,0.0,0.0,0.0,0.0,6.8475,6.8513,6.809,6.7205,6.5847,6.4562,0.0,0.0,0.0,0.0,0.0,0.0,0.0,0.0,0.0,0.0,0.0,0.0,0.0,0.0,0.0,0.0,0.0,0.0,0.0,0.0,0.0,0.0,0.0,0.0,0.0,0.0,0.0,0.0,0.0,0.0,0.0,0.0,0.0,0.0,0.0,0.0,0.0,0.0,0.0,0.0,0.0,0.0,0.0,0.0,0.0,0.0,0.0,0.0,0.0,0.0,0.0,0.0,0.0,0.0,0.0,0.0,0.0,0.0,0.0,0.0,0.0,0.0,0.0,0.0,0.0,0.0,0.0,0.0,0.0,0.0,0.0,0.0,0.0,0.0,0.0,0.0,0.0,0.0,0.0,0.0,0.0,0.0,0.0,0.0,0.0,0.0,0.0,0.0,0.0,0.0,0.0,0.0,0.0,0.0,0.0,0.0,0.0,0.0,0.0,0.0,0.0,0.0,0.0,0.0,0.0,0.0,0.0,0.0,0.0,6.9398,6.9937,6.9552,6.8129,6.6766,6.5437,0.0,0.0,0.0,0.0,0.0,0.0,0.0,0.0,0.0,0.0,0.0,0.0,0.0,0.0,0.0,0.0,0.0,0.0,0.0,0.0,0.0,0.0,0.0,0.0,0.0,0.0,0.0,0.0,0.0,0.0,0.0,0.0,0.0,0.0,0.0,0.0,0.0,0.0,0.0,0.0,0.0,0.0,0.0,0.0,0.0,0.0,0.0,0.0,0.0,0.0,0.0,0.0,0.0,0.0,0.0,0.0,0.0,0.0,0.0,0.0,0.0,0.0,0.0,0.0,0.0,0.0,0.0,0.0,0.0,0.0,0.0,0.0,0.0,0.0,0.0,0.0,0.0,0.0,0.0,0.0,0.0,0.0,0.0,0.0,0.0,0.0,0.0,0.0,0.0,0.0,0.0,0.0,0.0,0.0,0.0,0.0,0.0,0.0,0.0,0.0,0.0,0.0,0.0,0.0,0.0,0.0,0.0,0.0,7.0206,7.0206,7.0667,7.0437,6.9475,6.8143,6.665,0.0,0.0,0.0,0.0,0.0,0.0,0.0,0.0,0.0,0.0,0.0,0.0,0.0,0.0,0.0,0.0,0.0,0.0,0.0,0.0,0.0,0.0,0.0,0.0,0.0,0.0,0.0,0.0,0.0,0.0,0.0,0.0,0.0,0.0,0.0,0.0,0.0,0.0,0.0,0.0,0.0,0.0,0.0,0.0,0.0,0.0,0.0,0.0,0.0,0.0,0.0,0.0,0.0,0.0,0.0,0.0,0.0,0.0,0.0,0.0,0.0,0.0,0.0,0.0,0.0,0.0,0.0,0.0,0.0,0.0,0.0,0.0,0.0,0.0,0.0,0.0,0.0,0.0,0.0,0.0,0.0,0.0,0.0,0.0,0.0,0.0,0.0,0.0,0.0,0.0,0.0,0.0,0.0,0.0,0.0,0.0,0.0,0.0,0.0,0.0,0.0,0.0,0.0,0.0,0.0,0.0,0.0,0.0,7.0898,7.0898,7.0898,7.0871,7.0805,6.959,6.7977,0.0,0.0,0.0,0.0,0.0,0.0,0.0,0.0,0.0,0.0,0.0,0.0,0.0,0.0,0.0,0.0,0.0,0.0,0.0,0.0,0.0,0.0,0.0,0.0,0.0,0.0,0.0,0.0,0.0,0.0,0.0,0.0,0.0,0.0,0.0,0.0,0.0,0.0,0.0,0.0,0.0,0.0,0.0,0.0,0.0,0.0,0.0,0.0,0.0,0.0,0.0,0.0,0.0,0.0,0.0,0.0,0.0,0.0,0.0,0.0,0.0,0.0,0.0,0.0,0.0,0.0,0.0,0.0,0.0,0.0,0.0,0.0,0.0,0.0,0.0,0.0,0.0,0.0,0.0,0.0,0.0,0.0,0.0,0.0,0.0,0.0,0.0,0.0,0.0,0.0,0.0,0.0,0.0,0.0,0.0,0.0,0.0,0.0,0.0,0.0,0.0,0.0,0.0,0.0,0.0,0.0,0.0,0.0,7.0898,7.0898,7.0898,7.0681,7.0298,6.9787,6.8922,0.0,0.0,0.0,0.0,0.0,0.0,0.0,0.0,0.0,0.0,0.0,0.0,0.0,0.0,0.0,0.0,0.0,0.0,0.0,0.0,0.0,0.0,0.0,0.0,0.0,0.0,0.0,0.0,0.0,0.0,0.0,0.0,0.0,0.0,0.0,0.0,0.0,0.0,0.0,0.0,0.0,0.0,0.0,0.0,0.0,0.0,0.0,0.0,5.4634,0.0,0.0,0.0,0.0,0.0,0.0,0.0,0.0,0.0,0.0,0.0,0.0,0.0,0.0,0.0,0.0,0.0,0.0,0.0,0.0,0.0,0.0,0.0,0.0,0.0,0.0,0.0,0.0,0.0,0.0,0.0,0.0,0.0,0.0,0.0,0.0,0.0,0.0,0.0,0.0,0.0,0.0,0.0,0.0,0.0,0.0,0.0,0.0,0.0,0.0,0.0,0.0,0.0,0.0,0.0,0.0,0.0,0.0,0.0,7.0844,7.1475,7.1091,7.0969,7.103,7.0302,6.9032,0.0,0.0,0.0,0.0,0.0,0.0,0.0,0.0,0.0,0.0,0.0,0.0,0.0,0.0,0.0,0.0,0.0,0.0,0.0,0.0,0.0,0.0,0.0,0.0,0.0,0.0,0.0,0.0,0.0,0.0,0.0,0.0,0.0,0.0,0.0,0.0,0.0,0.0,0.0,0.0,0.0,0.0,0.0,0.0,0.0,0.0,0.0,0.0,0.0,0.0,0.0,0.0,0.0,0.0,0.0,0.0,0.0,0.0,0.0,0.0,0.0,0.0,0.0,0.0,0.0,0.0,0.0,0.0,0.0,0.0,0.0,0.0,0.0,0.0,0.0,0.0,0.0,0.0,0.0,0.0,0.0,0.0,0.0,0.0,0.0,0.0,0.0,0.0,0.0,0.0,0.0,0.0,0.0,0.0,0.0,0.0,0.0,0.0,0.0,0.0,0.0,0.0,0.0,0.0,0.0,0.0,0.0,7.0578,7.0999,7.2129,7.1591,7.1535,7.1918,7.0806,6.8906,6.6267,0.0,0.0,0.0,0.0,0.0,0.0,0.0,0.0,0.0,0.0,0.0,0.0,0.0,0.0,0.0,0.0,0.0,0.0,0.0,0.0,0.0,0.0,0.0,0.0,0.0,0.0,0.0,0.0,0.0,0.0,0.0,0.0,0.0,0.0,0.0,0.0,0.0,0.0,5.23,5.3078,0.0,0.0,0.0,0.0,0.0,0.0,0.0,0.0,5.5277,0.0,0.0,0.0,0.0,0.0,0.0,0.0,0.0,0.0,0.0,0.0,0.0,0.0,0.0,0.0,0.0,0.0,0.0,0.0,0.0,0.0,0.0,0.0,0.0,0.0,0.0,0.0,0.0,0.0,0.0,0.0,0.0,0.0,0.0,0.0,0.0,0.0,0.0,0.0,0.0,0.0,0.0,0.0,0.0,0.0,0.0,0.0,0.0,0.0,0.0,0.0,0.0,0.0,0.0,0.0,0.0,7.0898,7.1535,7.1958,7.2206,7.2783,7.2371,7.0915,7.0646,6.9197,6.6565,0.0,0.0,0.0,0.0,0.0,0.0,0.0,0.0,0.0,0.0,0.0,0.0,0.0,0.0,0.0,0.0,0.0,0.0,0.0,0.0,0.0,0.0,0.0,0.0,0.0,0.0,0.0,0.0,0.0,0.0,0.0,0.0,0.0,0.0,0.0,0.0,0.0,0.0,0.0,5.3416,5.4025,0.0,0.0,0.0,0.0,0.0,0.0,0.0,0.0,5.5987,0.0,0.0,0.0,0.0,0.0,0.0,0.0,0.0,0.0,0.0,0.0,0.0,0.0,0.0,0.0,0.0,0.0,0.0,0.0,0.0,0.0,0.0,0.0,0.0,0.0,0.0,0.0,0.0,0.0,0.0,0.0,0.0,0.0,0.0,0.0,0.0,0.0,0.0,0.0,0.0,0.0,0.0,0.0,0.0,0.0,0.0,0.0,0.0,0.0,0.0,0.0,0.0,0.0,0.0,0.0,7.0843,7.1204,7.1684,7.2378,7.2799,7.2459,7.1241,7.053,6.9145,0.0,0.0,0.0,0.0,0.0,0.0,0.0,0.0,0.0,0.0,0.0,0.0,0.0,0.0,0.0,0.0,0.0,0.0,0.0,0.0,0.0,0.0,0.0,0.0,0.0,0.0,0.0,0.0,0.0,0.0,0.0,0.0,0.0,0.0,0.0,0.0,0.0,0.0,0.0,0.0,5.3822,5.4329,5.504,0.0,0.0,0.0,0.0,0.0,0.0,5.6562,5.6427,0.0,0.0,0.0,0.0,0.0,0.0,0.0,0.0,0.0,0.0,0.0,0.0,0.0,0.0,0.0,0.0,0.0,0.0,0.0,0.0,0.0,0.0,0.0,0.0,0.0,0.0,0.0,0.0,0.0,0.0,0.0,0.0,0.0,0.0,0.0,0.0,0.0,0.0,0.0,0.0,0.0,0.0,0.0,0.0,0.0,0.0,0.0,0.0,0.0,0.0,0.0,0.0,0.0,0.0,0.0,7.092,7.0986,7.1636,7.2805,7.2879,7.2548,7.1901,7.0471,6.9059,0.0,0.0,0.0,0.0,0.0,0.0,0.0,0.0,0.0,0.0,0.0,0.0,0.0,0.0,0.0,0.0,0.0,0.0,0.0,0.0,0.0,0.0,0.0,0.0,0.0,0.0,0.0,0.0,0.0,0.0,0.0,0.0,0.0,0.0,0.0,0.0,0.0,0.0,0.0,0.0,0.0,5.4634,5.4803,5.5344,0.0,0.0,0.0,0.0,5.6799,5.6799,0.0,0.0,0.0,0.0,0.0,0.0,0.0,0.0,0.0,0.0,0.0,0.0,0.0,0.0,0.0,0.0,0.0,0.0,0.0,0.0,0.0,0.0,0.0,0.0,0.0,0.0,0.0,0.0,0.0,0.0,0.0,0.0,0.0,0.0,0.0,0.0,0.0,0.0,0.0,0.0,0.0,0.0,0.0,0.0,0.0,0.0,0.0,0.0,0.0,0.0,0.0,0.0,0.0,0.0,0.0,0.0,7.1307,7.204,7.2843,7.3718,7.3756,7.3229,7.2208,7.0619,6.9459,0.0,0.0,0.0,0.0,0.0,0.0,0.0,0.0,0.0,0.0,0.0,0.0,0.0,0.0,0.0,0.0,0.0,0.0,0.0,0.0,0.0,0.0,0.0,0.0,0.0,0.0,0.0,0.0,0.0,0.0,0.0,0.0,0.0,0.0,0.0,0.0,0.0,0.0,0.0,0.0,0.0,5.4837,5.5513,5.5649,5.5953,0.0,0.0,5.6799,5.6799,5.6799,0.0,0.0,0.0,0.0,0.0,0.0,0.0,0.0,0.0,0.0,0.0,0.0,0.0,0.0,0.0,0.0,0.0,0.0,0.0,0.0,0.0,0.0,0.0,0.0,0.0,0.0,0.0,0.0,0.0,0.0,0.0,0.0,0.0,0.0,0.0,0.0,0.0,0.0,0.0,0.0,0.0,0.0,0.0,0.0,0.0,0.0,0.0,0.0,0.0,0.0,0.0,0.0,0.0,0.0,0.0,7.0119,7.1796,7.2048,7.27,7.3834,7.3574,7.2784,7.154,7.0064,6.8926,0.0,0.0,0.0,0.0,0.0,0.0,0.0,0.0,0.0,0.0,0.0,0.0,0.0,0.0,0.0,0.0,0.0,0.0,0.0,0.0,0.0,0.0,0.0,0.0,0.0,0.0,0.0,0.0,0.0,0.0,0.0,0.0,0.0,0.0,0.0,0.0,0.0,0.0,0.0,0.0,0.0,0.0,5.5074,5.5784,0.0,0.0,0.0,5.7915,5.7476,0.0,0.0,0.0,0.0,0.0,0.0,0.0,0.0,0.0,0.0,0.0,0.0,0.0,0.0,0.0,0.0,0.0,0.0,0.0,0.0,0.0,0.0,0.0,0.0,0.0,0.0,0.0,0.0,0.0,0.0,0.0,0.0,0.0,0.0,0.0,0.0,0.0,0.0,0.0,0.0,0.0,0.0,0.0,0.0,0.0,0.0,0.0,0.0,0.0,0.0,0.0,0.0,0.0,0.0,0.0,0.0,0.0,7.2225,7.2316,7.2887,7.3916,7.3146,7.2215,7.1106,6.9647,0.0,0.0,0.0,0.0,0.0,0.0,0.0,0.0,0.0,0.0,0.0,0.0,0.0,0.0,0.0,0.0,0.0,0.0,0.0,0.0,0.0,0.0,0.0,0.0,0.0,0.0,0.0,5.2559,0.0,0.0,0.0,0.0,0.0,0.0,0.0,0.0,0.0,0.0,0.0,0.0,0.0,0.0,5.5784,5.5209,5.6258,5.6867,0.0,0.0,5.8863,5.849,5.8287,5.8152,0.0,0.0,0.0,0.0,0.0,0.0,0.0,0.0,0.0,0.0,0.0,0.0,0.0,0.0,0.0,0.0,0.0,0.0,0.0,0.0,0.0,0.0,0.0,0.0,0.0,0.0,0.0,0.0,0.0,0.0,0.0,0.0,0.0,0.0,0.0,0.0,0.0,0.0,0.0,0.0,0.0,0.0,0.0,0.0,0.0,0.0,0.0,0.0,0.0,0.0,0.0,0.0,0.0,0.0,0.0,7.2532,7.3336,7.3916,7.4228,7.2675,7.1687,7.125,6.9706,6.8862,0.0,0.0,0.0,0.0,0.0,0.0,0.0,0.0,0.0,0.0,0.0,0.0,0.0,0.0,0.0,0.0,0.0,0.0,0.0,0.0,0.0,0.0,0.0,0.0,0.0,0.0,0.0,0.0,0.0,0.0,0.0,0.0,0.0,0.0,0.0,0.0,0.0,0.0,0.0,0.0,0.0,5.6731,5.6664,5.7306,5.7814,0.0,0.0,5.9235,5.9844,5.937,5.893,5.893,0.0,0.0,0.0,0.0,0.0,0.0,0.0,0.0,0.0,0.0,0.0,0.0,0.0,0.0,0.0,0.0,0.0,0.0,0.0,0.0,0.0,0.0,0.0,0.0,0.0,0.0,0.0,0.0,0.0,0.0,0.0,0.0,0.0,0.0,0.0,0.0,0.0,0.0,0.0,0.0,0.0,0.0,0.0,0.0,0.0,0.0,0.0,0.0,0.0,0.0,0.0,0.0,0.0,7.1595,7.2612,7.308,7.3677,7.4218,7.2808,7.1749,7.1139,6.9667,6.8898,0.0,0.0,0.0,0.0,0.0,0.0,0.0,0.0,0.0,0.0,0.0,0.0,0.0,0.0,0.0,0.0,0.0,0.0,0.0,0.0,0.0,0.0,0.0,0.0,0.0,0.0,0.0,0.0,5.3761,5.4095,5.414,0.0,0.0,0.0,0.0,0.0,0.0,0.0,0.0,0.0,0.0,5.7645,5.8084,5.8795,0.0,0.0,6.0013,6.0858,6.0216,6.0283,6.025,5.9776,5.9674,0.0,0.0,0.0,0.0,0.0,0.0,0.0,0.0,0.0,0.0,0.0,0.0,0.0,0.0,0.0,0.0,0.0,0.0,0.0,0.0,0.0,0.0,0.0,0.0,0.0,0.0,0.0,0.0,0.0,0.0,0.0,0.0,0.0,0.0,0.0,0.0,0.0,0.0,0.0,0.0,0.0,0.0,0.0,0.0,0.0,0.0,0.0,0.0,0.0,0.0,0.0,0.0,7.2126,7.3339,7.3376,7.3716,7.4365,7.2967,7.1802,7.1079,6.9905,6.9265,0.0,0.0,0.0,0.0,0.0,0.0,0.0,0.0,0.0,0.0,0.0,0.0,0.0,0.0,0.0,0.0,0.0,0.0,0.0,0.0,0.0,0.0,0.0,0.0,0.0,0.0,0.0,0.0,5.4169,5.4653,5.4911,0.0,0.0,0.0,0.0,0.0,0.0,0.0,0.0,0.0,0.0,5.8727,5.9268,5.9979,6.0283,5.9776,6.1231,6.2009,6.096,6.1264,6.1366,6.0588,0.0,0.0,0.0,0.0,0.0,0.0,0.0,0.0,0.0,0.0,0.0,0.0,0.0,0.0,0.0,0.0,0.0,0.0,0.0,0.0,0.0,0.0,0.0,0.0,0.0,0.0,0.0,0.0,0.0,0.0,6.8359,0.0,0.0,0.0,0.0,0.0,0.0,0.0,0.0,0.0,0.0,0.0,0.0,0.0,0.0,0.0,0.0,0.0,0.0,0.0,0.0,0.0,0.0,7.2884,7.4979,7.4472,7.4356,7.4472,7.3019,7.1932,7.1304,7.0513,7.0073,7.0036,0.0,0.0,0.0,0.0,0.0,0.0,0.0,0.0,0.0,0.0,0.0,0.0,0.0,0.0,0.0,0.0,0.0,0.0,0.0,0.0,0.0,0.0,0.0,0.0,0.0,0.0,5.45,5.451,5.4884,0.0,0.0,0.0,0.0,0.0,0.0,0.0,0.0,0.0,0.0,5.9641,6.008,6.008,6.0757,6.1264,6.1231,6.1873,6.2381,6.2313,6.2347,6.2144,0.0,0.0,0.0,0.0,0.0,0.0,0.0,0.0,0.0,0.0,0.0,0.0,0.0,0.0,0.0,0.0,0.0,0.0,0.0,0.0,0.0,0.0,0.0,0.0,0.0,0.0,0.0,7.1206,7.0898,0.0,0.0,0.0,0.0,0.0,0.0,0.0,0.0,0.0,0.0,0.0,7.0381,7.0545,0.0,0.0,0.0,0.0,0.0,0.0,0.0,0.0,0.0,0.0,0.0,0.0,7.3875,7.3711,7.4243,7.4062,7.3222,7.2706,7.2024,7.1321,7.1064,7.066,7.011,0.0,0.0,0.0,0.0,0.0,0.0,0.0,0.0,0.0,0.0,0.0,0.0,0.0,0.0,0.0,0.0,0.0,0.0,0.0,0.0,0.0,0.0,0.0,0.0,0.0,5.5317,0.0,0.0,0.0,0.0,0.0,0.0,0.0,0.0,0.0,0.0,0.0,5.9404,6.0419,6.0757,6.1061,6.1569,6.1839,6.2009,0.0,0.0,0.0,0.0,0.0,0.0,0.0,0.0,0.0,0.0,0.0,0.0,0.0,0.0,5.4237,5.4823,5.4326,5.3512,5.2402,0.0,0.0,0.0,0.0,0.0,0.0,0.0,0.0,0.0,0.0,0.0,0.0,0.0,0.0,7.2322,0.0,7.2706,0.0,0.0,0.0,0.0,0.0,0.0,0.0,0.0,7.0487,7.0763,7.0969,7.1104,7.092,0.0,7.0579,7.0127,0.0,0.0,0.0,0.0,0.0,0.0,0.0,0.0,7.4506,7.4009,7.416,7.3998,7.334,7.3046,7.2679,7.2165,7.2165,7.1762,7.0991,7.1945,7.1908,0.0,0.0,0.0,0.0,0.0,0.0,0.0,0.0,0.0,0.0,0.0,0.0,0.0,0.0,0.0,0.0,0.0,0.0,0.0,0.0,0.0,0.0,0.0,5.5856,0.0,0.0,0.0,0.0,0.0,0.0,0.0,0.0,0.0,5.8321,5.9167,6.0182,6.1163,6.1501,6.1839,6.2313,0.0,0.0,0.0,0.0,0.0,0.0,0.0,6.2956,6.2482,6.2787,6.2603,6.0853,5.8606,5.6714,5.5752,0.0,0.0,5.4874,5.4207,5.3414,5.2995,5.3414,5.3623,5.2755,5.3264,5.3773,0.0,0.0,0.0,0.0,0.0,0.0,0.0,0.0,7.363,7.3591,0.0,7.4322,0.0,0.0,0.0,0.0,0.0,7.214,0.0,0.0,7.3091,7.2941,7.1912,7.1869,7.1284,7.0257,7.0819,7.0586,6.9755,7.0241,0.0,0.0,0.0,0.0,0.0,0.0,7.4723,7.5589,7.4403,7.4111,7.4771,7.4111,7.3744,7.3744,7.378,7.3413,7.2679,7.2679,7.2239,7.1358,6.9889,0.0,0.0,0.0,0.0,0.0,0.0,0.0,0.0,0.0,0.0,0.0,0.0,0.0,0.0,0.0,0.0,0.0,0.0,0.0,0.0,5.5852,0.0,0.0,0.0,0.0,0.0,0.0,0.0,0.0,0.0,0.0,5.9201,6.0351,6.1332,6.14,0.0,0.0,0.0,0.0,6.2415,6.2415,6.2415,6.2415,6.2415,6.2415,6.2448,6.2415,0.0,0.0,6.0787,5.9522,5.8237,5.715,5.5439,5.4042,5.3443,5.3871,5.4072,5.4102,5.4551,5.5089,5.5119,5.4999,5.5149,7.7053,0.0,0.0,0.0,0.0,7.6476,7.6207,7.6169,7.5553,7.4938,7.4361,7.4591,0.0,0.0,0.0,0.0,0.0,0.0,7.2586,7.3018,7.3808,7.3848,7.3145,7.3145,7.2669,7.1798,7.1987,7.1895,7.1674,7.1854,7.205,7.2208,0.0,0.0,0.0,0.0,7.4325,7.4085,7.4403,7.4404,7.4037,7.4368,7.4808,7.5395,7.5395,7.5285,7.5065,7.5065,7.4147,7.2275,7.1725,0.0,0.0,0.0,0.0,0.0,0.0,0.0,0.0,0.0,0.0,0.0,0.0,0.0,0.0,0.0,0.0,0.0,0.0,0.0,5.8909,5.8863,5.8903,0.0,0.0,0.0,0.0,0.0,0.0,0.0,0.0,0.0,6.0689,6.1028,6.1704,0.0,0.0,6.2584,6.3125,6.2719,6.2415,6.2415,6.2415,0.0,6.2415,6.2854,6.299,6.2482,6.1676,6.067,5.9522,5.836,5.7086,5.5918,5.53,5.4999,5.5209,5.4251,5.3563,5.3533,5.4012,5.4461,5.4521,5.5209,5.5897,8.0015,7.9939,7.8938,7.8477,7.8438,7.7977,7.7746,7.7746,7.7207,7.6707,7.6207,7.6332,7.589,7.5085,7.4503,0.0,0.0,0.0,7.3997,7.466,7.481,7.4621,7.4053,7.3721,7.3369,7.2973,7.3185,7.3369,7.345,7.3664,7.3956,7.4088,0.0,0.0,7.5234,7.5157,7.4874,7.4532,7.5043,7.5139,7.4661,7.5139,7.5763,7.6533,7.6607,7.657,7.657,7.657,7.5763,7.4001,7.301,7.1835,0.0,0.0,0.0,0.0,0.0,0.0,0.0,0.0,0.0,0.0,0.0,6.1761,6.1798,0.0,0.0,0.0,6.0834,6.06,5.9716,5.9674,0.0,0.0,0.0,0.0,0.0,0.0,0.0,6.0588,6.1264,6.1738,6.1738,6.1738,6.2076,6.2956,6.2685,6.255,6.3024,0.0,6.2482,6.2787,6.2584,6.2482,6.2787,6.2956,6.2922,6.2482,6.1837,6.067,5.9081,5.8177,5.7181,5.5681,5.5388,5.5718,5.6107,5.5359,5.473,5.476,5.5269,5.5748,5.5777,5.6615,5.7334,8.2401,8.217,7.99,7.8938,7.89,7.89,7.89,7.89,7.8823,7.8784,7.8792,7.8971,7.8599,7.7798,7.6445,0.0,7.701,7.621,7.6241,7.6873,7.612,7.5416,7.4703,7.3959,7.368,7.378,7.4347,7.4754,7.4904,7.5458,7.5829,7.5969,7.431,7.4014,7.4978,7.5495,7.5829,7.5983,7.6056,7.613,7.6203,7.6203,7.6607,7.7378,7.7414,7.7451,7.7488,7.7451,7.7047,7.6203,7.4001,7.2716,7.2459,0.0,0.0,0.0,0.0,0.0,0.0,0.0,0.0,0.0,0.0,0.0,0.0,0.0,0.0,0.0,6.0745,0.0,5.9268,5.9201,0.0,0.0,0.0,5.9539,6.0216,6.0926,6.14,6.14,0.0,0.0,6.2415,6.2448,6.2482,6.2482,6.2482,6.2516,6.255,6.2618,6.2821,6.3531,6.3024,6.2821,6.3463,6.3125,6.2753,6.2719,6.2471,6.1583,5.9516,5.8765,5.7934,5.5892,5.5837,5.6286,5.6316,5.6765,5.7184,5.7184,5.7633,5.8052,5.7962,5.8471,5.8919,8.3285,8.3208,8.2631,8.2362,8.2362,8.2362,8.2362,8.2324,8.167,8.14,8.1362,8.0844,8.0433,8.0241,7.991,7.9931,8.0269,7.9569,7.9102,7.8783,7.8165,7.7097,7.5801,7.558,7.5169,7.4625,7.4764,7.4838,7.4918,7.5058,7.5169,7.5139,7.4764,7.4985,7.5763,7.5353,7.5132,7.5175,7.5799,7.6423,7.7011,7.7047,7.7451,7.8295,7.8295,7.8589,7.9176,7.8626,7.7892,7.7047,7.5873,7.4404,7.2606,7.1982,0.0,0.0,0.0,0.0,0.0,0.0,0.0,0.0,0.0,6.3892,6.3892,0.0,6.3123,0.0,6.1456,6.0926,6.0791,6.0757,0.0,0.0,6.1264,6.1637,6.1839,6.2009,6.2144,6.2144,6.2279,6.2415,6.2415,6.2888,6.326,6.3226,6.326,6.3429,6.3971,6.4072,6.414,6.4275,6.4174,6.414,6.4275,6.4208,6.4038,6.4072,6.3233,6.2092,6.0656,5.9539,5.8443,5.7028,5.6765,5.7064,5.7543,5.7812,5.8052,5.8471,5.8381,5.8141,5.8141,5.865,5.9099,8.417,8.4209,8.4555,8.4709,8.467,8.3901,8.3593,8.3555,8.3093,8.2862,8.2862,8.2127,8.1647,8.1347,8.1347,8.1258,8.1065,8.0305,7.9679,7.9031,7.7989,7.7011,7.6093,7.5726,7.5542,7.5432,7.5432,7.5616,7.5946,7.5983,7.5983,7.5983,7.5983,7.6203,7.657,7.5836,7.5799,7.6533,7.6607,7.6864,7.7304,7.7341,7.7708,7.8552,7.8956,7.9323,7.9764,7.9727,7.9286,7.8442,7.7304,7.6056,7.4698,7.3634,7.3046,0.0,0.0,0.0,0.0,0.0,0.0,0.0,0.0,0.0,0.0,0.0,6.2124,6.1958,6.1231,6.0757,6.0757,6.0757,6.0757,6.0757,6.1467,6.2042,6.2347,6.2415,6.2415,6.2415,6.2415,6.2516,6.2854,6.326,6.3632,6.3971,6.4275,6.4512,6.4546,6.4613,6.4715,6.5019,6.4816,6.4613,6.4613,6.4613,6.4613,6.4498,6.3515,6.232,6.1078,5.9852,5.8539,5.7376,5.7334,5.7663,5.8052,5.8381,5.868,5.8919,5.883,5.859,5.856,5.886,5.9099,8.5055,8.5132,8.5824,8.6094,8.5978,8.4555,8.3901,8.3901,8.3901,8.3901,8.3868,8.3257,8.2661,8.2179,8.1972,8.1545,8.1007,8.0132,7.9315,7.8664,7.7145,7.635,7.624,7.5542,7.5579,7.624,7.6276,7.668,7.7488,7.7488,7.7561,7.7635,7.7635,7.7671,7.7745,7.6974,7.7194,7.8405,7.7818,7.7488,7.7488,7.7488,7.7892,7.8699,7.9323,7.969,7.98,8.0388,8.0424,7.9764,7.8295,7.7451,7.7268,7.5322,7.4111,0.0,7.3156,0.0,0.0,0.0,0.0,0.0,0.0,0.0,0.0,6.1734,6.0689,6.14,6.0723,6.0283,6.0385,6.0385,6.0419,6.0419,6.1095,6.1806,6.2347,6.2415,6.2415,6.2415,6.2482,6.2787,6.3396,6.3666,6.4072,6.4681,6.5358,6.5561,6.5053,6.4986,6.5189,6.5764,6.529,6.5087,6.5019,6.4952,6.5019,6.4937,6.3876,6.2566,6.1752,6.0317,5.892,5.7918,5.8052,5.8381,5.8291,5.871,5.9069,5.9099,5.9069,5.9069,5.9069,5.9069,5.9099,8.5863,8.5901,8.6055,8.6094,8.6094,8.5747,8.5632,8.5632,8.5632,8.5632,8.5599,8.494,8.4584,8.4382,8.3209,8.2583,8.2435,8.1169,8.0134,7.9279,7.8491,7.7745,7.7121,7.6937,7.6937,7.7084,7.7084,7.7524,7.8369,7.8369,7.8699,7.9323,7.9323,7.9653,8.0241,0.0,0.0,0.0,7.8075,7.8369,7.8369,7.8369,7.8736,7.9507,7.9066,0.0,7.9727,7.9323,7.9286,7.9727,7.8883,0.0,0.0,0.0,0.0,0.0,0.0,0.0,0.0,0.0,0.0,0.0,6.5607,6.3886,6.3693,6.2631,6.2009,6.2144,6.1501,6.1332,6.1873,6.1941,6.1941,6.1975,6.2618,6.2922,6.2482,6.2415,6.2415,6.2415,6.2922,6.3362,6.3599,6.4512,6.529,6.5493,6.6136,6.6508,6.6373,6.6305,6.6406,6.6542,6.6373,6.6373,6.6406,6.6373,6.6542,6.6794,6.5272,6.3998,6.393,6.2124,6.0464,5.9608,5.9638,5.9518,5.9039,5.9039,5.9159,5.9129,5.9129,5.9099,5.9099,5.9099,5.9099,8.7363,0.0,8.7363,8.7401,0.0,8.7401,8.7401,8.7325,8.6478,8.6094,8.606,8.5737,8.5589,8.5513,8.4402,8.353,8.282,8.1357,8.0074,7.9046,7.8701,7.8369,7.7965,7.8332,7.8552,7.8516,7.8516,7.8772,7.914,7.9176,7.9396,7.98,7.98,7.9984,8.0388,7.9984,7.9396,7.8552,7.8956,7.9176,7.9213,7.9176,7.958,8.0314,7.9617,0.0,0.0,0.0,0.0,0.0,0.0,0.0,0.0,0.0,0.0,7.6754,7.5542,7.4515,7.3707,7.2202,7.0537,6.8848,6.6001,6.357,6.2061,6.1537,6.1434,6.1806,6.1501,6.1603,6.2313,6.2719,6.2956,6.299,6.3599,6.3768,6.3091,6.2956,6.2956,6.2956,6.3294,6.3734,6.4512,6.5189,6.5831,6.6203,6.6542,6.6812,6.6812,6.6812,6.6812,6.6812,6.6812,6.6948,6.7286,6.7354,6.7624,6.8008,6.633,6.4897,6.5052,6.2915,6.0984,6.0655,6.0595,6.0475,6.0176,5.9847,5.9578,5.9548,5.9338,5.9129,5.9099,5.9099,5.9099,8.8671,8.8671,8.8517,8.8556,8.8671,8.8517,8.8556,8.8594,0.0,0.0,0.0,8.6296,8.6076,8.5928,8.4861,8.3697,8.2485,8.1007,7.9779,7.8809,7.8809,7.8809,7.8846,7.947,7.9727,7.958,7.958,7.958,7.958,7.958,7.9727,7.9984,7.9984,8.0057,8.0204,8.0204,8.0204,8.0204,8.0094,7.9984,7.9984,8.0021,8.0388,8.1195,8.0277,8.0167,8.0975,8.0241,7.98,7.98,7.9947,7.991,7.98,7.991,7.9323,7.7855,7.7011,7.5873,7.4441,7.345,7.166,6.8818,6.627,6.369,6.1061,6.0892,6.1163,6.1839,6.1873,6.2178,6.2922,6.3531,6.3903,6.3903,6.4444,6.4512,6.3802,6.3599,6.3531,6.3666,6.3734,6.4208,6.5425,6.5797,6.6102,6.6643,6.6779,6.6812,6.6812,6.6812,6.6812,6.6812,6.6812,6.7049,6.7692,6.7861,6.8267,6.9026,6.7273,6.5737,6.5135,6.3468,6.182,6.1313,6.1283,6.1194,6.1074,6.0625,6.0296,6.0266,5.9757,5.9279,5.9279,5.9189,5.9099,8.8709,8.8632,8.7902,8.8017,8.8632,8.7902,8.8017,8.8671,8.8402,8.8325,8.8252,8.693,8.6062,8.5366,8.335,8.1997,8.1206,8.0321,7.983,7.9617,7.9617,7.9617,7.9617,7.9727,7.9433,7.8809,7.8772,7.8772,7.8772,7.8772,7.947,8.0681,8.0828,8.1158,8.1819,8.1856,8.1856,8.1856,8.1195,8.0828,8.0828,8.0828,8.1232,8.1929,8.0571,8.0167,8.0938,8.0241,7.98,7.98,8.0461,8.0534,7.9874,8.0424,8.0424,7.9507,7.8699,7.7818,7.6827,7.5395,7.2824,6.8925,6.6834,6.5225,6.4085,6.3971,6.4005,6.414,6.4106,6.4444,6.5121,6.529,6.5392,6.5358,6.5459,6.5256,6.4512,6.4005,6.3869,6.4444,6.4444,6.4749,6.5662,6.6271,6.6609,6.6779,6.6914,6.6846,6.688,6.6812,6.6812,6.6812,6.6812,6.7117,6.7793,6.7929,6.8538,6.9823,6.8718,6.7362,6.6823,6.5396,6.3678,6.2258,6.1972,6.1762,6.1313,6.1044,6.0954,6.0924,6.0416,5.9967,5.9907,5.9518,5.9159,8.9787,8.9325,8.8902,8.8748,8.8671,8.8709,8.8979,8.9329,8.942,8.8921,8.804,8.6923,8.6039,8.5235,8.3388,8.2182,8.1511,8.0696,8.0124,7.99,8.0241,8.0461,8.0498,8.0865,8.0681,7.9947,7.991,7.969,7.9286,7.925,7.9837,8.0975,8.1415,8.1856,8.2186,8.2186,8.2186,8.2186,8.1819,8.1636,8.1636,8.1636,8.1819,8.2186,8.1048,8.0608,8.0975,8.0241,7.98,7.98,8.0571,8.0828,8.0498,8.1195,8.1305,8.0498,7.9286,7.8222,7.7378,7.5296,7.3152,7.0785,6.8884,6.7515,6.6632,6.5685,6.5189,6.5222,6.5865,6.6339,6.6339,6.6643,6.6745,6.6339,6.6305,6.6,6.5358,6.5324,6.5459,6.573,6.5797,6.6102,6.6812,6.6846,6.6812,6.6846,6.7117,6.7387,6.7421,6.776,6.7726,6.7015,6.6846,6.7354,6.8301,6.8538,6.918,7.0534,6.9636,6.8372,6.7336,6.6048,6.458,6.3003,6.263,6.251,6.2181,6.1852,6.1702,6.1583,6.1104,6.0595,6.0176,5.9817,5.9668,9.0517,8.9902,8.9479,8.9094,8.8786,8.9556,9.0017,9.0175,9.0108,8.9252,8.7905,8.6899,8.5962,8.507,8.3589,8.2623,8.2012,8.1339,8.0762,8.0451,8.0975,8.1269,8.1305,8.1893,8.1672,8.0828,8.0718,8.0241,7.936,7.9433,8.0021,8.0975,8.1782,8.2186,8.2186,8.2186,8.2186,8.2186,8.2186,8.2186,8.2186,8.2186,8.2186,8.215,8.1599,8.1269,8.1232,8.0645,8.0241,8.0131,8.0828,8.1195,8.1085,8.1929,8.2113,8.1269,7.9947,7.8589,7.7279,7.5087,7.3374,7.2494,7.0789,6.9323,6.8452,6.738,6.6542,6.6406,6.7354,6.7895,6.7489,6.759,6.7658,6.7117,6.6914,6.6643,6.6305,6.6576,6.6981,6.7184,6.7184,6.7286,6.7624,6.7421,6.7117,6.7184,6.7557,6.7929,6.8166,6.8741,6.8504,6.7793,6.7455,6.7929,6.8977,6.9451,7.006,7.121,7.0448,6.9088,6.7673,6.6259,6.4923,6.3645,6.3049,6.2989,6.3019,6.269,6.2361,6.2271,6.1942,6.1403,6.0805,6.0625,6.0475,8.9979,8.9671,8.8325,8.8055,8.8748,8.9517,9.0287,9.0864,9.0255,8.9535,8.851,8.7203,8.5771,8.4479,8.3564,8.2787,8.2196,8.2095,8.1957,8.1893,8.2039,8.2076,8.2039,8.215,8.1379,8.0094,7.9984,7.9286,7.7965,7.8516,7.9507,8.0938,8.1819,8.2186,8.2186,8.2186,8.2186,8.2186,8.2186,8.2186,8.2186,8.2186,8.2186,8.2186,8.2113,8.2076,8.2039,8.2039,8.1636,8.1048,8.1636,8.1746,8.1269,8.2443,8.292,8.2113,8.1232,7.98,7.7499,7.5596,7.418,7.3115,7.1539,7.0153,6.9272,6.9471,6.9147,6.8233,6.8504,6.8977,6.8842,6.8368,6.7963,6.7726,6.7286,6.7015,6.7455,6.7184,6.732,6.8774,6.8267,6.7861,6.803,6.7929,6.7793,6.7692,6.7996,6.8368,6.8876,6.918,6.9248,6.9079,6.9383,6.9553,6.9553,7.0297,7.1041,7.1379,7.1222,7.0049,6.8336,6.7125,6.6259,6.4015,6.3079,6.3079,6.3079,6.2989,6.2959,6.2839,6.272,6.263,6.2091,6.1852,6.1672,8.9633,8.9094,8.7902,8.7594,8.8017,8.8825,8.9363,8.9636,8.942,8.8609,8.7404,8.636,8.5312,8.4344,8.3163,8.2434,8.2186,8.2186,8.2186,8.2186,8.2186,8.2186,8.2186,8.2186,8.1599,8.0608,8.0498,7.991,7.9103,7.9617,8.0351,8.1012,8.1782,8.2186,8.2186,8.2186,8.2186,8.2186,8.2186,8.2186,8.2186,8.2186,8.2186,8.2186,8.2186,8.2186,8.2186,8.2186,8.2039,8.1746,8.2039,8.2039,8.1709,8.2333,8.2553,8.215,8.0975,7.9653,7.8185,7.692,7.5574,7.4187,7.3319,7.2171,7.0717,7.0716,7.0567,7.0128,7.0195,7.0263,6.9789,6.9451,6.891,6.8166,6.803,6.8098,6.7861,6.8436,6.9113,6.9654,6.9451,6.9248,6.918,6.8876,6.8436,6.8199,6.8571,6.9316,6.9722,7.0128,7.0195,7.006,7.1041,7.1515,7.077,7.1244,7.2022,7.2394,7.2225,7.1118,6.9518,6.7797,6.647,6.4654,6.3797,6.3369,6.3079,6.3079,6.3079,6.3169,6.3169,6.3169,6.3677,6.3199,6.275,8.9248,8.8594,8.7748,8.7517,8.7786,8.8402,8.8825,8.8944,8.8653,8.7768,8.6619,8.5536,8.4779,8.4199,8.2991,8.2407,8.2186,8.2186,8.2186,8.2186,8.2186,8.2186,8.2186,8.2186,8.1782,8.1122,8.0975,8.0681,8.0241,8.0681,8.1122,8.1379,8.1893,8.2186,8.2186,8.2186,8.2186,8.2186,8.2186,8.2186,8.2186,8.2186,8.2186,8.2186,8.2186,8.2186,8.2186,8.2186,8.2186,8.2186,8.2186,8.2186,8.2186,8.259,8.2774,8.2406,8.1012,7.9653,7.8662,7.7778,7.657,7.5045,7.4496,7.3587,7.2414,7.1995,7.1785,7.1582,7.1616,7.1278,7.0635,7.0297,6.9586,6.847,6.8774,6.8808,6.8402,6.9451,7.0195,7.0432,7.0466,7.05,7.0364,6.9688,6.8944,6.9113,6.962,7.0297,7.05,7.0906,7.1109,7.0906,7.236,7.2665,7.1718,7.236,7.3105,7.3172,7.2935,7.2262,7.0991,6.9251,6.7373,6.595,6.481,6.393,6.3644,6.3468,6.3737,6.3827,6.3887,6.4126,6.4934,6.4366,6.4006,8.8748,8.8556,8.7748,8.7863,8.8632,8.8671,8.9094,8.9594,8.8214,8.7406,8.6998,8.5196,8.4254,8.4193,8.3415,8.2793,8.2251,8.2186,8.2186,8.2186,8.2186,8.2186,8.2186,8.2186,8.1782,8.1158,8.1122,8.1048,8.0938,8.1012,8.1415,8.2076,8.215,8.2186,8.2186,8.2186,8.2186,8.2186,8.2186,8.2186,8.2186,8.2186,8.2186,8.2186,8.2186,8.2186,8.2186,8.2186,8.2186,8.2186,8.2186,8.2186,8.2333,8.3618,8.4022,8.3287,8.1819,8.0241,7.8856,7.7801,7.6659,7.5489,7.4703,7.3843,7.3493,7.3298,7.3003,7.2428,7.2293,7.1954,7.1244,7.0635,6.9992,6.9282,6.9147,6.918,6.9113,6.9789,7.05,7.1041,7.121,7.121,7.1176,6.9992,7.006,7.0534,7.0601,7.05,7.1109,7.1345,7.1582,7.2124,7.2766,7.3003,7.1887,7.3037,7.395,7.395,7.3688,7.313,7.2208,7.0961,6.9045,6.7553,6.6758,6.5779,6.4623,6.4425,6.4934,6.5203,6.5353,6.5742,6.5892,6.5922,6.5413,8.8021,8.7055,8.7325,8.7902,8.8671,8.8671,8.8863,8.9017,8.7902,8.7094,8.6453,8.5314,8.456,8.4129,8.3488,8.2853,8.2251,8.2186,8.2186,8.2186,8.2186,8.2186,8.2186,8.2186,8.2076,8.1819,8.1746,8.1782,8.1782,8.1746,8.1893,8.2113,8.2186,8.2186,8.2186,8.2186,8.2186,8.2186,8.2186,8.2186,8.2223,8.2186,8.2186,8.2186,8.2186,8.2186,8.2186,8.2186,8.2186,8.2186,8.2186,8.2443,8.2957,8.3508,8.3728,8.3324,8.1893,8.0755,8.0103,7.9288,7.7981,7.6376,7.6402,7.5636,7.4548,7.4187,7.3883,7.3206,7.2631,7.209,7.1481,7.1041,7.0804,7.0601,7.05,7.0466,7.0534,7.0737,7.1041,7.1312,7.1684,7.1853,7.1616,7.1616,7.1921,7.1954,7.1785,7.1751,7.1887,7.2022,7.2124,7.2529,7.3375,7.4018,7.3646,7.439,7.5134,7.4897,7.4533,7.4229,7.3491,7.2248,7.0457,6.9711,6.8882,6.7473,6.6269,6.5141,6.5772,6.5892,6.6101,6.6311,6.655,6.634,6.5742,8.7863,8.6748,8.744,8.8132,8.8671,8.8671,8.8556,8.8209,8.7363,8.6526,8.5739,8.5079,8.4467,8.3862,8.3227,8.2647,8.2251,8.2186,8.2186,8.2186,8.2186,8.2186,8.2186,8.2186,8.2186,8.2186,8.2186,8.2186,8.2186,8.2186,8.2186,8.2186,8.2186,8.2186,8.2186,8.2186,8.2186,8.2223,8.2443,8.259,8.2627,8.2847,8.2994,8.292,8.2737,8.2443,8.2223,8.2186,8.2186,8.2186,8.2186,8.2663,8.3654,8.3801,8.3911,8.3985,8.292,8.2039,8.1681,8.0934,7.9747,7.8044,7.7691,7.6919,7.5607,7.5213,7.4593,7.3916,7.3172,7.2462,7.1887,7.1684,7.1582,7.1413,7.1515,7.1548,7.1379,7.1278,7.1413,7.1684,7.2056,7.2259,7.2462,7.3037,7.324,7.3105,7.2935,7.2732,7.2732,7.2766,7.2902,7.3138,7.3916,7.4593,7.4627,7.5202,7.554,7.5337,7.5236,7.4999,7.4702,7.3399,7.2382,7.1753,7.0598,6.9237,6.7776,6.66,6.6192,6.6312,6.64,6.661,6.667,6.661,6.6041,8.8171,8.7517,8.8325,8.8632,8.8671,8.8671,8.8209,8.744,8.6522,8.5777,8.5162,8.4467,8.3824,8.3189,8.2585,8.2251,8.2186,8.2186,8.2186,8.2186,8.2186,8.2186,8.2186,8.2186,8.2186,8.2186,8.2186,8.2186,8.2186,8.2186,8.2186,8.2186,8.2186,8.2186,8.2186,8.226,8.226,8.2443,8.303,8.3398,8.3508,8.4058,8.4352,8.4352,8.3765,8.3067,8.2296,8.2223,8.2223,8.226,8.226,8.2994,8.4352,8.4609,8.4939,8.5343,8.4903,8.4168,8.3404,8.2461,8.1598,8.0218,7.8705,7.7563,7.6933,7.6163,7.5303,7.4525,7.3815,7.3138,7.2563,7.2394,7.2191,7.1582,7.2056,7.2124,7.165,7.1379,7.1582,7.2191,7.2529,7.3071,7.395,7.4086,7.395,7.4255,7.3916,7.351,7.351,7.3477,7.3815,7.4255,7.4661,7.4999,7.5371,7.5676,7.5676,7.5642,7.5608,7.5473,7.5405,7.4556,7.4031,7.3276,7.2641,7.1252,6.8748,6.7566,6.7034,6.6973,6.6971,6.6849,6.6819,6.6729,6.649,8.8171,8.7555,8.8325,8.8671,8.8671,8.8671,8.8209,8.7291,8.6009,8.532,8.4915,8.3979,8.3378,8.3074,8.2497,8.2186,8.2186,8.2186,8.2186,8.2186,8.2186,8.2186,8.2186,8.2186,8.2186,8.2186,8.2186,8.2186,8.2186,8.2186,8.2186,8.2186,8.2186,8.2186,8.226,8.2737,8.303,8.3141,8.3801,8.4242,8.4242,8.4462,8.4609,8.4572,8.4352,8.3838,8.3067,8.2517,8.248,8.2994,8.303,8.3765,8.5049,8.5416,8.5527,8.5673,8.5049,8.4535,8.4315,8.3898,8.308,8.1597,8.0119,7.8651,7.7405,7.6358,7.5371,7.4695,7.3916,7.3341,7.3206,7.3138,7.3003,7.2834,7.3003,7.3071,7.2699,7.2293,7.2191,7.2462,7.3274,7.4086,7.4525,7.4627,7.4999,7.5134,7.4695,7.4255,7.4255,7.4255,7.4289,7.4593,7.4965,7.5303,7.554,7.5676,7.5676,7.5676,7.5676,7.5676,7.5676,7.5676,7.5186,7.46,7.4107,7.2672,7.0168,6.8766,6.7968,6.7335,6.7061,6.6939,6.6969,6.6849,6.664,8.8632,8.8017,8.8786,8.8979,8.8709,8.8671,8.8017,8.6906,8.5894,8.524,8.4651,8.3928,8.3303,8.2853,8.2407,8.2186,8.2186,8.2186,8.2186,8.2186,8.2186,8.2186,8.2186,8.2186,8.2186,8.2186,8.2186,8.2186,8.2186,8.2186,8.2186,8.2186,8.2186,8.237,8.2627,8.3141,8.3508,8.3911,8.4646,8.5049,8.5086,8.5343,8.549,8.549,8.5196,8.4792,8.4278,8.3508,8.3177,8.3508,8.3948,8.4792,8.5747,8.604,8.6261,8.6151,8.5857,8.5527,8.549,8.5458,8.4882,8.3375,8.1634,8.0094,7.8415,7.6931,7.5439,7.5033,7.4356,7.3916,7.3916,7.3916,7.3916,7.3916,7.3883,7.3781,7.351,7.2834,7.28,7.3206,7.4052,7.4627,7.5067,7.5337,7.5676,7.5608,7.5303,7.4999,7.5033,7.5033,7.4999,7.5033,7.5337,7.554,7.5642,7.5676,7.5676,7.5676,7.5676,7.5676,7.5676,7.5676,7.5383,7.506,7.4505,7.3018,7.0838,6.9516,6.8649,6.7998,6.7091,6.6999,6.6999,6.6999,6.6819,8.9402,8.8825,8.9556,8.9402,8.8748,8.8671,8.7748,8.6286,8.5919,8.524,8.4372,8.3928,8.3303,8.237,8.2186,8.2186,8.2186,8.2186,8.2186,8.2186,8.2186,8.2186,8.2186,8.2186,8.2186,8.2186,8.2186,8.2186,8.2186,8.2186,8.2223,8.2333,8.2406,8.27,8.3361,8.3508,8.4058,8.4682,8.5453,8.5857,8.5894,8.6518,8.6885,8.6811,8.6224,8.5783,8.549,8.4866,8.4278,8.3875,8.5049,8.5783,8.6004,8.6628,8.6921,8.6921,8.6995,8.6848,8.6958,8.6738,8.6407,8.5358,8.2845,8.1083,7.9787,7.7306,7.5743,7.5709,7.4999,7.4627,7.4728,7.4593,7.4627,7.4728,7.4492,7.4086,7.3612,7.2969,7.3138,7.4119,7.4661,7.4897,7.5506,7.5642,7.5676,7.5676,7.5608,7.5574,7.554,7.5506,7.5642,7.5676,7.5642,7.5642,7.5676,7.5676,7.5676,7.5676,7.5676,7.5676,7.5676,7.5676,7.5676,7.5258,7.4835,7.3225,7.1929,7.0727,6.9317,6.8206,6.7548,6.7213,6.6999,6.6999,6.6969,8.944,8.8786,8.9556,8.944,8.8748,8.8671,8.7709,8.6069,8.5079,8.4605,8.4029,8.3132,8.2647,8.2186,8.2186,8.2186,8.2186,8.2186,8.2186,8.2186,8.2186,8.2186,8.2186,8.2186,8.2186,8.2186,8.2186,8.2186,8.2186,8.226,8.2553,8.3067,8.3104,8.3508,8.4205,8.4829,8.5233,8.5563,8.6261,8.6664,8.6701,8.6848,8.6995,8.6995,8.6775,8.6371,8.5857,8.56,8.5416,8.527,8.6114,8.6701,8.6664,8.6885,8.7031,8.7031,8.7031,8.7031,8.7031,8.7031,8.6628,8.5683,8.3174,8.1048,8.0222,7.7465,7.6205,7.6149,7.5473,7.51,7.5811,7.527,7.5202,7.5879,7.4897,7.4052,7.4187,7.3713,7.3578,7.4458,7.5067,7.5439,7.5608,7.5676,7.5676,7.5676,7.5676,7.5676,7.5676,7.5676,7.5676,7.5676,7.5676,7.5676,7.5676,7.5676,7.5676,7.5676,7.5676,7.5676,7.5676,7.5676,7.5676,7.558,7.5388,7.4306,7.3121,7.1929,7.0392,6.8852,6.7879,6.7427,6.7091,6.6999,6.6999,8.9633,8.9248,8.971,8.944,8.8671,8.8325,8.7363,8.6073,8.5037,8.442,8.4029,8.3074,8.2434,8.2186,8.2186,8.2186,8.2186,8.2186,8.2186,8.2186,8.2186,8.2186,8.2186,8.2186,8.2186,8.2186,8.2186,8.2406,8.2663,8.27,8.3177,8.3765,8.3911,8.4315,8.5086,8.5527,8.5967,8.6297,8.6775,8.7031,8.7031,8.7031,8.7031,8.7031,8.7031,8.6738,8.6334,8.6297,8.6297,8.6371,8.6738,8.7031,8.7031,8.7031,8.7031,8.7031,8.7031,8.7031,8.7031,8.7031,8.6811,8.5943,8.3654,8.2177,8.0946,7.8433,7.6666,7.734,7.602,7.5811,7.6386,7.5777,7.5777,7.6352,7.5134,7.4458,7.5405,7.4627,7.4424,7.4931,7.5405,7.5676,7.5676,7.5676,7.5676,7.5676,7.5676,7.5676,7.5676,7.5676,7.5676,7.5676,7.5676,7.5676,7.5676,7.5676,7.5676,7.5676,7.5676,7.5676,7.5676,7.5676,7.5676,7.5676,7.5676,7.5258,7.3972,7.2914,7.1821,7.0392,6.8969,6.7968,6.7879,6.6999,6.6999,8.994,8.9787,8.9863,8.9363,8.8479,8.7748,8.6978,8.6069,8.536,8.474,8.4129,8.3488,8.2793,8.2186,8.2186,8.2186,8.2186,8.2186,8.2333,8.2406,8.2553,8.2663,8.2737,8.2553,8.248,8.248,8.2406,8.292,8.3398,8.3544,8.3985,8.4535,8.4719,8.5159,8.5783,8.5967,8.6334,8.6811,8.6958,8.7031,8.7031,8.7031,8.7031,8.7031,8.7031,8.6995,8.6921,8.6958,8.6958,8.6995,8.7031,8.7031,8.7031,8.7031,8.7031,8.7031,8.7031,8.7031,8.7031,8.7031,8.7031,8.6456,8.4464,8.3043,8.2117,7.9479,7.7658,7.8452,7.6939,7.6279,7.6386,7.6082,7.6318,7.6758,7.5709,7.5676,7.6318,7.5608,7.4897,7.554,7.5676,7.5676,7.5676,7.5676,7.5676,7.5676,7.5676,7.5676,7.5676,7.5676,7.5676,7.5676,7.5676,7.5676,7.5676,7.5676,7.5676,7.5676,7.5676,7.5676,7.5676,7.5676,7.5676,7.5676,7.5676,7.5258,7.4505,7.3533,7.2776,7.1713,7.0055,6.9401,6.8969,6.7548,6.6999,9.0171,8.9017,8.9633,8.9056,8.7786,8.7478,8.6901,8.606,8.5399,8.474,8.4129,8.3488,8.2853,8.2186,8.2186,8.2186,8.2186,8.226,8.2517,8.3214,8.3875,8.4058,8.3911,8.3471,8.3177,8.3287,8.3801,8.4168,8.4315,8.4425,8.4756,8.5453,8.56,8.593,8.6591,8.6628,8.6775,8.6995,8.7031,8.7031,8.7031,8.7031,8.7031,8.7031,8.7031,8.7031,8.7031,8.7031,8.7031,8.7031,8.7031,8.7031,8.7031,8.7031,8.7031,8.7031,8.7031,8.7031,8.7031,8.7031,8.7031,8.6779,8.4754,8.3007,8.2821,8.0187,7.8796,7.8832,7.7759,7.6612,7.6115,7.642,7.6893,7.7232,7.6893,7.6623,7.7164,7.5879,7.5134,7.5473,7.5676,7.5676,7.5676,7.5676,7.5676,7.5676,7.5676,7.5676,7.5676,7.5676,7.5676,7.5676,7.5676,7.5676,7.5676,7.5676,7.5676,7.5676,7.5676,7.5676,7.5676,7.5676,7.5676,7.5676,7.5676,7.5258,7.4835,7.4306,7.3566,7.2355,7.1278,7.028,6.9317,6.7998,6.6999,8.9748,8.921,8.8902,8.8209,8.7401,8.694,8.6517,8.5992,8.5399,8.474,8.4129,8.3488,8.2853,8.2186,8.2186,8.2186,8.2296,8.2627,8.3214,8.3911,8.4425,8.4572,8.4682,8.4535,8.4389,8.4132,8.4352,8.4756,8.5049,8.5233,8.5563,8.6297,8.6334,8.6518,8.6958,8.7031,8.6995,8.6995,8.7031,8.7031,8.7031,8.7031,8.7031,8.7031,8.7031,8.7031,8.7031,8.7031,8.7031,8.7031,8.7031,8.7031,8.7031,8.7031,8.7031,8.7031,8.7031,8.7031,8.7031,8.7031,8.7031,8.6995,8.4932,8.4097,8.3266,8.1412,8.0245,7.9915,7.8784,7.7247,7.594,7.642,7.7198,7.7671,7.7333,7.7266,7.7502,7.6284,7.5236,7.5608,7.5676,7.5676,7.5676,7.5676,7.5676,7.5676,7.5676,7.5676,7.5676,7.5676,7.5676,7.5676,7.5676,7.5676,7.5676,7.5676,7.5676,7.5676,7.5676,7.5676,7.5676,7.5676,7.5676,7.5676,7.5676,7.5676,7.5258,7.4736,7.4406,7.3871,7.2776,7.1169,6.9631,6.8444,6.7427,8.9133,8.9402,8.7979,8.7325,8.7094,8.644,8.6132,8.6026,8.5514,8.491,8.4179,8.3597,8.2994,8.2343,8.2186,8.2223,8.2627,8.3471,8.4315,8.4756,8.5123,8.5233,8.5306,8.5563,8.56,8.5013,8.5123,8.549,8.5857,8.6004,8.6261,8.6885,8.6995,8.6958,8.6995,8.7031,8.7031,8.7031,8.7031,8.7031,8.7031,8.7031,8.7031,8.7031,8.7031,8.7031,8.7031,8.7031,8.7031,8.7031,8.7031,8.7031,8.7031,8.7031,8.7031,8.7031,8.7031,8.7031,8.7031,8.7031,8.6995,8.6958,8.5673,8.4835,8.4337,8.3193,8.1991,8.0787,7.9564,7.7672,7.6239,7.669,7.7435,7.7874,7.7536,7.7435,7.7536,7.6657,7.5811,7.5676,7.5676,7.5676,7.5676,7.5676,7.5676,7.5676,7.5676,7.5676,7.5676,7.5676,7.5676,7.5676,7.5676,7.5676,7.5676,7.5676,7.5676,7.5676,7.5676,7.5676,7.5676,7.5676,7.5676,7.5676,7.5676,7.5676,7.5676,7.5354,7.5161,7.5161,7.377,7.1497,6.9973,6.8766,6.7879,8.8979,8.7786,8.7517,8.6978,8.6363,8.617,8.6094,8.6094,8.5954,8.524,8.4276,8.4029,8.3266,8.2497,8.2186,8.2553,8.3471,8.4535,8.5343,8.5673,8.6114,8.6407,8.6407,8.6518,8.6591,8.6664,8.6481,8.6554,8.6701,8.6848,8.6811,8.6995,8.7031,8.7031,8.7031,8.7031,8.7031,8.7031,8.7031,8.7031,8.7031,8.7031,8.7031,8.7031,8.7031,8.7031,8.7031,8.7031,8.7031,8.7031,8.7031,8.7031,8.7031,8.7031,8.7031,8.7031,8.7031,8.7031,8.7031,8.7031,8.7031,8.6811,8.604,8.5563,8.5248,8.4464,8.3282,8.1697,7.9796,7.776,7.6888,7.743,7.8111,7.8483,7.8247,7.7807,7.7671,7.6724,7.5743,7.5676,7.5676,7.5676,7.5676,7.5676,7.5676,7.5676,7.5676,7.5676,7.5676,7.5676,7.5676,7.5676,7.5676,7.5676,7.5676,7.5676,7.5676,7.5676,7.5676,7.5676,7.5676,7.5676,7.5676,7.5676,7.5676,7.5676,7.5676,7.5676,7.558,7.5484,7.3533,7.1529,7.0727,6.9745,6.8087,8.8517,8.7363,8.694,8.6478,8.6132,8.6094,8.6094,8.6094,8.606,8.559,8.4785,8.4325,8.3704,8.2964,8.2794,8.3471,8.4646,8.5306,8.6004,8.6407,8.6811,8.7031,8.7031,8.7031,8.7031,8.6995,8.6995,8.7031,8.7031,8.6995,8.7031,8.7031,8.7031,8.7031,8.7031,8.7031,8.7031,8.7031,8.7031,8.7031,8.7031,8.7031,8.7031,8.7031,8.7031,8.7031,8.7031,8.7031,8.7031,8.7031,8.7031,8.7031,8.7031,8.7031,8.7031,8.7031,8.7031,8.7031,8.7031,8.7031,8.7031,8.6921,8.6261,8.5857,8.5715,8.5151,8.4241,8.2531,8.0328,7.8337,7.7844,7.8264,7.8653,7.8855,7.845,7.8044,7.7638,7.6521,7.598,7.5676,7.5676,7.5676,7.5676,7.5676,7.5676,7.5676,7.5676,7.5676,7.5676,7.5676,7.5676,7.5676,7.5676,7.5676,7.5676,7.5676,7.5676,7.5676,7.5676,7.5676,7.5676,7.5676,7.5676,7.5676,7.5676,7.5676,7.5676,7.5676,7.5676,7.558,7.3972,7.2494,7.1821,7.0727,6.8969,8.794,8.7094,8.6401,8.6094,8.6094,8.6094,8.6094,8.6094,8.6094,8.5739,8.5079,8.4605,8.4092,8.3674,8.3888,8.4609,8.582,8.593,8.6444,8.6811,8.6995,8.7031,8.7031,8.7031,8.7031,8.7031,8.7031,8.7031,8.7031,8.7031,8.7031,8.7031,8.7031,8.7031,8.7031,8.7031,8.7031,8.7031,8.7031,8.7031,8.7031,8.7031,8.7031,8.7031,8.7031,8.7031,8.7031,8.7031,8.7031,8.7031,8.7031,8.7031,8.7031,8.7031,8.7031,8.7031,8.7031,8.7031,8.7031,8.7031,8.7031,8.6995,8.6407,8.6114,8.5903,8.5657,8.4828,8.2989,8.0981,7.9194,7.8764,7.8893,7.9022,7.8957,7.8483,7.7841,7.7401,7.6623,7.5879,7.5676,7.5676,7.5676,7.5676,7.5676,7.5676,7.5676,7.5676,7.5676,7.5676,7.5676,7.5676,7.5676,7.5676,7.5676,7.5676,7.5676,7.5676,7.5676,7.5676,7.5676,7.5676,7.5676,7.5676,7.5676,7.5676,7.5676,7.5676,7.5676,7.5676,7.5258,7.4306,7.3464,7.2704,7.1605,7.0086,8.7055,8.6247,8.6132,8.6094,8.6094,8.6094,8.6094,8.6094,8.6094,8.57,8.5162,8.4995,8.4654,8.4477,8.5143,8.5594,8.5967,8.6481,8.6811,8.6995,8.7031,8.7031,8.7031,8.7031,8.7031,8.7031,8.7031,8.7031,8.7031,8.7031,8.7031,8.7031,8.7031,8.7031,8.7031,8.7031,8.7031,8.7031,8.7031,8.7031,8.7031,8.7031,8.7031,8.7031,8.7031,8.7031,8.7031,8.7031,8.7031,8.7031,8.7031,8.7031,8.7031,8.7031,8.7031,8.7031,8.7031,8.7031,8.7031,8.7105,8.7068,8.7068,8.6885,8.6848,8.6526,8.5701,8.4678,8.3152,8.1399,8.042,7.9775,7.9331,7.9189,7.8955,7.8613,7.7803,7.713,7.6521,7.5811,7.5676,7.5676,7.5676,7.5676,7.5676,7.5676,7.5676,7.5676,7.5676,7.5676,7.5676,7.5676,7.5676,7.5676,7.5676,7.5676,7.5676,7.5676,7.5676,7.5676,7.5676,7.5676,7.5676,7.5676,7.5676,7.5676,7.5676,7.5676,7.5676,7.5676,7.5354,7.4736,7.4106,7.3566,7.2355,7.1169,8.7171,8.6786,8.6286,8.6094,8.6094,8.6094,8.6094,8.6094,8.6094,8.5954,8.5589,8.5242,8.5101,8.53,8.6041,8.6398,8.6581,8.6848,8.6995,8.7031,8.7031,8.7031,8.7031,8.7031,8.7031,8.7031,8.7031,8.7031,8.7031,8.7031,8.7031,8.7031,8.7031,8.7031,8.7031,8.7031,8.7031,8.7031,8.7031,8.7031,8.7031,8.7031,8.7031,8.7031,8.7031,8.7031,8.7031,8.7031,8.7031,8.7031,8.7031,8.7031,8.7031,8.7031,8.7031,8.7031,8.7472,8.7472,8.7142,8.7435,8.7399,8.7252,8.7325,8.7472,8.6859,8.5628,8.4897,8.4644,8.2156,8.1066,8.105,8.0917,8.0076,7.9484,7.8899,7.7895,7.7052,7.6183,7.5676,7.5676,7.5676,7.5676,7.5676,7.5676,7.5676,7.5676,7.5676,7.5676,7.5676,7.5676,7.5676,7.5676,7.5676,7.5676,7.5676,7.5676,7.5676,7.5676,7.5676,7.5676,7.5676,7.5676,7.5676,7.5676,7.5676,7.5676,7.5676,7.5676,7.5676,7.5484,7.5258,7.4835,7.4406,7.3668,7.2461,8.7709,8.7632,8.6555,8.6094,8.6094,8.6094,8.6094,8.6094,8.6094,8.6094,8.6035,8.5896,8.6038,8.6422,8.698,8.7216,8.7224,8.7132,8.7031,8.7031,8.7031,8.7031,8.7031,8.7031,8.7031,8.7031,8.7031,8.7031,8.7031,8.7031,8.7031,8.7031,8.7031,8.7031,8.7031,8.7031,8.7031,8.7031,8.7031,8.7031,8.7031,8.7031,8.7031,8.7031,8.7031,8.7031,8.7031,8.7031,8.7031,8.7031,8.7031,8.7031,8.7031,8.7031,8.7215,8.7399,8.7876,8.8059,8.7986,8.8133,8.7986,8.7729,8.7435,8.7472,8.6962,8.5446,8.4718,8.5536,8.3474,8.2453,8.251,8.2488,8.1239,8.0234,7.9452,7.8263,7.7108,7.6367,7.5771,7.5676,7.5676,7.5676,7.5676,7.5676,7.5676,7.5676,7.5676,7.5676,7.5676,7.5676,7.5676,7.5676,7.5676,7.5676,7.5676,7.5676,7.5676,7.5676,7.5676,7.5676,7.5676,7.5676,7.5676,7.5676,7.5676,7.5676,7.5676,7.5676,7.5676,7.558,7.5484,7.558,7.5258,7.4539,7.377,8.8594,8.8479,8.6786,8.6094,8.6094,8.6094,8.6094,8.6094,8.6094,8.6132,8.6334,8.7006,8.7752,8.834,8.8108,8.8041,8.796,8.7261,8.7132,8.7031,8.7031,8.7031,8.7031,8.7031,8.7031,8.7031,8.7031,8.7031,8.7031,8.7031,8.7031,8.7031,8.7031,8.7031,8.7031,8.7031,8.7031,8.7031,8.7031,8.7031,8.7031,8.7031,8.7031,8.7031,8.7031,8.7031,8.7031,8.7031,8.7031,8.7031,8.7031,8.7031,8.7031,8.7142,8.7435,8.7876,8.839,8.8647,8.8867,8.8904,8.8757,8.8169,8.7582,8.7215,8.6925,8.6261,8.5857,8.5683,8.4155,8.3696,8.3717,8.3447,8.2313,8.0856,7.9982,7.9019,7.7732,7.6548,7.6054,7.5771,7.5676,7.5676,7.5676,7.5676,7.5676,7.5676,7.5676,7.5676,7.5676,7.5676,7.5676,7.5676,7.5676,7.5676,7.5676,7.5676,7.5676,7.5676,7.5676,7.5676,7.5676,7.5676,7.5676,7.5676,7.5676,7.5676,7.5676,7.5676,7.5676,7.5676,7.5676,7.5676,7.5676,7.5161,7.4539,8.8671,8.8517,8.6824,8.6094,8.6094,8.6094,8.6094,8.6094,8.6094,8.644,8.6978,8.7845,8.8498,8.8885,8.9251,8.8801,8.8167,8.7836,8.7394,8.7132,8.7031,8.7031,8.7031,8.7031,8.7031,8.7031,8.7031,8.7031,8.7031,8.7031,8.7031,8.7031,8.7031,8.7031,8.7031,8.7031,8.7031,8.7031,8.7031,8.7031,8.7031,8.7031,8.7031,8.7031,8.7031,8.7031,8.7031,8.7031,8.7031,8.7031,8.7031,8.7068,8.7215,8.7472,8.7912,8.8426,8.9014,8.9454,8.9344,8.9381,8.905,8.828,8.7509,8.7031,8.6958,8.6261,8.6187,8.5837,8.5119,8.4419,8.4768,8.46,8.3753,8.1886,8.0584,7.9782,7.8467,7.7099,7.6542,7.645,7.5926,7.5676,7.5676,7.5676,7.5676,7.5676,7.5676,7.5676,7.5676,7.5676,7.5676,7.5676,7.5676,7.5676,7.5676,7.5676,7.5676,7.5676,7.5676,7.5676,7.5676,7.5676,7.5676,7.5676,7.5676,7.5676,7.5676,7.5676,7.5676,7.5676,7.5676,7.5676,7.5676,7.5676,7.5258,8.8671,8.8479,8.6824,8.6094,8.6094,8.6094,8.6094,8.6094,8.6094,8.6786,8.7825,8.8671,8.9263,8.9646,8.9811,8.9487,8.8617,8.813,8.7618,8.7231,8.7031,8.7031,8.7031,8.7031,8.7031,8.7031,8.7031,8.7031,8.7031,8.7031,8.7031,8.7031,8.7031,8.7031,8.7031,8.7031,8.7031,8.7031,8.7031,8.7031,8.7031,8.7031,8.7031,8.7031,8.7031,8.7031,8.7031,8.7031,8.7031,8.7105,8.7252,8.7362,8.7655,8.8023,8.8573,8.9197,8.9748,9.0262,8.9895,8.9197,8.8867,8.8169,8.7472,8.7105,8.6811,8.6297,8.6151,8.6669,8.5555,8.4935,8.5697,8.5658,8.4556,8.2714,8.2242,8.1362,7.9246,7.7771,7.7336,7.7071,7.6416,7.5676,7.5676,7.5676,7.5676,7.5676,7.5676,7.5676,7.5676,7.5676,7.5676,7.5676,7.5676,7.5676,7.5676,7.5676,7.5676,7.5676,7.5676,7.5676,7.5676,7.5676,7.5676,7.5676,7.5676,7.5676,7.5676,7.5676,7.5676,7.5676,7.5676,7.5676,7.5676,7.5676,7.5676,8.8671,8.8479,8.6824,8.6094,8.6094,8.6094,8.6094,8.6132,8.6209,8.7132,8.8632,8.9479,9.0248,9.0684,9.0449,8.9763,8.9016,8.8388,8.7773,8.72,8.7031,8.7031,8.7031,8.7031,8.7031,8.7031,8.7031,8.7031,8.7031,8.7031,8.7031,8.7031,8.7031,8.7031,8.7031,8.7031,8.7031,8.7031,8.7031,8.7031,8.7031,8.7031,8.7031,8.7031,8.7031,8.7031,8.7031,8.7031,8.7068,8.7288,8.7729,8.7986,8.828,8.8977,8.9638,9.0298,9.0445,9.0519,9.0372,8.9014,8.828,8.7986,8.7288,8.7068,8.6848,8.6444,8.6187,8.6815,8.6163,8.609,8.6526,8.6639,8.5082,8.3992,8.3483,8.2575,8.0405,7.8411,7.7992,7.7992,7.6747,7.5771,7.5771,7.5771,7.5676,7.5676,7.5676,7.5676,7.5676,7.5676,7.5676,7.5676,7.5676,7.5676,7.5676,7.5676,7.5676,7.5676,7.5676,7.5676,7.5676,7.5676,7.5676,7.5676,7.5676,7.5676,7.5676,7.5676,7.5676,7.5676,7.5676,7.5676,7.5676,7.5676,7.5676,8.8671,8.8517,8.6824,8.6094,8.6094,8.6094,8.6094,8.6209,8.6786,8.794,8.9286,8.9825,9.0402,9.087,9.0876,9.0198,8.9173,8.8963,8.8271,8.7064,8.7031,8.7031,8.7031,8.7031,8.7031,8.7031,8.7031,8.7031,8.7031,8.7031,8.7031,8.7031,8.7031,8.7031,8.7031,8.7031,8.7031,8.7031,8.7031,8.7031,8.7031,8.7031,8.7031,8.7031,8.7031,8.7105,8.7142,8.7142,8.7399,8.7766,8.828,8.8573,8.9014,8.9784,9.0298,9.0592,9.0555,9.0041,8.9197,8.7986,8.7472,8.7362,8.7325,8.7105,8.6921,8.6811,8.6848,8.6921,8.6738,8.6738,8.6889,8.6925,8.5876,8.467,8.3975,8.3176,8.1598,7.9672,7.8659,7.8903,7.8245,7.7071,7.669,7.6173,7.602,7.5676,7.5676,7.5676,7.5676,7.5676,7.5676,7.5676,7.5676,7.5676,7.5676,7.5676,7.5676,7.5676,7.5676,7.5676,7.5676,7.5574,7.5506,7.5405,7.554,7.5676,7.5676,7.5676,7.5676,7.5676,7.5676,7.5676,7.5676,7.5676,7.5676,8.8671,8.8479,8.6824,8.6094,8.6094,8.6094,8.6247,8.6671,8.7478,8.8632,8.9748,9.0171,9.0633,9.1095,9.11,9.0444,8.9225,8.9069,8.833,8.7163,8.7031,8.7031,8.7031,8.7031,8.7031,8.7031,8.7031,8.7031,8.7031,8.7031,8.7031,8.7031,8.7031,8.7031,8.7031,8.7031,8.7031,8.7031,8.7031,8.7031,8.7031,8.7031,8.7031,8.7105,8.7252,8.7472,8.7509,8.7729,8.8059,8.85,8.8904,8.9234,8.9895,9.0482,9.0812,9.0702,8.9895,8.9307,8.8353,8.7545,8.7288,8.7545,8.7399,8.7252,8.7215,8.7252,8.7142,8.7142,8.7031,8.7031,8.6995,8.7031,8.6297,8.5086,8.4315,8.3514,8.2226,8.0328,7.9536,7.9768,7.9302,7.8328,7.7511,7.6837,7.6358,7.602,7.5676,7.5676,7.5676,7.5676,7.5676,7.5676,7.5676,7.5676,7.5676,7.5676,7.5676,7.5676,7.5676,7.5676,7.527,7.51,7.51,7.51,7.5067,7.5168,7.5574,7.5676,7.5642,7.5642,7.5676,7.5676,7.5676,7.5676,7.5676,8.8671,8.844,8.6824,8.6094,8.6094,8.617,8.6671,8.7478,8.8363,8.921,9.0017,9.0825,9.1133,9.1171,9.121,9.0406,8.9327,8.9122,8.8212,8.7394,8.7031,8.7031,8.7031,8.7031,8.7031,8.7031,8.7031,8.7031,8.7031,8.7031,8.7031,8.7031,8.7031,8.7105,8.7178,8.7252,8.7252,8.7288,8.7509,8.7545,8.7619,8.7435,8.7509,8.7655,8.7949,8.8169,8.839,8.872,8.9124,8.9601,9.0078,9.0372,9.0812,9.1326,9.1106,9.0335,8.8977,8.85,8.7986,8.7288,8.7509,8.7912,8.8206,8.7766,8.7545,8.7655,8.7545,8.7252,8.7031,8.7031,8.7031,8.6628,8.6187,8.5306,8.4535,8.3514,8.2318,8.1299,8.0659,8.033,7.9691,7.8983,7.821,7.7563,7.7105,7.6508,7.6173,7.5865,7.5865,7.5676,7.5676,7.5676,7.5676,7.5676,7.5676,7.5676,7.5676,7.5676,7.5642,7.5574,7.51,7.4661,7.4593,7.4525,7.4458,7.4661,7.5134,7.5405,7.5574,7.5608,7.5676,7.5676,7.5676,7.5676,7.5676,8.8671,8.8479,8.6824,8.6094,8.6209,8.6748,8.7517,8.8363,8.921,9.0056,9.0864,9.1056,9.121,9.121,9.121,9.0284,8.9573,8.891,8.819,8.7554,8.7132,8.7064,8.7031,8.7031,8.7031,8.7031,8.7031,8.7031,8.7031,8.7031,8.7031,8.7031,8.7105,8.7325,8.7655,8.7876,8.7912,8.8023,8.8353,8.8426,8.8536,8.85,8.8536,8.8647,8.883,8.905,8.9197,8.9381,8.9748,9.0298,9.0482,9.0629,9.0665,9.0776,9.0445,8.905,8.8353,8.7986,8.7545,8.7692,8.8023,8.839,8.872,8.8573,8.8243,8.7949,8.7839,8.7325,8.7031,8.7031,8.6811,8.6444,8.5857,8.5086,8.4315,8.3331,8.2245,8.1647,8.1089,8.116,8.0587,7.9956,7.9187,7.874,7.8245,7.7336,7.6747,7.6508,7.602,7.5926,7.5676,7.5676,7.5676,7.5676,7.5676,7.5676,7.5676,7.5676,7.5642,7.5405,7.4796,7.439,7.4119,7.3916,7.3781,7.4153,7.4762,7.4931,7.4999,7.5506,7.5676,7.5676,7.5676,7.5676,7.5676,8.8517,8.8017,8.6709,8.6094,8.6324,8.7401,8.8248,8.8786,8.9556,9.0402,9.1133,9.121,9.121,9.121,9.1136,9.0606,8.9621,8.9525,8.8856,8.7836,8.746,8.7231,8.7132,8.6995,8.7031,8.7031,8.7031,8.7031,8.7068,8.7031,8.7031,8.7031,8.7215,8.7729,8.8206,8.8793,8.9197,8.9234,8.9307,8.9417,8.9454,8.9491,8.9417,8.9528,8.9674,8.9858,8.9968,9.0041,9.0592,9.0886,9.0886,9.0629,9.0408,9.0078,8.9491,8.8353,8.8243,8.8023,8.7839,8.8353,8.872,8.905,8.9271,8.905,8.872,8.839,8.7802,8.7215,8.7105,8.6958,8.6664,8.6297,8.549,8.4682,8.3911,8.3141,8.2428,8.172,8.1715,8.1952,8.1647,8.1089,8.0514,7.9956,7.9302,7.8411,7.7992,7.7822,7.7105,7.6266,7.5926,7.5676,7.5676,7.5676,7.5676,7.5676,7.5676,7.5676,7.5676,7.5337,7.4593,7.3984,7.3612,7.3308,7.3071,7.3544,7.4052,7.4187,7.4322,7.4864,7.5337,7.5337,7.5439,7.5676,7.5676,8.8209,8.7363,8.6555,8.6363,8.6555,8.8094,8.8825,8.8902,8.9748,9.0441,9.1133,9.121,9.121,9.121,9.1136,9.0762,9.0116,8.9901,8.9339,8.819,8.813,8.7923,8.7554,8.72,8.7298,8.72,8.7068,8.7105,8.7178,8.7435,8.7619,8.7252,8.7912,8.85,8.8904,8.9711,9.0225,9.0445,9.0152,9.0005,8.9858,8.9711,8.9601,8.9858,9.0298,9.0702,9.0886,9.1253,9.1767,9.1436,9.1106,9.0629,8.9821,8.9014,8.8316,8.8243,8.8206,8.8316,8.8463,8.905,8.9601,8.9821,8.9821,8.9307,8.883,8.8463,8.7839,8.7215,8.7031,8.7031,8.6811,8.5967,8.5086,8.4389,8.3654,8.2957,8.2275,8.1885,8.1952,8.2121,8.2018,8.1542,8.123,8.0695,8.0292,7.9458,7.9063,7.9063,7.8328,7.7194,7.6599,7.608,7.5771,7.5771,7.5676,7.5676,7.5676,7.5676,7.5608,7.4999,7.4086,7.351,7.3037,7.2665,7.2326,7.2766,7.3172,7.3341,7.3646,7.4221,7.4627,7.4864,7.51,7.5303,7.5642,8.8209,8.7401,8.7171,8.744,8.8171,8.9171,8.9594,8.971,9.0517,9.0979,9.1171,9.121,9.121,9.121,9.121,9.08,9.0326,9.0203,8.9621,8.9122,8.8856,8.8691,8.8446,8.7985,8.7898,8.7618,8.7468,8.7468,8.8014,8.8423,8.8793,8.8793,8.9124,8.9307,8.9784,9.0629,9.0886,9.1289,9.1143,9.0959,9.0959,9.1143,9.1253,9.1216,9.1473,9.1363,9.1473,9.1546,9.1363,9.0959,9.0776,8.9968,8.883,8.7876,8.7729,8.8059,8.8353,8.8683,8.916,8.9711,9.0078,8.9784,8.9491,8.9014,8.8647,8.8353,8.7912,8.7325,8.7031,8.7031,8.6701,8.571,8.4829,8.4132,8.3398,8.281,8.2223,8.2186,8.2186,8.2186,8.2186,8.2018,8.1782,8.1542,8.116,8.0768,8.0366,8.0032,7.938,7.8494,7.7907,7.7336,7.6114,7.5865,7.5771,7.5676,7.5676,7.5473,7.5303,7.4525,7.3612,7.2834,7.2191,7.1853,7.1684,7.2124,7.2428,7.2563,7.2969,7.3544,7.3849,7.4018,7.4255,7.4492,7.5067,8.8205,8.7478,8.7825,8.8248,8.8786,8.9556,8.9902,9.0056,9.0825,9.121,9.121,9.121,9.121,9.121,9.121,9.1026,9.0606,9.0606,9.016,8.9716,8.9525,8.9327,8.9069,8.8746,8.8579,8.8367,8.8281,8.845,8.9226,8.9117,8.9344,8.9598,8.9782,9.0223,9.0702,9.0922,9.1289,9.173,9.1803,9.1803,9.1803,9.1803,9.1803,9.1803,9.1767,9.1657,9.1289,9.1216,9.0776,9.0152,8.9674,8.9234,8.8426,8.7949,8.8059,8.8647,8.9124,8.9454,8.9931,9.0225,9.0372,8.9931,8.9014,8.8536,8.8316,8.7986,8.7545,8.7031,8.7031,8.7031,8.6591,8.5747,8.5013,8.4315,8.3287,8.2406,8.2186,8.2186,8.2186,8.2186,8.2186,8.2186,8.1952,8.1952,8.1715,8.1647,8.1336,8.123,8.0514,7.9804,7.9302,7.8494,7.7248,7.6114,7.5676,7.5676,7.5676,7.5405,7.4999,7.4086,7.3138,7.2124,7.1345,7.1345,7.1379,7.1515,7.1785,7.1988,7.2326,7.2834,7.3037,7.3138,7.3409,7.3713,7.4187,8.8435,8.7863,8.8517,8.894,8.9094,8.9787,9.0133,9.021,9.0864,9.121,9.121,9.121,9.121,9.121,9.121,9.121,9.1136,9.0989,9.0646,9.0367,9.0284,9.0073,8.9716,8.9327,8.9287,8.9512,8.9681,9.0139,9.0788,9.0759,9.0624,9.0209,9.0438,9.0953,9.1066,9.1326,9.1803,9.1767,9.1803,9.1803,9.1803,9.1803,9.1803,9.1803,9.1657,9.1289,9.0812,9.0372,9.0041,8.9417,8.8793,8.85,8.8463,8.8316,8.8904,8.9417,8.9968,9.0372,9.0702,9.0629,9.0519,9.0041,8.8867,8.8169,8.7949,8.7619,8.7142,8.7031,8.7031,8.6848,8.6444,8.5747,8.5013,8.4315,8.3177,8.2186,8.2186,8.2186,8.2186,8.2186,8.2186,8.2186,8.2186,8.2186,8.2186,8.2186,8.2186,8.2186,8.1952,8.116,8.044,7.9536,7.8411,7.7336,7.6266,7.5642,7.5608,7.51,7.4593,7.3646,7.2699,7.1819,7.1312,7.1312,7.1345,7.1413,7.1379,7.1515,7.1887,7.2225,7.2259,7.236,7.2665,7.2935,7.3206,8.959,8.944,8.9633,9.0056,9.0671,9.0864,9.0941,9.0979,9.1095,9.121,9.121,9.121,9.121,9.121,9.121,9.121,9.121,9.121,9.121,9.0989,9.0839,9.0839,9.0643,9.0219,9.0115,9.0612,9.1423,9.2089,9.2354,9.2767,9.3064,9.293,9.2402,9.2468,9.2373,9.2331,9.1912,9.1876,9.1803,9.1803,9.1767,9.1767,9.1803,9.1583,9.1143,9.0849,9.0482,8.9968,8.9234,8.8647,8.839,8.828,8.861,8.8977,8.9601,9.0152,9.0702,9.0849,9.0996,9.0665,9.0372,8.9564,8.85,8.7802,8.7582,8.7288,8.7031,8.7031,8.6995,8.6958,8.6481,8.5416,8.4572,8.3985,8.3104,8.248,8.2186,8.2186,8.2186,8.2186,8.2186,8.2186,8.2186,8.2186,8.2186,8.2186,8.2186,8.2186,8.2186,8.1885,8.1474,8.0587,7.9536,7.8411,7.716,7.579,7.5405,7.4864,7.4153,7.3138,7.2293,7.1684,7.1312,7.1312,7.1312,7.1345,7.1312,7.1312,7.1413,7.1684,7.1548,7.1616,7.1921,7.2191,7.2496]},{"header":{"parameterUnit":"m.s-1","parameterCategory":1,"la1":31.0,"la2":29.5877,"lo1":-88.7671,"lo2":-86.6584,"dx":0.0162,"dy":0.0185,"nx":115,"ny":88,"refTime":"2022-11-09T06:00:00:Z","depth":0,"parameterNumber":3,"parameterNumberName":"V-component_of_WINDS"},"data":[0.0,0.0,0.0,0.0,0.0,0.0,0.0,0.0,0.0,0.0,0.0,0.0,0.0,0.0,0.0,0.0,0.0,0.0,0.0,0.0,0.0,0.0,0.0,0.0,0.0,0.0,0.0,0.0,0.0,0.0,0.0,0.0,0.0,0.0,0.0,0.0,0.0,0.0,0.0,0.0,0.0,0.0,0.0,0.0,0.0,0.0,0.0,0.0,0.0,0.0,0.0,0.0,0.0,0.0,0.0,0.0,0.0,0.0,0.0,0.0,0.0,0.0,0.0,0.0,0.0,0.0,0.0,0.0,0.0,0.0,0.0,0.0,0.0,0.0,0.0,0.0,0.0,0.0,0.0,0.0,0.0,0.0,0.0,0.0,0.0,0.0,0.0,0.0,0.0,0.0,0.0,0.0,0.0,0.0,0.0,0.0,0.0,0.0,0.0,0.0,0.0,0.0,0.0,0.0,0.0,0.0,0.0,0.0,0.0,0.0,0.0,0.0,0.0,0.0,0.0,0.0,0.0,0.0,0.0,0.0,0.0,0.0,0.0,0.0,0.0,0.0,0.0,0.0,0.0,0.0,0.0,0.0,0.0,0.0,0.0,0.0,0.0,0.0,0.0,0.0,0.0,0.0,0.0,0.0,0.0,0.0,0.0,0.0,0.0,0.0,0.0,0.0,0.0,0.0,0.0,0.0,0.0,0.0,0.0,0.0,0.0,0.0,0.0,0.0,0.0,0.0,0.0,0.0,0.0,0.0,0.0,0.0,0.0,0.0,0.0,0.0,0.0,0.0,0.0,0.0,0.0,0.0,0.0,0.0,0.0,0.0,0.0,0.0,0.0,0.0,0.0,0.0,0.0,0.0,0.0,0.0,0.0,0.0,0.0,0.0,0.0,0.0,0.0,0.0,0.0,0.0,0.0,0.0,0.0,0.0,0.0,0.0,0.0,0.0,0.0,0.0,0.0,0.0,0.0,0.0,0.0,0.0,0.0,0.0,0.0,0.0,0.0,0.0,0.0,0.0,0.0,0.0,0.0,0.0,0.0,0.0,0.0,0.0,0.0,0.0,0.0,0.0,0.0,0.0,0.0,0.0,0.0,0.0,0.0,0.0,0.0,0.0,0.0,0.0,0.0,0.0,0.0,0.0,0.0,0.0,0.0,0.0,0.0,0.0,0.0,0.0,0.0,0.0,0.0,0.0,0.0,0.0,0.0,0.0,0.0,0.0,0.0,0.0,0.0,0.0,0.0,0.0,0.0,0.0,0.0,0.0,0.0,0.0,0.0,0.0,0.0,0.0,0.0,0.0,0.0,0.0,0.0,0.0,0.0,0.0,0.0,0.0,0.0,0.0,0.0,0.0,0.0,0.0,0.0,0.0,0.0,0.0,0.0,0.0,0.0,0.0,0.0,0.0,0.0,0.0,0.0,0.0,0.0,0.0,0.0,0.0,0.0,0.0,0.0,0.0,0.0,0.0,0.0,0.0,0.0,0.0,0.0,0.0,0.0,0.0,0.0,0.0,0.0,0.0,0.0,0.0,0.0,0.0,0.0,0.0,0.0,0.0,0.0,0.0,0.0,0.0,0.0,0.0,0.0,0.0,0.0,0.0,0.0,0.0,0.0,0.0,0.0,0.0,0.0,0.0,0.0,0.0,0.0,0.0,0.0,0.0,0.0,0.0,0.0,0.0,0.0,0.0,0.0,0.0,0.0,0.0,0.0,0.0,0.0,0.0,0.0,0.0,0.0,0.0,0.0,0.0,0.0,0.0,0.0,0.0,0.0,0.0,0.0,0.0,0.0,0.0,0.0,0.0,0.0,0.0,0.0,0.0,0.0,0.0,0.0,0.0,0.0,0.0,0.0,0.0,0.0,0.0,0.0,0.0,0.0,0.0,0.0,0.0,0.0,0.0,0.0,0.0,0.0,0.0,0.0,0.0,0.0,0.0,0.0,0.0,0.0,0.0,0.0,0.0,0.0,0.0,0.0,0.0,0.0,0.0,0.0,0.0,0.0,0.0,0.0,0.0,0.0,0.0,0.0,0.0,0.0,0.0,0.0,0.0,0.0,0.0,0.0,0.0,0.0,0.0,0.0,0.0,0.0,0.0,0.0,0.0,0.0,0.0,0.0,0.0,0.0,0.0,0.0,0.0,0.0,0.0,0.0,0.0,0.0,0.0,0.0,0.0,0.0,0.0,0.0,0.0,0.0,0.0,0.0,0.0,0.0,0.0,0.0,0.0,0.0,0.0,0.0,0.0,0.0,0.0,0.0,0.0,0.0,0.0,0.0,0.0,0.0,0.0,0.0,0.0,0.0,0.0,0.0,0.0,0.0,0.0,0.0,0.0,0.0,0.0,0.0,0.0,0.0,0.0,0.0,0.0,0.0,0.0,0.0,0.0,0.0,0.0,0.0,0.0,0.0,0.0,0.0,0.0,0.0,0.0,0.0,0.0,0.0,0.0,0.0,0.0,0.0,0.0,0.0,0.0,0.0,0.0,0.0,0.0,0.0,0.0,0.0,0.0,0.0,0.0,0.0,0.0,0.0,0.0,0.0,0.0,0.0,0.0,0.0,0.0,0.0,0.0,0.0,0.0,0.0,0.0,0.0,0.0,0.0,0.0,0.0,0.0,0.0,0.0,0.0,0.0,0.0,0.0,0.0,0.0,0.0,0.0,0.0,0.0,0.0,0.0,0.0,0.0,0.0,0.0,0.0,0.0,0.0,0.0,0.0,0.0,0.0,0.0,0.0,0.0,0.0,0.0,0.0,0.0,0.0,0.0,0.0,0.0,0.0,0.0,0.0,0.0,0.0,0.0,0.0,0.0,0.0,0.0,0.0,0.0,0.0,0.0,0.0,0.0,0.0,0.0,0.0,0.0,0.0,0.0,0.0,0.0,0.0,0.0,0.0,0.0,0.0,0.0,0.0,0.0,0.0,0.0,0.0,0.0,0.0,0.0,0.0,0.0,0.0,0.0,0.0,0.0,0.0,0.0,0.0,0.0,0.0,0.0,0.0,0.0,0.0,0.0,0.0,0.0,0.0,0.0,0.0,0.0,0.0,0.0,0.0,0.0,0.0,0.0,0.0,0.0,0.0,0.0,0.0,0.0,0.0,0.0,0.0,0.0,0.0,0.0,0.0,0.0,0.0,0.0,0.0,0.0,0.0,0.0,0.0,0.0,0.0,0.0,0.0,0.0,0.0,0.0,0.0,0.0,0.0,0.0,0.0,0.0,0.0,0.0,0.0,0.0,0.0,0.0,0.0,0.0,0.0,0.0,0.0,0.0,0.0,0.0,0.0,0.0,0.0,0.0,0.0,0.0,0.0,0.0,0.0,0.0,0.0,0.0,0.0,0.0,0.0,0.0,0.0,0.0,0.0,0.0,0.0,0.0,0.0,0.0,0.0,0.0,0.0,0.0,0.0,0.0,0.0,0.0,0.0,0.0,0.0,0.0,0.0,0.0,0.0,0.0,0.0,0.0,0.0,0.0,0.0,0.0,0.0,0.0,0.0,0.0,0.0,0.0,0.0,0.0,0.0,0.0,0.0,0.0,0.0,0.0,0.0,0.0,0.0,0.0,0.0,0.0,0.0,0.0,0.0,0.0,0.0,0.0,0.0,0.0,0.0,0.0,0.0,0.0,0.0,0.0,0.0,0.0,0.0,0.0,0.0,0.0,0.0,0.0,0.0,0.0,0.0,0.0,0.0,0.0,0.0,0.0,0.0,0.0,0.0,0.0,0.0,0.0,0.0,0.0,0.0,0.0,0.0,0.0,0.0,0.0,0.0,0.0,0.0,0.0,0.0,0.0,0.0,0.0,0.0,0.0,0.0,0.0,0.0,0.0,0.0,0.0,0.0,0.0,0.0,0.0,0.0,0.0,0.0,0.0,0.0,0.0,0.0,0.0,0.0,0.0,0.0,0.0,0.0,0.0,0.0,0.0,0.0,0.0,0.0,0.0,0.0,0.0,0.0,0.0,0.0,0.0,0.0,0.0,0.0,0.0,0.0,0.0,0.0,0.0,0.0,0.0,0.0,0.0,0.0,0.0,0.0,0.0,0.0,0.0,0.0,0.0,0.0,0.0,0.0,0.0,0.0,0.0,0.0,0.0,0.0,0.0,0.0,0.0,0.0,0.0,0.0,0.0,0.0,0.0,0.0,0.0,0.0,0.0,0.0,0.0,0.0,0.0,0.0,0.0,0.0,0.0,0.0,0.0,0.0,0.0,0.0,0.0,0.0,0.0,0.0,0.0,0.0,0.0,0.0,0.0,-1.6902,0.0,0.0,0.0,-1.7968,0.0,0.0,0.0,0.0,0.0,0.0,0.0,0.0,0.0,0.0,0.0,0.0,0.0,0.0,0.0,0.0,0.0,0.0,0.0,0.0,0.0,0.0,0.0,0.0,0.0,0.0,0.0,0.0,0.0,0.0,0.0,0.0,0.0,0.0,0.0,0.0,0.0,0.0,0.0,0.0,0.0,0.0,0.0,0.0,0.0,0.0,0.0,0.0,0.0,0.0,0.0,0.0,0.0,0.0,0.0,0.0,0.0,0.0,0.0,0.0,0.0,0.0,0.0,0.0,0.0,0.0,0.0,0.0,0.0,0.0,0.0,0.0,0.0,0.0,0.0,0.0,0.0,0.0,0.0,0.0,0.0,0.0,0.0,0.0,0.0,0.0,0.0,0.0,0.0,0.0,0.0,0.0,0.0,0.0,0.0,0.0,0.0,0.0,0.0,0.0,0.0,0.0,0.0,0.0,0.0,0.0,0.0,0.0,0.0,0.0,-1.4962,-1.558,-1.485,-1.53,-1.7276,0.0,0.0,0.0,0.0,0.0,0.0,0.0,0.0,0.0,0.0,0.0,0.0,0.0,0.0,0.0,0.0,0.0,0.0,0.0,0.0,0.0,0.0,0.0,0.0,0.0,0.0,0.0,0.0,0.0,0.0,0.0,0.0,0.0,0.0,0.0,0.0,0.0,0.0,0.0,0.0,0.0,0.0,0.0,0.0,0.0,0.0,0.0,0.0,0.0,0.0,0.0,0.0,0.0,0.0,0.0,0.0,0.0,0.0,0.0,0.0,0.0,0.0,0.0,0.0,0.0,0.0,0.0,0.0,0.0,0.0,0.0,0.0,0.0,0.0,0.0,0.0,0.0,0.0,0.0,0.0,0.0,0.0,0.0,0.0,0.0,0.0,0.0,0.0,0.0,0.0,0.0,0.0,0.0,0.0,0.0,0.0,0.0,0.0,0.0,0.0,0.0,0.0,0.0,0.0,0.0,0.0,0.0,0.0,0.0,0.0,0.0,0.0,-1.3803,-1.4317,-1.6632,0.0,0.0,0.0,0.0,0.0,0.0,0.0,0.0,0.0,0.0,0.0,0.0,0.0,0.0,0.0,0.0,0.0,0.0,0.0,0.0,0.0,0.0,0.0,0.0,0.0,0.0,0.0,0.0,0.0,0.0,0.0,0.0,0.0,0.0,0.0,0.0,0.0,0.0,0.0,0.0,0.0,0.0,0.0,0.0,0.0,0.0,0.0,0.0,0.0,0.0,0.0,0.0,0.0,0.0,0.0,0.0,0.0,0.0,0.0,0.0,0.0,0.0,0.0,0.0,0.0,0.0,0.0,0.0,0.0,0.0,0.0,0.0,0.0,0.0,0.0,0.0,0.0,0.0,0.0,0.0,0.0,0.0,0.0,0.0,0.0,0.0,0.0,0.0,0.0,0.0,0.0,0.0,0.0,0.0,0.0,0.0,0.0,0.0,0.0,0.0,0.0,0.0,0.0,0.0,0.0,0.0,0.0,0.0,0.0,0.0,-1.4666,-1.4968,-1.4873,0.0,-1.6632,0.0,0.0,0.0,0.0,0.0,0.0,0.0,0.0,0.0,0.0,0.0,0.0,0.0,0.0,0.0,0.0,0.0,0.0,0.0,0.0,0.0,0.0,0.0,0.0,0.0,0.0,0.0,0.0,0.0,0.0,0.0,0.0,0.0,0.0,0.0,0.0,0.0,0.0,0.0,0.0,0.0,0.0,0.0,0.0,0.0,0.0,0.0,0.0,0.0,0.0,0.0,0.0,0.0,0.0,0.0,0.0,0.0,0.0,0.0,0.0,0.0,0.0,0.0,0.0,0.0,0.0,0.0,0.0,0.0,0.0,0.0,0.0,0.0,0.0,0.0,0.0,0.0,0.0,0.0,0.0,0.0,0.0,0.0,0.0,0.0,0.0,0.0,0.0,0.0,0.0,0.0,0.0,0.0,0.0,0.0,0.0,0.0,0.0,0.0,0.0,0.0,0.0,0.0,0.0,0.0,0.0,0.0,0.0,0.0,0.0,-1.2247,-1.229,-1.4313,-1.5309,0.0,0.0,0.0,0.0,0.0,0.0,0.0,0.0,0.0,0.0,0.0,0.0,0.0,0.0,0.0,0.0,0.0,0.0,0.0,0.0,0.0,0.0,0.0,0.0,0.0,0.0,0.0,0.0,0.0,0.0,0.0,0.0,0.0,0.0,0.0,0.0,0.0,0.0,0.0,0.0,0.0,0.0,0.0,0.0,0.0,0.0,0.0,0.0,0.0,0.0,0.0,0.0,0.0,0.0,0.0,0.0,0.0,0.0,0.0,0.0,0.0,0.0,0.0,0.0,0.0,0.0,0.0,0.0,0.0,0.0,0.0,0.0,0.0,0.0,0.0,0.0,0.0,0.0,0.0,0.0,0.0,0.0,0.0,0.0,0.0,0.0,0.0,0.0,0.0,0.0,0.0,0.0,0.0,0.0,0.0,0.0,0.0,0.0,0.0,0.0,0.0,0.0,0.0,0.0,0.0,0.0,0.0,0.0,0.0,0.0,-1.1077,-1.0514,-1.074,-1.3406,-1.4789,-1.4761,0.0,0.0,0.0,0.0,0.0,0.0,0.0,0.0,0.0,0.0,0.0,0.0,0.0,0.0,0.0,0.0,0.0,0.0,0.0,0.0,0.0,0.0,0.0,0.0,0.0,0.0,0.0,0.0,0.0,0.0,0.0,0.0,0.0,0.0,0.0,0.0,0.0,0.0,0.0,0.0,0.0,0.0,0.0,0.0,0.0,0.0,0.0,0.0,0.0,0.0,0.0,0.0,0.0,0.0,0.0,0.0,0.0,0.0,0.0,0.0,0.0,0.0,0.0,0.0,0.0,0.0,0.0,0.0,0.0,0.0,0.0,0.0,0.0,0.0,0.0,0.0,0.0,0.0,0.0,0.0,0.0,0.0,0.0,0.0,0.0,0.0,0.0,0.0,0.0,0.0,0.0,0.0,0.0,0.0,0.0,0.0,0.0,0.0,0.0,0.0,0.0,0.0,0.0,0.0,0.0,0.0,0.0,0.0,-1.0962,-1.0839,-1.0921,-1.0921,-1.2492,-1.3985,0.0,0.0,0.0,0.0,0.0,0.0,0.0,0.0,0.0,0.0,0.0,0.0,0.0,0.0,0.0,0.0,0.0,0.0,0.0,0.0,0.0,0.0,0.0,0.0,0.0,0.0,0.0,0.0,0.0,0.0,0.0,0.0,0.0,0.0,0.0,0.0,0.0,0.0,0.0,0.0,0.0,0.0,0.0,0.0,0.0,0.0,0.0,0.0,0.0,0.0,0.0,0.0,0.0,0.0,0.0,0.0,0.0,0.0,0.0,0.0,0.0,0.0,0.0,0.0,0.0,0.0,0.0,0.0,0.0,0.0,0.0,0.0,0.0,0.0,0.0,0.0,0.0,0.0,0.0,0.0,0.0,0.0,0.0,0.0,0.0,0.0,0.0,0.0,0.0,0.0,0.0,0.0,0.0,0.0,0.0,0.0,0.0,0.0,0.0,0.0,0.0,0.0,0.0,0.0,0.0,0.0,0.0,0.0,0.0,-1.2863,-1.1733,-1.1084,-1.1077,-1.2673,-1.4077,0.0,0.0,0.0,0.0,0.0,0.0,0.0,0.0,0.0,0.0,0.0,0.0,0.0,0.0,0.0,0.0,0.0,0.0,0.0,0.0,0.0,0.0,0.0,0.0,0.0,0.0,0.0,0.0,0.0,0.0,0.0,0.0,0.0,0.0,0.0,0.0,0.0,0.0,0.0,0.0,0.0,0.0,0.0,0.0,0.0,0.0,0.0,0.0,0.0,0.0,0.0,0.0,0.0,0.0,0.0,0.0,0.0,0.0,0.0,0.0,0.0,0.0,0.0,0.0,0.0,0.0,0.0,0.0,0.0,0.0,0.0,0.0,0.0,0.0,0.0,0.0,0.0,0.0,0.0,0.0,0.0,0.0,0.0,0.0,0.0,0.0,0.0,0.0,0.0,0.0,0.0,0.0,0.0,0.0,0.0,0.0,0.0,0.0,0.0,0.0,0.0,0.0,0.0,0.0,0.0,0.0,0.0,0.0,0.0,-1.3221,-1.1949,-1.1233,-1.1372,-1.2663,-1.421,0.0,0.0,0.0,0.0,0.0,0.0,0.0,0.0,0.0,0.0,0.0,0.0,0.0,0.0,0.0,0.0,0.0,0.0,0.0,0.0,0.0,0.0,0.0,0.0,0.0,0.0,0.0,0.0,0.0,0.0,0.0,0.0,0.0,0.0,0.0,0.0,0.0,0.0,0.0,0.0,0.0,0.0,0.0,0.0,0.0,0.0,0.0,0.0,0.0,0.0,0.0,0.0,0.0,0.0,0.0,0.0,0.0,0.0,0.0,0.0,0.0,0.0,0.0,0.0,0.0,0.0,0.0,0.0,0.0,0.0,0.0,0.0,0.0,0.0,0.0,0.0,0.0,0.0,0.0,0.0,0.0,0.0,0.0,0.0,0.0,0.0,0.0,0.0,0.0,0.0,0.0,0.0,0.0,0.0,0.0,0.0,0.0,0.0,0.0,0.0,0.0,0.0,0.0,0.0,0.0,0.0,0.0,0.0,-1.3271,-1.1743,-1.147,-1.1389,-1.1382,-1.2733,-1.4281,0.0,0.0,0.0,0.0,0.0,0.0,0.0,0.0,0.0,0.0,0.0,0.0,0.0,0.0,0.0,0.0,0.0,0.0,0.0,0.0,0.0,0.0,0.0,0.0,0.0,0.0,0.0,0.0,0.0,0.0,0.0,0.0,0.0,0.0,0.0,0.0,0.0,0.0,0.0,0.0,0.0,0.0,0.0,0.0,0.0,0.0,0.0,0.0,0.0,0.0,0.0,0.0,0.0,0.0,0.0,0.0,0.0,0.0,0.0,0.0,0.0,0.0,0.0,0.0,0.0,0.0,0.0,0.0,0.0,0.0,0.0,0.0,0.0,0.0,0.0,0.0,0.0,0.0,0.0,0.0,0.0,0.0,0.0,0.0,0.0,0.0,0.0,0.0,0.0,0.0,0.0,0.0,0.0,0.0,0.0,0.0,0.0,0.0,0.0,0.0,0.0,0.0,0.0,0.0,0.0,0.0,0.0,0.0,0.0,-1.1619,-1.1572,-1.1545,-1.1538,-1.3145,-1.4737,0.0,0.0,0.0,0.0,0.0,0.0,0.0,0.0,0.0,0.0,0.0,0.0,0.0,0.0,0.0,0.0,0.0,0.0,0.0,0.0,0.0,0.0,0.0,0.0,0.0,0.0,0.0,0.0,0.0,0.0,0.0,0.0,0.0,0.0,0.0,0.0,0.0,0.0,0.0,0.0,0.0,0.0,0.0,0.0,0.0,0.0,0.0,0.0,0.0,0.0,0.0,0.0,0.0,0.0,0.0,0.0,0.0,0.0,0.0,0.0,0.0,0.0,0.0,0.0,0.0,0.0,0.0,0.0,0.0,0.0,0.0,0.0,0.0,0.0,0.0,0.0,0.0,0.0,0.0,0.0,0.0,0.0,0.0,0.0,0.0,0.0,0.0,0.0,0.0,0.0,0.0,0.0,0.0,0.0,0.0,0.0,0.0,0.0,0.0,0.0,0.0,0.0,0.0,0.0,0.0,0.0,0.0,0.0,0.0,-1.1789,-1.1782,-1.1755,-1.1701,-1.3373,-1.4996,-1.6566,0.0,0.0,0.0,0.0,0.0,0.0,0.0,0.0,0.0,0.0,0.0,0.0,0.0,0.0,0.0,0.0,0.0,0.0,0.0,0.0,0.0,0.0,0.0,0.0,0.0,0.0,0.0,0.0,0.0,0.0,0.0,0.0,0.0,0.0,0.0,0.0,0.0,0.0,0.0,0.0,0.0,0.0,0.0,0.0,0.0,0.0,0.0,0.0,0.0,0.0,0.0,0.0,0.0,0.0,0.0,0.0,0.0,0.0,0.0,0.0,0.0,0.0,0.0,0.0,0.0,0.0,0.0,0.0,0.0,0.0,0.0,0.0,0.0,0.0,0.0,0.0,0.0,0.0,0.0,0.0,0.0,0.0,0.0,0.0,0.0,0.0,0.0,0.0,0.0,0.0,0.0,0.0,0.0,0.0,0.0,0.0,0.0,0.0,0.0,0.0,0.0,0.0,0.0,0.0,0.0,0.0,0.0,0.0,-1.2074,-1.2081,-1.2006,-1.185,-1.3546,-1.5202,0.0,0.0,0.0,0.0,0.0,0.0,0.0,0.0,0.0,0.0,0.0,0.0,0.0,0.0,0.0,0.0,0.0,0.0,0.0,0.0,0.0,0.0,0.0,0.0,0.0,0.0,0.0,0.0,0.0,0.0,0.0,0.0,0.0,0.0,0.0,0.0,0.0,0.0,0.0,0.0,0.0,0.0,0.0,0.0,0.0,0.0,0.0,0.0,0.0,0.0,0.0,0.0,0.0,0.0,0.0,0.0,0.0,0.0,0.0,0.0,0.0,0.0,0.0,0.0,0.0,0.0,0.0,0.0,0.0,0.0,0.0,0.0,0.0,0.0,0.0,0.0,0.0,0.0,0.0,0.0,0.0,0.0,0.0,0.0,0.0,0.0,0.0,0.0,0.0,0.0,0.0,0.0,0.0,0.0,0.0,0.0,0.0,0.0,0.0,0.0,0.0,0.0,0.0,0.0,0.0,0.0,0.0,0.0,0.0,-1.2237,-1.2332,-1.2264,-1.2013,-1.3735,-1.5408,0.0,0.0,0.0,0.0,0.0,0.0,0.0,0.0,0.0,0.0,0.0,0.0,0.0,0.0,0.0,0.0,0.0,0.0,0.0,0.0,0.0,0.0,0.0,0.0,0.0,0.0,0.0,0.0,0.0,0.0,0.0,0.0,0.0,0.0,0.0,0.0,0.0,0.0,0.0,0.0,0.0,0.0,0.0,0.0,0.0,0.0,0.0,0.0,0.0,0.0,0.0,0.0,0.0,0.0,0.0,0.0,0.0,0.0,0.0,0.0,0.0,0.0,0.0,0.0,0.0,0.0,0.0,0.0,0.0,0.0,0.0,0.0,0.0,0.0,0.0,0.0,0.0,0.0,0.0,0.0,0.0,0.0,0.0,0.0,0.0,0.0,0.0,0.0,0.0,0.0,0.0,0.0,0.0,0.0,0.0,0.0,0.0,0.0,0.0,0.0,0.0,0.0,0.0,0.0,0.0,0.0,0.0,0.0,-1.2379,-1.2379,-1.2461,-1.242,-1.225,-1.4019,-1.554,0.0,0.0,0.0,0.0,0.0,0.0,0.0,0.0,0.0,0.0,0.0,0.0,0.0,0.0,0.0,0.0,0.0,0.0,0.0,0.0,0.0,0.0,0.0,0.0,0.0,0.0,0.0,0.0,0.0,0.0,0.0,0.0,0.0,0.0,0.0,0.0,0.0,0.0,0.0,0.0,0.0,0.0,0.0,0.0,0.0,0.0,0.0,0.0,0.0,0.0,0.0,0.0,0.0,0.0,0.0,0.0,0.0,0.0,0.0,0.0,0.0,0.0,0.0,0.0,0.0,0.0,0.0,0.0,0.0,0.0,0.0,0.0,0.0,0.0,0.0,0.0,0.0,0.0,0.0,0.0,0.0,0.0,0.0,0.0,0.0,0.0,0.0,0.0,0.0,0.0,0.0,0.0,0.0,0.0,0.0,0.0,0.0,0.0,0.0,0.0,0.0,0.0,0.0,0.0,0.0,0.0,0.0,0.0,-1.2501,-1.2501,-1.2501,-1.2656,-1.2804,-1.4158,-1.5694,0.0,0.0,0.0,0.0,0.0,0.0,0.0,0.0,0.0,0.0,0.0,0.0,0.0,0.0,0.0,0.0,0.0,0.0,0.0,0.0,0.0,0.0,0.0,0.0,0.0,0.0,0.0,0.0,0.0,0.0,0.0,0.0,0.0,0.0,0.0,0.0,0.0,0.0,0.0,0.0,0.0,0.0,0.0,0.0,0.0,0.0,0.0,0.0,0.0,0.0,0.0,0.0,0.0,0.0,0.0,0.0,0.0,0.0,0.0,0.0,0.0,0.0,0.0,0.0,0.0,0.0,0.0,0.0,0.0,0.0,0.0,0.0,0.0,0.0,0.0,0.0,0.0,0.0,0.0,0.0,0.0,0.0,0.0,0.0,0.0,0.0,0.0,0.0,0.0,0.0,0.0,0.0,0.0,0.0,0.0,0.0,0.0,0.0,0.0,0.0,0.0,0.0,0.0,0.0,0.0,0.0,0.0,0.0,-1.2501,-1.2501,-1.2501,-1.3259,-1.4782,-1.3565,-1.4493,0.0,0.0,0.0,0.0,0.0,0.0,0.0,0.0,0.0,0.0,0.0,0.0,0.0,0.0,0.0,0.0,0.0,0.0,0.0,0.0,0.0,0.0,0.0,0.0,0.0,0.0,0.0,0.0,0.0,0.0,0.0,0.0,0.0,0.0,0.0,0.0,0.0,0.0,0.0,0.0,0.0,0.0,0.0,0.0,0.0,0.0,0.0,0.0,-3.1543,0.0,0.0,0.0,0.0,0.0,0.0,0.0,0.0,0.0,0.0,0.0,0.0,0.0,0.0,0.0,0.0,0.0,0.0,0.0,0.0,0.0,0.0,0.0,0.0,0.0,0.0,0.0,0.0,0.0,0.0,0.0,0.0,0.0,0.0,0.0,0.0,0.0,0.0,0.0,0.0,0.0,0.0,0.0,0.0,0.0,0.0,0.0,0.0,0.0,0.0,0.0,0.0,0.0,0.0,0.0,0.0,0.0,0.0,0.0,-1.345,-1.2603,-1.2535,-1.2993,-1.4129,-1.3984,-1.5462,0.0,0.0,0.0,0.0,0.0,0.0,0.0,0.0,0.0,0.0,0.0,0.0,0.0,0.0,0.0,0.0,0.0,0.0,0.0,0.0,0.0,0.0,0.0,0.0,0.0,0.0,0.0,0.0,0.0,0.0,0.0,0.0,0.0,0.0,0.0,0.0,0.0,0.0,0.0,0.0,0.0,0.0,0.0,0.0,0.0,0.0,0.0,0.0,0.0,0.0,0.0,0.0,0.0,0.0,0.0,0.0,0.0,0.0,0.0,0.0,0.0,0.0,0.0,0.0,0.0,0.0,0.0,0.0,0.0,0.0,0.0,0.0,0.0,0.0,0.0,0.0,0.0,0.0,0.0,0.0,0.0,0.0,0.0,0.0,0.0,0.0,0.0,0.0,0.0,0.0,0.0,0.0,0.0,0.0,0.0,0.0,0.0,0.0,0.0,0.0,0.0,0.0,0.0,0.0,0.0,0.0,0.0,-1.4199,-1.4284,-1.2718,-1.2623,-1.2936,-1.3654,-1.5212,-1.766,-2.1053,0.0,0.0,0.0,0.0,0.0,0.0,0.0,0.0,0.0,0.0,0.0,0.0,0.0,0.0,0.0,0.0,0.0,0.0,0.0,0.0,0.0,0.0,0.0,0.0,0.0,0.0,0.0,0.0,0.0,0.0,0.0,0.0,0.0,0.0,0.0,0.0,0.0,0.0,-3.0195,-3.0644,0.0,0.0,0.0,0.0,0.0,0.0,0.0,0.0,-3.1914,0.0,0.0,0.0,0.0,0.0,0.0,0.0,0.0,0.0,0.0,0.0,0.0,0.0,0.0,0.0,0.0,0.0,0.0,0.0,0.0,0.0,0.0,0.0,0.0,0.0,0.0,0.0,0.0,0.0,0.0,0.0,0.0,0.0,0.0,0.0,0.0,0.0,0.0,0.0,0.0,0.0,0.0,0.0,0.0,0.0,0.0,0.0,0.0,0.0,0.0,0.0,0.0,0.0,0.0,0.0,0.0,-1.2501,-1.2936,-1.3012,-1.2732,-1.2834,-1.4395,-1.7681,-1.8106,-2.0005,-2.3246,0.0,0.0,0.0,0.0,0.0,0.0,0.0,0.0,0.0,0.0,0.0,0.0,0.0,0.0,0.0,0.0,0.0,0.0,0.0,0.0,0.0,0.0,0.0,0.0,0.0,0.0,0.0,0.0,0.0,0.0,0.0,0.0,0.0,0.0,0.0,0.0,0.0,0.0,0.0,-3.084,-3.1191,0.0,0.0,0.0,0.0,0.0,0.0,0.0,0.0,-3.2324,0.0,0.0,0.0,0.0,0.0,0.0,0.0,0.0,0.0,0.0,0.0,0.0,0.0,0.0,0.0,0.0,0.0,0.0,0.0,0.0,0.0,0.0,0.0,0.0,0.0,0.0,0.0,0.0,0.0,0.0,0.0,0.0,0.0,0.0,0.0,0.0,0.0,0.0,0.0,0.0,0.0,0.0,0.0,0.0,0.0,0.0,0.0,0.0,0.0,0.0,0.0,0.0,0.0,0.0,0.0,-1.2811,-1.4648,-1.5401,-1.4561,-1.4646,-1.6064,-1.8922,-1.9891,-2.114,0.0,0.0,0.0,0.0,0.0,0.0,0.0,0.0,0.0,0.0,0.0,0.0,0.0,0.0,0.0,0.0,0.0,0.0,0.0,0.0,0.0,0.0,0.0,0.0,0.0,0.0,0.0,0.0,0.0,0.0,0.0,0.0,0.0,0.0,0.0,0.0,0.0,0.0,0.0,0.0,-3.1074,-3.1367,-3.1777,0.0,0.0,0.0,0.0,0.0,0.0,-3.2656,-3.2578,0.0,0.0,0.0,0.0,0.0,0.0,0.0,0.0,0.0,0.0,0.0,0.0,0.0,0.0,0.0,0.0,0.0,0.0,0.0,0.0,0.0,0.0,0.0,0.0,0.0,0.0,0.0,0.0,0.0,0.0,0.0,0.0,0.0,0.0,0.0,0.0,0.0,0.0,0.0,0.0,0.0,0.0,0.0,0.0,0.0,0.0,0.0,0.0,0.0,0.0,0.0,0.0,0.0,0.0,0.0,-1.3465,-1.6552,-1.7529,-1.6307,-1.6157,-1.7417,-1.9771,-2.1209,-2.194,0.0,0.0,0.0,0.0,0.0,0.0,0.0,0.0,0.0,0.0,0.0,0.0,0.0,0.0,0.0,0.0,0.0,0.0,0.0,0.0,0.0,0.0,0.0,0.0,0.0,0.0,0.0,0.0,0.0,0.0,0.0,0.0,0.0,0.0,0.0,0.0,0.0,0.0,0.0,0.0,0.0,-3.1543,-3.1641,-3.1953,0.0,0.0,0.0,0.0,-3.2793,-3.2793,0.0,0.0,0.0,0.0,0.0,0.0,0.0,0.0,0.0,0.0,0.0,0.0,0.0,0.0,0.0,0.0,0.0,0.0,0.0,0.0,0.0,0.0,0.0,0.0,0.0,0.0,0.0,0.0,0.0,0.0,0.0,0.0,0.0,0.0,0.0,0.0,0.0,0.0,0.0,0.0,0.0,0.0,0.0,0.0,0.0,0.0,0.0,0.0,0.0,0.0,0.0,0.0,0.0,0.0,0.0,0.0,-1.5482,-1.5971,-1.6316,-1.6343,-1.6351,-1.8088,-2.2076,-2.1928,-2.2736,0.0,0.0,0.0,0.0,0.0,0.0,0.0,0.0,0.0,0.0,0.0,0.0,0.0,0.0,0.0,0.0,0.0,0.0,0.0,0.0,0.0,0.0,0.0,0.0,0.0,0.0,0.0,0.0,0.0,0.0,0.0,0.0,0.0,0.0,0.0,0.0,0.0,0.0,0.0,0.0,0.0,-3.166,-3.2051,-3.2129,-3.2305,0.0,0.0,-3.2793,-3.2793,-3.2793,0.0,0.0,0.0,0.0,0.0,0.0,0.0,0.0,0.0,0.0,0.0,0.0,0.0,0.0,0.0,0.0,0.0,0.0,0.0,0.0,0.0,0.0,0.0,0.0,0.0,0.0,0.0,0.0,0.0,0.0,0.0,0.0,0.0,0.0,0.0,0.0,0.0,0.0,0.0,0.0,0.0,0.0,0.0,0.0,0.0,0.0,0.0,0.0,0.0,0.0,0.0,0.0,0.0,0.0,0.0,-1.7158,-1.4281,-1.6468,-1.7286,-1.6538,-1.7494,-1.9502,-2.2385,-2.3273,-2.407,0.0,0.0,0.0,0.0,0.0,0.0,0.0,0.0,0.0,0.0,0.0,0.0,0.0,0.0,0.0,0.0,0.0,0.0,0.0,0.0,0.0,0.0,0.0,0.0,0.0,0.0,0.0,0.0,0.0,0.0,0.0,0.0,0.0,0.0,0.0,0.0,0.0,0.0,0.0,0.0,0.0,0.0,-3.1797,-3.2207,0.0,0.0,0.0,-3.3437,-3.3184,0.0,0.0,0.0,0.0,0.0,0.0,0.0,0.0,0.0,0.0,0.0,0.0,0.0,0.0,0.0,0.0,0.0,0.0,0.0,0.0,0.0,0.0,0.0,0.0,0.0,0.0,0.0,0.0,0.0,0.0,0.0,0.0,0.0,0.0,0.0,0.0,0.0,0.0,0.0,0.0,0.0,0.0,0.0,0.0,0.0,0.0,0.0,0.0,0.0,0.0,0.0,0.0,0.0,0.0,0.0,0.0,0.0,-1.3712,-1.6696,-1.8004,-1.7405,-1.8577,-2.0537,-2.3104,-2.4492,0.0,0.0,0.0,0.0,0.0,0.0,0.0,0.0,0.0,0.0,0.0,0.0,0.0,0.0,0.0,0.0,0.0,0.0,0.0,0.0,0.0,0.0,0.0,0.0,0.0,0.0,0.0,-1.926,0.0,0.0,0.0,0.0,0.0,0.0,0.0,0.0,0.0,0.0,0.0,0.0,0.0,0.0,-3.2207,-3.1875,-3.248,-3.2832,0.0,0.0,-3.3984,-3.3769,-3.3652,-3.3574,0.0,0.0,0.0,0.0,0.0,0.0,0.0,0.0,0.0,0.0,0.0,0.0,0.0,0.0,0.0,0.0,0.0,0.0,0.0,0.0,0.0,0.0,0.0,0.0,0.0,0.0,0.0,0.0,0.0,0.0,0.0,0.0,0.0,0.0,0.0,0.0,0.0,0.0,0.0,0.0,0.0,0.0,0.0,0.0,0.0,0.0,0.0,0.0,0.0,0.0,0.0,0.0,0.0,0.0,0.0,-1.5914,-1.6258,-1.7405,-1.9543,-1.9303,-2.1235,-2.5581,-2.5371,-2.5064,0.0,0.0,0.0,0.0,0.0,0.0,0.0,0.0,0.0,0.0,0.0,0.0,0.0,0.0,0.0,0.0,0.0,0.0,0.0,0.0,0.0,0.0,0.0,0.0,0.0,0.0,0.0,0.0,0.0,0.0,0.0,0.0,0.0,0.0,0.0,0.0,0.0,0.0,0.0,0.0,0.0,-3.2754,-3.2715,-3.3086,-3.3379,0.0,0.0,-3.4199,-3.4551,-3.4277,-3.4023,-3.4023,0.0,0.0,0.0,0.0,0.0,0.0,0.0,0.0,0.0,0.0,0.0,0.0,0.0,0.0,0.0,0.0,0.0,0.0,0.0,0.0,0.0,0.0,0.0,0.0,0.0,0.0,0.0,0.0,0.0,0.0,0.0,0.0,0.0,0.0,0.0,0.0,0.0,0.0,0.0,0.0,0.0,0.0,0.0,0.0,0.0,0.0,0.0,0.0,0.0,0.0,0.0,0.0,0.0,-1.6694,-1.6098,-1.7545,-1.8711,-1.9887,-2.0877,-2.2107,-2.363,-2.467,-2.5077,0.0,0.0,0.0,0.0,0.0,0.0,0.0,0.0,0.0,0.0,0.0,0.0,0.0,0.0,0.0,0.0,0.0,0.0,0.0,0.0,0.0,0.0,0.0,0.0,0.0,0.0,0.0,0.0,-2.4077,-2.5225,-2.7884,0.0,0.0,0.0,0.0,0.0,0.0,0.0,0.0,0.0,0.0,-3.3281,-3.3535,-3.3945,0.0,0.0,-3.4648,-3.5137,-3.4766,-3.4805,-3.4785,-3.4512,-3.4453,0.0,0.0,0.0,0.0,0.0,0.0,0.0,0.0,0.0,0.0,0.0,0.0,0.0,0.0,0.0,0.0,0.0,0.0,0.0,0.0,0.0,0.0,0.0,0.0,0.0,0.0,0.0,0.0,0.0,0.0,0.0,0.0,0.0,0.0,0.0,0.0,0.0,0.0,0.0,0.0,0.0,0.0,0.0,0.0,0.0,0.0,0.0,0.0,0.0,0.0,0.0,0.0,-1.6652,-1.6427,-1.8465,-2.0097,-2.0973,-2.2134,-2.2984,-2.3438,-2.4583,-2.5211,0.0,0.0,0.0,0.0,0.0,0.0,0.0,0.0,0.0,0.0,0.0,0.0,0.0,0.0,0.0,0.0,0.0,0.0,0.0,0.0,0.0,0.0,0.0,0.0,0.0,0.0,0.0,0.0,-2.5982,-2.6952,-2.8433,0.0,0.0,0.0,0.0,0.0,0.0,0.0,0.0,0.0,0.0,-3.3906,-3.4219,-3.4629,-3.4805,-3.4512,-3.5351,-3.5801,-3.5195,-3.5371,-3.543,-3.498,0.0,0.0,0.0,0.0,0.0,0.0,0.0,0.0,0.0,0.0,0.0,0.0,0.0,0.0,0.0,0.0,0.0,0.0,0.0,0.0,0.0,0.0,0.0,0.0,0.0,0.0,0.0,0.0,0.0,0.0,-1.2054,0.0,0.0,0.0,0.0,0.0,0.0,0.0,0.0,0.0,0.0,0.0,0.0,0.0,0.0,0.0,0.0,0.0,0.0,0.0,0.0,0.0,0.0,-1.8341,-1.6966,-1.8913,-2.1146,-2.3481,-2.3023,-2.372,-2.5777,-2.5665,-2.5504,-2.5491,0.0,0.0,0.0,0.0,0.0,0.0,0.0,0.0,0.0,0.0,0.0,0.0,0.0,0.0,0.0,0.0,0.0,0.0,0.0,0.0,0.0,0.0,0.0,0.0,0.0,0.0,-2.5559,-2.7327,-2.8571,0.0,0.0,0.0,0.0,0.0,0.0,0.0,0.0,0.0,0.0,-3.4434,-3.4687,-3.4687,-3.5078,-3.5371,-3.5351,-3.5723,-3.6016,-3.5976,-3.5996,-3.5879,0.0,0.0,0.0,0.0,0.0,0.0,0.0,0.0,0.0,0.0,0.0,0.0,0.0,0.0,0.0,0.0,0.0,0.0,0.0,0.0,0.0,0.0,0.0,0.0,0.0,0.0,0.0,-1.2556,-1.2501,0.0,0.0,0.0,0.0,0.0,0.0,0.0,0.0,0.0,0.0,0.0,-1.8038,-1.9398,0.0,0.0,0.0,0.0,0.0,0.0,0.0,0.0,0.0,0.0,0.0,0.0,-1.8077,-1.8892,-2.1114,-2.3352,-2.5391,-2.5212,-2.5505,-2.5959,-2.5865,-2.5718,-2.5518,0.0,0.0,0.0,0.0,0.0,0.0,0.0,0.0,0.0,0.0,0.0,0.0,0.0,0.0,0.0,0.0,0.0,0.0,0.0,0.0,0.0,0.0,0.0,0.0,0.0,-2.9258,0.0,0.0,0.0,0.0,0.0,0.0,0.0,0.0,0.0,0.0,0.0,-3.4297,-3.4883,-3.5078,-3.5254,-3.5547,-3.5703,-3.5801,0.0,0.0,0.0,0.0,0.0,0.0,0.0,0.0,0.0,0.0,0.0,0.0,0.0,0.0,-4.2565,-4.2257,-4.302,-4.3721,-4.3776,0.0,0.0,0.0,0.0,0.0,0.0,0.0,0.0,0.0,0.0,0.0,0.0,0.0,0.0,-1.2752,0.0,-1.282,0.0,0.0,0.0,0.0,0.0,0.0,0.0,0.0,-1.6111,-1.7643,-1.9182,-2.0725,-2.1344,0.0,-2.0572,-1.9448,0.0,0.0,0.0,0.0,0.0,0.0,0.0,0.0,-1.9095,-2.1222,-2.356,-2.5299,-2.6694,-2.6587,-2.6453,-2.6266,-2.6266,-2.6119,-2.5838,-2.6186,-2.6172,0.0,0.0,0.0,0.0,0.0,0.0,0.0,0.0,0.0,0.0,0.0,0.0,0.0,0.0,0.0,0.0,0.0,0.0,0.0,0.0,0.0,0.0,0.0,-3.1924,0.0,0.0,0.0,0.0,0.0,0.0,0.0,0.0,0.0,-3.3672,-3.416,-3.4746,-3.5312,-3.5508,-3.5703,-3.5976,0.0,0.0,0.0,0.0,0.0,0.0,0.0,-3.6348,-3.6074,-3.625,-3.6876,-3.8395,-4.0657,-4.235,-4.278,0.0,0.0,-4.3649,-4.4289,-4.4819,-4.4468,-4.4819,-4.4995,-4.4267,-4.4694,-4.5121,0.0,0.0,0.0,0.0,0.0,0.0,0.0,0.0,-1.2983,-1.2976,0.0,-1.3105,0.0,0.0,0.0,0.0,0.0,-1.2883,0.0,0.0,-1.3547,-1.5504,-1.9437,-1.9594,-2.1624,-2.5225,-2.3353,-2.2425,-2.2329,-2.0473,0.0,0.0,0.0,0.0,0.0,0.0,-2.1426,-2.3833,-2.5801,-2.6974,-2.7215,-2.6974,-2.6841,-2.6841,-2.6854,-2.672,-2.6453,-2.6453,-2.6293,-2.5972,-2.5438,0.0,0.0,0.0,0.0,0.0,0.0,0.0,0.0,0.0,0.0,0.0,0.0,0.0,0.0,0.0,0.0,0.0,0.0,0.0,0.0,-3.2246,0.0,0.0,0.0,0.0,0.0,0.0,0.0,0.0,0.0,0.0,-3.418,-3.4844,-3.541,-3.5449,0.0,0.0,0.0,0.0,-3.6035,-3.6035,-3.6035,-3.6035,-3.6035,-3.6035,-3.6055,-3.6035,0.0,0.0,-3.8353,-4.0148,-4.1924,-4.3458,-4.4694,-4.5347,-4.4844,-4.5003,-4.5372,-4.5397,-4.5773,-4.6225,-4.625,-4.615,-4.6276,-1.3587,0.0,0.0,0.0,0.0,-1.3485,-1.3437,-1.3431,-1.3322,-1.3214,-1.3112,-1.3152,0.0,0.0,0.0,0.0,0.0,0.0,-1.7259,-2.0421,-2.0642,-2.205,-2.4652,-2.4652,-2.5199,-2.6132,-2.5492,-2.5283,-2.5205,-2.4566,-2.2717,-1.9686,0.0,0.0,0.0,0.0,-2.2901,-2.3537,-2.5801,-2.7081,-2.6947,-2.7068,-2.7228,-2.7442,-2.7442,-2.7402,-2.7321,-2.7321,-2.6987,-2.6306,-2.6106,0.0,0.0,0.0,0.0,0.0,0.0,0.0,0.0,0.0,0.0,0.0,0.0,0.0,0.0,0.0,0.0,0.0,0.0,0.0,-3.3669,-3.3984,-3.3836,0.0,0.0,0.0,0.0,0.0,0.0,0.0,0.0,0.0,-3.5039,-3.5234,-3.5625,0.0,0.0,-3.6133,-3.6445,-3.6211,-3.6035,-3.6035,-3.6035,0.0,-3.6035,-3.6289,-3.6367,-3.6074,-3.7059,-3.8465,-4.0148,-4.182,-4.3606,-4.5281,-4.5789,-4.615,-4.6326,-4.5522,-4.4945,-4.492,-4.5321,-4.5698,-4.5748,-4.6326,-4.6903,-1.4109,-1.4095,-1.3919,-1.3838,-1.3831,-1.3749,-1.3709,-1.3709,-1.3614,-1.3526,-1.3437,-1.4492,-1.4923,-1.4765,-1.5666,0.0,0.0,0.0,-1.9654,-2.247,-2.2515,-2.3528,-2.5499,-2.5384,-2.5801,-2.656,-2.5736,-2.5801,-2.6734,-2.5905,-2.4566,-2.3005,0.0,0.0,-2.3001,-2.3517,-2.4148,-2.4938,-2.6574,-2.7348,-2.7175,-2.7348,-2.7575,-2.7856,-2.7883,-2.7869,-2.7869,-2.7869,-2.7575,-2.6934,-2.6573,-2.6146,0.0,0.0,0.0,0.0,0.0,0.0,0.0,0.0,0.0,0.0,0.0,-2.3863,-2.3877,0.0,0.0,0.0,-3.0663,-3.2052,-3.4303,-3.4453,0.0,0.0,0.0,0.0,0.0,0.0,0.0,-3.498,-3.5371,-3.5644,-3.5644,-3.5644,-3.584,-3.6348,-3.6191,-3.6113,-3.6387,0.0,-3.6074,-3.625,-3.6133,-3.6074,-3.625,-3.6348,-3.6328,-3.6074,-3.6789,-3.8465,-4.0795,-4.2074,-4.3482,-4.5696,-4.6476,-4.6753,-4.7079,-4.6451,-4.5924,-4.5949,-4.6376,-4.6778,-4.6803,-4.7506,-4.8109,-1.4529,-1.4489,-1.4089,-1.3919,-1.3912,-1.3912,-1.3912,-1.3912,-1.3899,-1.3892,-1.4071,-1.6246,-1.7245,-1.7247,-1.9237,0.0,-2.0635,-2.0599,-2.0786,-2.1138,-2.0931,-2.1982,-2.3913,-2.3675,-2.4653,-2.6854,-2.4876,-2.5012,-2.7078,-2.5248,-2.5372,-2.7463,-2.4864,-2.4765,-2.7105,-2.526,-2.5372,-2.7655,-2.7682,-2.7709,-2.7736,-2.7736,-2.7883,-2.8163,-2.8177,-2.819,-2.8203,-2.819,-2.8043,-2.7736,-2.6934,-2.6466,-2.6373,0.0,0.0,0.0,0.0,0.0,0.0,0.0,0.0,0.0,0.0,0.0,0.0,0.0,0.0,0.0,-3.3671,0.0,-3.4219,-3.418,0.0,0.0,0.0,-3.4375,-3.4766,-3.5176,-3.5449,-3.5449,0.0,0.0,-3.6035,-3.6055,-3.6074,-3.6074,-3.6074,-3.6094,-3.6113,-3.6152,-3.6269,-3.668,-3.6387,-3.6269,-3.6641,-3.6445,-3.623,-3.6211,-3.625,-3.7738,-4.0713,-4.1723,-4.2869,-4.587,-4.6853,-4.723,-4.7255,-4.7631,-4.7983,-4.7983,-4.836,-4.8711,-4.8636,-4.9063,-4.9439,-1.4685,-1.4672,-1.457,-1.4523,-1.4523,-1.4523,-1.4523,-1.4516,-1.4401,-1.4353,-1.4346,-1.4801,-1.5089,-1.5053,-1.5533,-1.6808,-1.8716,-2.0578,-2.2309,-2.4086,-2.5775,-2.6735,-2.6657,-2.6579,-2.6803,-2.7161,-2.6659,-2.6685,-2.7268,-2.6764,-2.6803,-2.7348,-2.6659,-2.6738,-2.7575,-2.6869,-2.679,-2.7362,-2.7589,-2.7816,-2.803,-2.8043,-2.819,-2.8497,-2.8497,-2.8604,-2.8818,-2.8617,-2.835,-2.8043,-2.7615,-2.7081,-2.6426,-2.6199,0.0,0.0,0.0,0.0,0.0,0.0,0.0,0.0,0.0,-2.6628,-2.6628,0.0,-3.0617,0.0,-3.4241,-3.5176,-3.5098,-3.5078,0.0,0.0,-3.5371,-3.5586,-3.5703,-3.5801,-3.5879,-3.5879,-3.5957,-3.6035,-3.6035,-3.6309,-3.6523,-3.6504,-3.6523,-3.6621,-3.6934,-3.6992,-3.7031,-3.7109,-3.7051,-3.7031,-3.7109,-3.707,-3.6973,-3.6992,-3.8182,-3.9939,-4.1883,-4.3456,-4.5047,-4.701,-4.7631,-4.7883,-4.8284,-4.851,-4.8711,-4.9063,-4.8987,-4.8786,-4.8786,-4.9213,-4.959,-1.4841,-1.4848,-1.4909,-1.4936,-1.493,-1.4794,-1.474,-1.4733,-1.4652,-1.4611,-1.4611,-1.5592,-1.6611,-1.7662,-1.7662,-1.8947,-2.1343,-2.2648,-2.436,-2.6635,-2.7617,-2.803,-2.7696,-2.7562,-2.7495,-2.7455,-2.7455,-2.7522,-2.7642,-2.7655,-2.7655,-2.7655,-2.7655,-2.7736,-2.7869,-2.7602,-2.7589,-2.7856,-2.7883,-2.7976,-2.8136,-2.815,-2.8283,-2.8591,-2.8738,-2.8871,-2.9032,-2.9018,-2.8858,-2.8551,-2.8136,-2.7682,-2.7188,-2.68,-2.6587,0.0,0.0,0.0,0.0,0.0,0.0,0.0,0.0,0.0,0.0,0.0,-3.2512,-3.3816,-3.4643,-3.5078,-3.5078,-3.5078,-3.5078,-3.5078,-3.5488,-3.582,-3.5996,-3.6035,-3.6035,-3.6035,-3.6035,-3.6094,-3.6289,-3.6523,-3.6738,-3.6934,-3.7109,-3.7246,-3.7266,-3.7305,-3.7363,-3.7539,-3.7422,-3.7305,-3.7305,-3.7305,-3.7305,-3.7426,-3.8922,-4.0665,-4.2371,-4.4086,-4.5942,-4.7508,-4.8109,-4.8385,-4.8711,-4.8987,-4.9238,-4.9439,-4.9364,-4.9163,-4.9138,-4.9389,-4.959,-1.4997,-1.5011,-1.5133,-1.5181,-1.516,-1.4909,-1.4794,-1.4794,-1.4794,-1.4794,-1.4977,-1.7317,-1.9464,-2.1253,-2.1581,-2.2998,-2.496,-2.4882,-2.6154,-2.805,-2.7888,-2.7789,-2.7749,-2.7495,-2.7509,-2.7749,-2.7762,-2.7909,-2.8203,-2.8203,-2.823,-2.8257,-2.8257,-2.827,-2.8297,-2.8016,-2.8096,-2.8537,-2.8323,-2.8203,-2.8203,-2.8203,-2.835,-2.8644,-2.8871,-2.9005,-2.9045,-2.9259,-2.9272,-2.9032,-2.8497,-2.819,-2.8123,-2.7415,-2.6974,0.0,-2.6627,0.0,0.0,0.0,0.0,0.0,0.0,0.0,0.0,-3.2998,-3.5039,-3.5449,-3.5059,-3.4805,-3.4863,-3.4863,-3.4883,-3.4883,-3.5273,-3.5684,-3.5996,-3.6035,-3.6035,-3.6035,-3.6074,-3.625,-3.6601,-3.6758,-3.6992,-3.7344,-3.7734,-3.7851,-3.7559,-3.7519,-3.7637,-3.7969,-3.7695,-3.7578,-3.7539,-3.75,-3.7539,-3.7681,-3.9528,-4.1216,-4.2839,-4.4836,-4.6657,-4.7956,-4.8711,-4.8987,-4.8912,-4.9264,-4.9565,-4.959,-4.9565,-4.9565,-4.9565,-4.9565,-4.959,-1.514,-1.5147,-1.5174,-1.5181,-1.5181,-1.512,-1.5099,-1.5099,-1.5099,-1.5099,-1.5286,-1.7667,-1.8945,-1.9481,-2.1326,-2.2321,-2.2861,-2.4429,-2.5266,-2.5759,-2.7603,-2.8297,-2.807,-2.8003,-2.8003,-2.8056,-2.8056,-2.8217,-2.8524,-2.8524,-2.8644,-2.8871,-2.8871,-2.8991,-2.9205,0.0,0.0,0.0,-2.8417,-2.8524,-2.8524,-2.8524,-2.8657,-2.8938,-2.8778,0.0,-2.9018,-2.8871,-2.8858,-2.9018,-2.8711,0.0,0.0,0.0,0.0,0.0,0.0,0.0,0.0,0.0,0.0,0.0,-2.8187,-3.0472,-3.2453,-3.4539,-3.5801,-3.5879,-3.5508,-3.541,-3.5723,-3.5762,-3.5762,-3.5781,-3.6152,-3.6328,-3.6074,-3.6035,-3.6035,-3.6035,-3.6328,-3.6582,-3.6719,-3.7246,-3.7695,-3.7812,-3.8184,-3.8398,-3.832,-3.8281,-3.834,-3.8418,-3.832,-3.832,-3.834,-3.832,-3.8418,-3.9149,-4.1783,-4.3985,-4.4973,-4.7885,-4.9843,-5.0017,-5.0042,-4.9941,-4.954,-4.954,-4.964,-4.9615,-4.9615,-4.959,-4.959,-4.959,-4.959,-1.5404,0.0,-1.5404,-1.5411,0.0,-1.5411,-1.5411,-1.5398,-1.5248,-1.5181,-1.5368,-1.6471,-1.7025,-1.7204,-1.8133,-1.9861,-2.2192,-2.2945,-2.4672,-2.6833,-2.8063,-2.8524,-2.8377,-2.8511,-2.8591,-2.8577,-2.8577,-2.8671,-2.8804,-2.8818,-2.8898,-2.9045,-2.9045,-2.9112,-2.9259,-2.9112,-2.8898,-2.8591,-2.8738,-2.8818,-2.8831,-2.8818,-2.8965,-2.9232,-2.8978,0.0,0.0,0.0,0.0,0.0,0.0,0.0,0.0,0.0,0.0,-2.7936,-2.7495,-2.7121,-2.6827,-2.6279,-2.6724,-2.8342,-3.1481,-3.3623,-3.3872,-3.4816,-3.5469,-3.5684,-3.5508,-3.5566,-3.5976,-3.6211,-3.6348,-3.6367,-3.6719,-3.6816,-3.6426,-3.6348,-3.6348,-3.6348,-3.6543,-3.6797,-3.7246,-3.7637,-3.8008,-3.8223,-3.8418,-3.8574,-3.8574,-3.8574,-3.8574,-3.8574,-3.8574,-3.8652,-3.8848,-3.8887,-3.9043,-3.986,-4.2665,-4.5021,-4.555,-4.8714,-5.1172,-5.0896,-5.0845,-5.0745,-5.0494,-5.0218,-4.9992,-4.9967,-4.9791,-4.9615,-4.959,-4.959,-4.959,-1.5635,-1.5635,-1.5608,-1.5615,-1.5635,-1.5608,-1.5615,-1.5622,0.0,0.0,0.0,-1.5605,-1.6148,-1.6508,-1.688,-1.9323,-2.3263,-2.3037,-2.4963,-2.8684,-2.8684,-2.8684,-2.8698,-2.8925,-2.9018,-2.8965,-2.8965,-2.8965,-2.8965,-2.8965,-2.9018,-2.9112,-2.9112,-2.9138,-2.9192,-2.9192,-2.9192,-2.9192,-2.9152,-2.9112,-2.9112,-2.9125,-2.9259,-2.9553,-2.9219,-2.9179,-2.9472,-2.9205,-2.9045,-2.9045,-2.9098,-2.9085,-2.9045,-2.9085,-2.8871,-2.8337,-2.803,-2.7615,-2.7094,-2.6734,-2.8047,-3.1544,-3.4866,-3.6402,-3.5254,-3.5156,-3.5312,-3.5703,-3.5723,-3.5898,-3.6328,-3.668,-3.6894,-3.6894,-3.7207,-3.7246,-3.6836,-3.6719,-3.668,-3.6758,-3.6797,-3.707,-3.7773,-3.7988,-3.8164,-3.8476,-3.8555,-3.8574,-3.8574,-3.8574,-3.8574,-3.8574,-3.8574,-3.8711,-3.9082,-3.918,-3.9414,-4.0053,-4.2858,-4.518,-4.6246,-4.8701,-5.0961,-5.1448,-5.1423,-5.1348,-5.1247,-5.087,-5.0594,-5.0569,-5.0142,-4.9741,-4.9741,-4.9665,-4.959,-1.5642,-1.5628,-1.5499,-1.552,-1.5628,-1.5499,-1.552,-1.5635,-1.5588,-1.5574,-1.576,-1.7686,-1.9671,-2.1878,-2.3507,-2.5854,-2.8358,-2.8049,-2.8269,-2.8978,-2.8978,-2.8978,-2.8978,-2.9018,-2.8911,-2.8684,-2.8671,-2.8671,-2.8671,-2.8671,-2.8925,-2.9366,-2.9419,-2.9539,-2.978,-2.9793,-2.9793,-2.9793,-2.9553,-2.9419,-2.9419,-2.9419,-2.9566,-2.982,-2.9325,-2.9179,-2.9459,-2.9205,-2.9045,-2.9045,-2.9285,-2.9312,-2.9072,-2.9272,-2.9272,-2.8938,-2.8644,-2.8323,-2.7963,-2.7442,-2.8503,-3.1593,-3.3687,-3.5414,-3.6813,-3.6934,-3.6953,-3.7031,-3.7012,-3.7207,-3.7598,-3.7695,-3.7754,-3.7734,-3.7793,-3.7676,-3.7246,-3.6953,-3.6875,-3.7207,-3.7207,-3.7383,-3.791,-3.8262,-3.8457,-3.8555,-3.8633,-3.8594,-3.8613,-3.8574,-3.8574,-3.8574,-3.8574,-3.875,-3.9141,-3.9219,-3.957,-4.0312,-4.2317,-4.4586,-4.6357,-4.8611,-5.0652,-5.1779,-5.2,-5.1825,-5.1448,-5.1222,-5.1147,-5.1122,-5.0695,-5.0318,-5.0268,-4.9941,-4.964,-1.5832,-1.575,-1.5676,-1.5649,-1.5635,-1.5642,-1.5689,-1.5952,-1.7381,-1.7889,-1.7712,-1.8674,-2.0458,-2.2839,-2.3518,-2.5126,-2.7471,-2.7197,-2.7785,-2.8884,-2.9205,-2.9285,-2.9299,-2.9432,-2.9366,-2.9098,-2.9085,-2.9005,-2.8858,-2.8845,-2.9058,-2.9472,-2.9633,-2.9793,-2.9913,-2.9913,-2.9913,-2.9913,-2.978,-2.9713,-2.9713,-2.9713,-2.978,-2.9913,-2.9499,-2.9339,-2.9472,-2.9205,-2.9045,-2.9045,-2.9325,-2.9419,-2.9299,-2.9553,-2.9593,-2.9299,-2.8858,-2.847,-2.8163,-2.8715,-2.937,-3.0778,-3.3597,-3.5521,-3.6178,-3.7163,-3.7637,-3.7656,-3.8027,-3.8301,-3.8301,-3.8476,-3.8535,-3.8301,-3.8281,-3.8105,-3.7734,-3.7715,-3.7793,-3.7949,-3.7988,-3.8164,-3.8574,-3.8594,-3.8574,-3.8594,-3.875,-3.8906,-3.8926,-3.9121,-3.9101,-3.8691,-3.8594,-3.8887,-3.9434,-3.957,-3.9941,-4.0723,-4.2464,-4.4614,-4.6713,-4.865,-5.0455,-5.2167,-5.2553,-5.2452,-5.2176,-5.19,-5.1774,-5.1674,-5.1272,-5.0845,-5.0494,-5.0193,-5.0067,-1.5961,-1.5852,-1.5778,-1.571,-1.5655,-1.5791,-1.5872,-1.6103,-1.8128,-1.9175,-1.9488,-1.9863,-2.1433,-2.3592,-2.3378,-2.4474,-2.645,-2.6625,-2.7612,-2.9083,-2.9472,-2.9579,-2.9593,-2.9806,-2.9726,-2.9419,-2.9379,-2.9205,-2.8885,-2.8911,-2.9125,-2.9472,-2.9766,-2.9913,-2.9913,-2.9913,-2.9913,-2.9913,-2.9913,-2.9913,-2.9913,-2.9913,-2.9913,-2.99,-2.97,-2.9579,-2.9566,-2.9352,-2.9205,-2.9165,-2.9419,-2.9553,-2.9513,-2.982,-2.9887,-2.9579,-2.9098,-2.8604,-2.8318,-2.9578,-3.058,-3.0959,-3.4145,-3.6279,-3.6588,-3.7734,-3.8418,-3.834,-3.8887,-3.9199,-3.8965,-3.9023,-3.9062,-3.875,-3.8633,-3.8476,-3.8281,-3.8437,-3.8672,-3.8789,-3.8789,-3.8848,-3.9043,-3.8926,-3.875,-3.8789,-3.9004,-3.9219,-3.9355,-3.9687,-3.9551,-3.9141,-3.8945,-3.9219,-3.9824,-4.0098,-4.0449,-4.1113,-4.233,-4.4226,-4.6293,-4.8361,-5.0269,-5.2,-5.2904,-5.2854,-5.2879,-5.2603,-5.2327,-5.2251,-5.1975,-5.1523,-5.1021,-5.087,-5.0745,-1.5866,-1.5811,-1.5574,-1.5527,-1.5649,-1.5784,-1.592,-1.6022,-1.6321,-1.7607,-1.9825,-2.1944,-2.3988,-2.603,-2.5947,-2.7099,-2.9309,-2.9475,-2.9628,-2.9806,-2.986,-2.9873,-2.986,-2.99,-2.9619,-2.9152,-2.9112,-2.8858,-2.8377,-2.8577,-2.8938,-2.9459,-2.978,-2.9913,-2.9913,-2.9913,-2.9913,-2.9913,-2.9913,-2.9913,-2.9913,-2.9913,-2.9913,-2.9913,-2.9887,-2.9873,-2.986,-2.986,-2.9713,-2.9499,-2.9713,-2.9753,-2.9579,-3.0007,-3.0181,-2.9887,-2.9566,-2.9045,-2.8399,-2.9778,-3.1487,-3.3513,-3.5279,-3.7301,-3.8993,-3.9907,-3.9922,-3.9394,-3.9551,-3.9824,-3.9746,-3.9473,-3.9238,-3.9101,-3.8848,-3.8691,-3.8945,-3.8789,-3.8867,-3.9707,-3.9414,-3.918,-3.9277,-3.9219,-3.9141,-3.9082,-3.9258,-3.9473,-3.9766,-3.9941,-3.998,-3.9883,-4.0059,-4.0156,-4.0156,-4.0586,-4.1016,-4.1211,-4.1327,-4.3136,-4.5661,-4.722,-4.8361,-5.1607,-5.2929,-5.2929,-5.2929,-5.2854,-5.2829,-5.2729,-5.2628,-5.2553,-5.2101,-5.19,-5.1749,-1.5805,-1.571,-1.5499,-1.5445,-1.552,-1.5662,-1.5757,-1.6007,-1.7584,-1.8632,-1.9577,-2.1933,-2.4463,-2.6594,-2.7826,-2.8989,-2.9913,-2.9913,-2.9913,-2.9913,-2.9913,-2.9913,-2.9913,-2.9913,-2.97,-2.9339,-2.9299,-2.9085,-2.8791,-2.8978,-2.9245,-2.9486,-2.9766,-2.9913,-2.9913,-2.9913,-2.9913,-2.9913,-2.9913,-2.9913,-2.9913,-2.9913,-2.9913,-2.9913,-2.9913,-2.9913,-2.9913,-2.9913,-2.986,-2.9753,-2.986,-2.986,-2.974,-2.9967,-3.0047,-2.99,-2.9472,-2.8991,-2.8457,-2.895,-3.0151,-3.2065,-3.4189,-3.6377,-3.8396,-4.0009,-4.0742,-4.0488,-4.0527,-4.0566,-4.0293,-4.0098,-3.9785,-3.9355,-3.9277,-3.9316,-3.918,-3.9512,-3.9902,-4.0215,-4.0098,-3.998,-3.9941,-3.9766,-3.9512,-3.9375,-3.959,-4.0019,-4.0254,-4.0488,-4.0527,-4.0449,-4.1016,-4.1289,-4.0859,-4.1133,-4.1582,-4.1797,-4.1699,-4.2732,-4.493,-4.6596,-4.8072,-5.0741,-5.2124,-5.2704,-5.2929,-5.2929,-5.2929,-5.3005,-5.3005,-5.3005,-5.3432,-5.303,-5.2653,-1.5737,-1.5622,-1.5472,-1.5432,-1.5479,-1.5588,-1.5662,-1.5883,-1.7835,-1.8456,-1.8412,-2.1525,-2.391,-2.5742,-2.797,-2.9182,-2.9913,-2.9913,-2.9913,-2.9913,-2.9913,-2.9913,-2.9913,-2.9913,-2.9766,-2.9526,-2.9472,-2.9366,-2.9205,-2.9366,-2.9526,-2.9619,-2.9806,-2.9913,-2.9913,-2.9913,-2.9913,-2.9913,-2.9913,-2.9913,-2.9913,-2.9913,-2.9913,-2.9913,-2.9913,-2.9913,-2.9913,-2.9913,-2.9913,-2.9913,-2.9913,-2.9913,-2.9913,-3.006,-3.0127,-2.9993,-2.9486,-2.8991,-2.8631,-2.8887,-2.9969,-3.2048,-3.4343,-3.6689,-3.8706,-4.0526,-4.1445,-4.1328,-4.1348,-4.1152,-4.0781,-4.0586,-4.0176,-3.9531,-3.9707,-3.9726,-3.9492,-4.0098,-4.0527,-4.0664,-4.0684,-4.0703,-4.0625,-4.0234,-3.9805,-3.9902,-4.0195,-4.0586,-4.0703,-4.0937,-4.1055,-4.0937,-4.1777,-4.1953,-4.1406,-4.1777,-4.2207,-4.2246,-4.2109,-4.2566,-4.436,-4.5837,-4.7614,-5.0149,-5.1552,-5.27,-5.3167,-5.3256,-5.3482,-5.3557,-5.3607,-5.3808,-5.4486,-5.4009,-5.3708,-1.5649,-1.5615,-1.5472,-1.5493,-1.5628,-1.5635,-1.571,-1.5798,-1.5753,-1.5609,-1.632,-2.0454,-2.2576,-2.2954,-2.5503,-2.7702,-2.9734,-2.9913,-2.9913,-2.9913,-2.9913,-2.9913,-2.9913,-2.9913,-2.9766,-2.9539,-2.9526,-2.9499,-2.9459,-2.9486,-2.9633,-2.9873,-2.99,-2.9913,-2.9913,-2.9913,-2.9913,-2.9913,-2.9913,-2.9913,-2.9913,-2.9913,-2.9913,-2.9913,-2.9913,-2.9913,-2.9913,-2.9913,-2.9913,-2.9913,-2.9913,-2.9913,-2.9967,-3.0434,-3.0581,-3.0314,-2.978,-2.9205,-2.8896,-3.0255,-3.2343,-3.4801,-3.6637,-3.9263,-4.1369,-4.2106,-4.2148,-4.1816,-4.1738,-4.1543,-4.1133,-4.0781,-4.041,-4.0,-3.9922,-3.9941,-3.9902,-4.0293,-4.0703,-4.1016,-4.1113,-4.1113,-4.1094,-4.041,-4.0449,-4.0723,-4.0762,-4.0703,-4.1055,-4.1191,-4.1328,-4.1641,-4.2012,-4.2148,-4.1504,-4.2168,-4.2695,-4.2695,-4.2758,-4.2862,-4.4249,-4.5863,-4.7676,-4.9306,-5.0764,-5.2089,-5.3271,-5.4059,-5.4486,-5.4712,-5.4838,-5.5164,-5.529,-5.5315,-5.4888,-1.5719,-1.535,-1.5398,-1.5499,-1.5635,-1.5635,-1.5669,-1.5696,-1.5499,-1.5357,-1.5828,-1.8719,-2.1083,-2.2739,-2.5127,-2.7521,-2.9734,-2.9913,-2.9913,-2.9913,-2.9913,-2.9913,-2.9913,-2.9913,-2.9873,-2.978,-2.9753,-2.9766,-2.9766,-2.9753,-2.9806,-2.9887,-2.9913,-2.9913,-2.9913,-2.9913,-2.9913,-2.9913,-2.9913,-2.9913,-2.9927,-2.9913,-2.9913,-2.9913,-2.9913,-2.9913,-2.9913,-2.9913,-2.9913,-2.9913,-2.9913,-3.0007,-3.0194,-3.0394,-3.0474,-3.0327,-2.9806,-2.9392,-2.9353,-2.9644,-3.1704,-3.521,-3.6442,-3.8955,-4.1963,-4.2832,-4.2656,-4.2266,-4.1933,-4.1621,-4.1269,-4.1016,-4.0879,-4.0762,-4.0703,-4.0684,-4.0723,-4.084,-4.1016,-4.1172,-4.1387,-4.1484,-4.1348,-4.1348,-4.1523,-4.1543,-4.1445,-4.1426,-4.1504,-4.1582,-4.1641,-4.1875,-4.2363,-4.2734,-4.2519,-4.2949,-4.3379,-4.3242,-4.3249,-4.3072,-4.394,-4.4927,-4.6634,-4.7465,-4.9133,-5.1308,-5.2477,-5.4177,-5.4702,-5.529,-5.5465,-5.5641,-5.5842,-5.5666,-5.5164,-1.5493,-1.5296,-1.5418,-1.554,-1.5635,-1.5635,-1.5615,-1.5554,-1.5404,-1.5646,-1.6666,-1.9056,-2.1452,-2.3849,-2.6241,-2.8256,-2.9734,-2.9913,-2.9913,-2.9913,-2.9913,-2.9913,-2.9913,-2.9913,-2.9913,-2.9913,-2.9913,-2.9913,-2.9913,-2.9913,-2.9913,-2.9913,-2.9913,-2.9913,-2.9913,-2.9913,-2.9913,-2.9927,-3.0007,-3.006,-3.0074,-3.0154,-3.0207,-3.0181,-3.0114,-3.0007,-2.9927,-2.9913,-2.9913,-2.9913,-2.9913,-3.0087,-3.0448,-3.0501,-3.0541,-3.0568,-3.0181,-2.986,-2.9931,-3.026,-3.1816,-3.4747,-3.6642,-3.9192,-4.1909,-4.277,-4.3066,-4.2676,-4.2246,-4.1836,-4.1504,-4.1387,-4.1328,-4.123,-4.1289,-4.1308,-4.1211,-4.1152,-4.123,-4.1387,-4.1601,-4.1719,-4.1836,-4.2168,-4.2285,-4.2207,-4.2109,-4.1992,-4.1992,-4.2012,-4.209,-4.2226,-4.2676,-4.3066,-4.3086,-4.3418,-4.3613,-4.3496,-4.3437,-4.3301,-4.3347,-4.4321,-4.5229,-4.5932,-4.7619,-4.9844,-5.2006,-5.3691,-5.4807,-5.5396,-5.5717,-5.5892,-5.5942,-5.5892,-5.5415,-1.5547,-1.5432,-1.5574,-1.5628,-1.5635,-1.5635,-1.5554,-1.5418,-1.5451,-1.6673,-1.8685,-2.1452,-2.3838,-2.6229,-2.8436,-2.9734,-2.9913,-2.9913,-2.9913,-2.9913,-2.9913,-2.9913,-2.9913,-2.9913,-2.9913,-2.9913,-2.9913,-2.9913,-2.9913,-2.9913,-2.9913,-2.9913,-2.9913,-2.9913,-2.9913,-2.994,-2.994,-3.0007,-3.0221,-3.0354,-3.0394,-3.0595,-3.0702,-3.0702,-3.0488,-3.0234,-2.9953,-2.9927,-2.9927,-2.994,-2.994,-3.0207,-3.0702,-3.0795,-3.0915,-3.1062,-3.0902,-3.0635,-3.0563,-3.2067,-3.2761,-3.4257,-3.733,-3.9734,-4.0691,-4.2436,-4.3476,-4.3027,-4.2617,-4.2226,-4.1894,-4.1797,-4.168,-4.1328,-4.1601,-4.1641,-4.1367,-4.1211,-4.1328,-4.168,-4.1875,-4.2187,-4.2695,-4.2773,-4.2695,-4.2871,-4.2676,-4.2441,-4.2441,-4.2422,-4.2617,-4.2871,-4.3105,-4.3301,-4.3516,-4.3691,-4.3691,-4.3672,-4.3652,-4.3574,-4.3535,-4.4136,-4.4482,-4.5345,-4.6501,-4.8741,-5.2277,-5.3985,-5.5014,-5.5701,-5.5947,-5.6093,-5.6068,-5.5993,-5.5792,-1.5547,-1.5438,-1.5574,-1.5635,-1.5635,-1.5635,-1.5554,-1.5588,-1.6913,-1.8135,-1.9604,-2.3289,-2.5491,-2.6592,-2.8809,-2.9913,-2.9913,-2.9913,-2.9913,-2.9913,-2.9913,-2.9913,-2.9913,-2.9913,-2.9913,-2.9913,-2.9913,-2.9913,-2.9913,-2.9913,-2.9913,-2.9913,-2.9913,-2.9913,-2.994,-3.0114,-3.0221,-3.0261,-3.0501,-3.0662,-3.0662,-3.0742,-3.0795,-3.0782,-3.0702,-3.0515,-3.0234,-3.0034,-3.002,-3.0207,-3.0221,-3.0488,-3.0955,-3.1089,-3.1129,-3.1183,-3.0955,-3.0768,-3.0688,-3.1368,-3.2308,-3.3799,-3.6512,-3.8787,-4.0295,-4.2326,-4.3516,-4.3125,-4.2676,-4.2344,-4.2266,-4.2226,-4.2148,-4.2051,-4.2148,-4.2187,-4.1973,-4.1738,-4.168,-4.1836,-4.2305,-4.2773,-4.3027,-4.3086,-4.3301,-4.3379,-4.3125,-4.2871,-4.2871,-4.2871,-4.2891,-4.3066,-4.3281,-4.3476,-4.3613,-4.3691,-4.3691,-4.3691,-4.3691,-4.3691,-4.3691,-4.3691,-4.4067,-4.4824,-4.5859,-4.81,-5.1685,-5.3726,-5.4794,-5.5754,-5.6022,-5.6168,-5.6194,-5.6093,-5.5917,-1.5628,-1.552,-1.5655,-1.5689,-1.5642,-1.5635,-1.552,-1.5519,-1.6891,-1.8507,-2.0714,-2.3473,-2.5866,-2.7521,-2.9182,-2.9913,-2.9913,-2.9913,-2.9913,-2.9913,-2.9913,-2.9913,-2.9913,-2.9913,-2.9913,-2.9913,-2.9913,-2.9913,-2.9913,-2.9913,-2.9913,-2.9913,-2.9913,-2.998,-3.0074,-3.0261,-3.0394,-3.0541,-3.0808,-3.0955,-3.0969,-3.1062,-3.1116,-3.1116,-3.1009,-3.0862,-3.0675,-3.0394,-3.0274,-3.0394,-3.0555,-3.0862,-3.1209,-3.1316,-3.1396,-3.1356,-3.1249,-3.1129,-3.1116,-3.1316,-3.1525,-3.3052,-3.5707,-3.7775,-3.9524,-4.177,-4.3555,-4.332,-4.293,-4.2676,-4.2676,-4.2676,-4.2676,-4.2676,-4.2656,-4.2598,-4.2441,-4.2051,-4.2031,-4.2266,-4.2754,-4.3086,-4.334,-4.3496,-4.3691,-4.3652,-4.3476,-4.3301,-4.332,-4.332,-4.3301,-4.332,-4.3496,-4.3613,-4.3672,-4.3691,-4.3691,-4.3691,-4.3691,-4.3691,-4.3691,-4.3691,-4.3962,-4.4435,-4.5434,-4.7645,-5.0762,-5.2622,-5.3876,-5.4819,-5.6047,-5.6219,-5.6219,-5.6219,-5.6068,-1.5764,-1.5662,-1.5791,-1.5764,-1.5649,-1.5635,-1.5472,-1.5215,-1.5924,-1.8507,-2.182,-2.3473,-2.5866,-2.9169,-2.9913,-2.9913,-2.9913,-2.9913,-2.9913,-2.9913,-2.9913,-2.9913,-2.9913,-2.9913,-2.9913,-2.9913,-2.9913,-2.9913,-2.9913,-2.9913,-2.9927,-2.9967,-2.9993,-3.01,-3.0341,-3.0394,-3.0595,-3.0822,-3.1102,-3.1249,-3.1263,-3.149,-3.1623,-3.1597,-3.1383,-3.1223,-3.1116,-3.0889,-3.0675,-3.0528,-3.0955,-3.1223,-3.1303,-3.153,-3.1637,-3.1637,-3.1664,-3.161,-3.165,-3.157,-3.145,-3.1702,-3.5166,-3.7595,-3.8056,-4.1321,-4.373,-4.3711,-4.3301,-4.3086,-4.3144,-4.3066,-4.3086,-4.3144,-4.3008,-4.2773,-4.25,-4.2129,-4.2226,-4.2793,-4.3105,-4.3242,-4.3594,-4.3672,-4.3691,-4.3691,-4.3652,-4.3633,-4.3613,-4.3594,-4.3672,-4.3691,-4.3672,-4.3672,-4.3691,-4.3691,-4.3691,-4.3691,-4.3691,-4.3691,-4.3691,-4.3691,-4.3691,-4.433,-4.4965,-4.7326,-4.9204,-5.0916,-5.2949,-5.4497,-5.5435,-5.5901,-5.6219,-5.6219,-5.6194,-1.5771,-1.5655,-1.5791,-1.5771,-1.5649,-1.5635,-1.5466,-1.5758,-1.9056,-2.0899,-2.3106,-2.6411,-2.8256,-2.9913,-2.9913,-2.9913,-2.9913,-2.9913,-2.9913,-2.9913,-2.9913,-2.9913,-2.9913,-2.9913,-2.9913,-2.9913,-2.9913,-2.9913,-2.9913,-2.994,-3.0047,-3.0234,-3.0247,-3.0394,-3.0648,-3.0875,-3.1022,-3.1142,-3.1396,-3.1543,-3.1557,-3.161,-3.1664,-3.1664,-3.1583,-3.1436,-3.1249,-3.1156,-3.1089,-3.1036,-3.1343,-3.1557,-3.1543,-3.1623,-3.1677,-3.1677,-3.1677,-3.1677,-3.1677,-3.1677,-3.153,-3.161,-3.5091,-3.7578,-3.7408,-4.1189,-4.3555,-4.3965,-4.3574,-4.3359,-4.3769,-4.3457,-4.3418,-4.3808,-4.3242,-4.2754,-4.2832,-4.2558,-4.248,-4.2988,-4.334,-4.3555,-4.3652,-4.3691,-4.3691,-4.3691,-4.3691,-4.3691,-4.3691,-4.3691,-4.3691,-4.3691,-4.3691,-4.3691,-4.3691,-4.3691,-4.3691,-4.3691,-4.3691,-4.3691,-4.3691,-4.3691,-4.3691,-4.3856,-4.4186,-4.5758,-4.7486,-4.9204,-5.1378,-5.3552,-5.4967,-5.5582,-5.6047,-5.6219,-5.6219,-1.5805,-1.5737,-1.5818,-1.5771,-1.5635,-1.5574,-1.5404,-1.5953,-1.9242,-2.1636,-2.3106,-2.6592,-2.8989,-2.9913,-2.9913,-2.9913,-2.9913,-2.9913,-2.9913,-2.9913,-2.9913,-2.9913,-2.9913,-2.9913,-2.9913,-2.9913,-2.9913,-2.9993,-3.0087,-3.01,-3.0274,-3.0488,-3.0541,-3.0688,-3.0969,-3.1129,-3.1289,-3.141,-3.1583,-3.1677,-3.1677,-3.1677,-3.1677,-3.1677,-3.1677,-3.157,-3.1423,-3.141,-3.141,-3.1436,-3.157,-3.1677,-3.1677,-3.1677,-3.1677,-3.1677,-3.1677,-3.1677,-3.1677,-3.1677,-3.1597,-3.1919,-3.4651,-3.5732,-3.6676,-3.9748,-4.2496,-4.265,-4.301,-4.3769,-4.4101,-4.375,-4.375,-4.4082,-4.3379,-4.2988,-4.3535,-4.3086,-4.2969,-4.3262,-4.3535,-4.3691,-4.3691,-4.3691,-4.3691,-4.3691,-4.3691,-4.3691,-4.3691,-4.3691,-4.3691,-4.3691,-4.3691,-4.3691,-4.3691,-4.3691,-4.3691,-4.3691,-4.3691,-4.3691,-4.3691,-4.3691,-4.3691,-4.3691,-4.3691,-4.433,-4.6223,-4.7804,-4.9361,-5.1378,-5.3401,-5.4794,-5.4967,-5.6219,-5.6219,-1.5859,-1.5832,-1.5845,-1.5757,-1.5601,-1.5472,-1.5337,-1.5758,-1.7949,-2.0344,-2.2739,-2.5127,-2.7702,-2.9913,-2.9913,-2.9913,-2.9913,-2.9913,-2.9967,-2.9993,-3.0047,-3.0087,-3.0114,-3.0047,-3.002,-3.002,-2.9993,-3.0181,-3.0354,-3.0408,-3.0568,-3.0768,-3.0835,-3.0996,-3.1223,-3.1289,-3.1423,-3.1597,-3.165,-3.1677,-3.1677,-3.1677,-3.1677,-3.1677,-3.1677,-3.1664,-3.1637,-3.165,-3.165,-3.1664,-3.1677,-3.1677,-3.1677,-3.1677,-3.1677,-3.1677,-3.1677,-3.1677,-3.1677,-3.1677,-3.1677,-3.211,-3.3271,-3.4186,-3.528,-3.8336,-4.1074,-4.1494,-4.2648,-4.3818,-4.4101,-4.3926,-4.4062,-4.4316,-4.3711,-4.3691,-4.4062,-4.3652,-4.3242,-4.3613,-4.3691,-4.3691,-4.3691,-4.3691,-4.3691,-4.3691,-4.3691,-4.3691,-4.3691,-4.3691,-4.3691,-4.3691,-4.3691,-4.3691,-4.3691,-4.3691,-4.3691,-4.3691,-4.3691,-4.3691,-4.3691,-4.3691,-4.3691,-4.3691,-4.3691,-4.433,-4.5434,-4.6846,-4.7942,-4.9518,-5.1838,-5.2774,-5.3401,-5.5435,-5.6219,-1.59,-1.5696,-1.5805,-1.5703,-1.5479,-1.5425,-1.5323,-1.5368,-1.7763,-2.0344,-2.2739,-2.5127,-2.7521,-2.9913,-2.9913,-2.9913,-2.9913,-2.994,-3.0034,-3.0287,-3.0528,-3.0595,-3.0541,-3.0381,-3.0274,-3.0314,-3.0501,-3.0635,-3.0688,-3.0728,-3.0849,-3.1102,-3.1156,-3.1276,-3.1517,-3.153,-3.1583,-3.1664,-3.1677,-3.1677,-3.1677,-3.1677,-3.1677,-3.1677,-3.1677,-3.1677,-3.1677,-3.1677,-3.1677,-3.1677,-3.1677,-3.1677,-3.1677,-3.1677,-3.1677,-3.1677,-3.1677,-3.1677,-3.1677,-3.1677,-3.1677,-3.1799,-3.2959,-3.4171,-3.4518,-3.8033,-4.0583,-4.1695,-4.3103,-4.3787,-4.3945,-4.4121,-4.4394,-4.459,-4.4394,-4.4238,-4.4551,-4.3808,-4.3379,-4.3574,-4.3691,-4.3691,-4.3691,-4.3691,-4.3691,-4.3691,-4.3691,-4.3691,-4.3691,-4.3691,-4.3691,-4.3691,-4.3691,-4.3691,-4.3691,-4.3691,-4.3691,-4.3691,-4.3691,-4.3691,-4.3691,-4.3691,-4.3691,-4.3691,-4.3691,-4.433,-4.4965,-4.5758,-4.6867,-4.8575,-5.0142,-5.1532,-5.2949,-5.4819,-5.6219,-1.5825,-1.573,-1.5676,-1.5554,-1.5411,-1.533,-1.5255,-1.5744,-1.7763,-2.0344,-2.2739,-2.5127,-2.7521,-2.9913,-2.9913,-2.9913,-2.9953,-3.0074,-3.0287,-3.0541,-3.0728,-3.0782,-3.0822,-3.0768,-3.0715,-3.0621,-3.0702,-3.0849,-3.0955,-3.1022,-3.1142,-3.141,-3.1423,-3.149,-3.165,-3.1677,-3.1664,-3.1664,-3.1677,-3.1677,-3.1677,-3.1677,-3.1677,-3.1677,-3.1677,-3.1677,-3.1677,-3.1677,-3.1677,-3.1677,-3.1677,-3.1677,-3.1677,-3.1677,-3.1677,-3.1677,-3.1677,-3.1677,-3.1677,-3.1677,-3.1677,-3.1664,-3.239,-3.2493,-3.322,-3.5822,-3.8275,-3.9844,-4.1451,-4.2818,-4.3623,-4.4121,-4.457,-4.4844,-4.4648,-4.4609,-4.4746,-4.4043,-4.3437,-4.3652,-4.3691,-4.3691,-4.3691,-4.3691,-4.3691,-4.3691,-4.3691,-4.3691,-4.3691,-4.3691,-4.3691,-4.3691,-4.3691,-4.3691,-4.3691,-4.3691,-4.3691,-4.3691,-4.3691,-4.3691,-4.3691,-4.3691,-4.3691,-4.3691,-4.3691,-4.3691,-4.433,-4.5128,-4.5596,-4.6384,-4.7942,-5.0297,-5.2471,-5.4199,-5.5582,-1.5716,-1.5764,-1.5513,-1.5398,-1.5357,-1.5242,-1.5187,-1.5556,-1.7398,-1.9798,-2.2556,-2.4763,-2.6966,-2.9362,-2.9913,-2.9927,-3.0074,-3.0381,-3.0688,-3.0849,-3.0982,-3.1022,-3.1049,-3.1142,-3.1156,-3.0942,-3.0982,-3.1116,-3.1249,-3.1303,-3.1396,-3.1623,-3.1664,-3.165,-3.1664,-3.1677,-3.1677,-3.1677,-3.1677,-3.1677,-3.1677,-3.1677,-3.1677,-3.1677,-3.1677,-3.1677,-3.1677,-3.1677,-3.1677,-3.1677,-3.1677,-3.1677,-3.1677,-3.1677,-3.1677,-3.1677,-3.1677,-3.1677,-3.1677,-3.1677,-3.1664,-3.165,-3.1183,-3.1087,-3.1532,-3.3401,-3.5864,-3.8317,-4.054,-4.2612,-4.3574,-4.4277,-4.4707,-4.4961,-4.4766,-4.4707,-4.4766,-4.4258,-4.3769,-4.3691,-4.3691,-4.3691,-4.3691,-4.3691,-4.3691,-4.3691,-4.3691,-4.3691,-4.3691,-4.3691,-4.3691,-4.3691,-4.3691,-4.3691,-4.3691,-4.3691,-4.3691,-4.3691,-4.3691,-4.3691,-4.3691,-4.3691,-4.3691,-4.3691,-4.3691,-4.3691,-4.3691,-4.4166,-4.4494,-4.4494,-4.6545,-4.983,-5.2014,-5.3726,-5.4967,-1.5689,-1.5479,-1.5432,-1.5337,-1.5228,-1.5194,-1.5181,-1.5181,-1.5737,-1.8507,-2.2188,-2.3106,-2.5855,-2.8809,-2.9913,-3.0047,-3.0381,-3.0768,-3.1062,-3.1183,-3.1343,-3.145,-3.145,-3.149,-3.1517,-3.1543,-3.1476,-3.1503,-3.1557,-3.161,-3.1597,-3.1664,-3.1677,-3.1677,-3.1677,-3.1677,-3.1677,-3.1677,-3.1677,-3.1677,-3.1677,-3.1677,-3.1677,-3.1677,-3.1677,-3.1677,-3.1677,-3.1677,-3.1677,-3.1677,-3.1677,-3.1677,-3.1677,-3.1677,-3.1677,-3.1677,-3.1677,-3.1677,-3.1677,-3.1677,-3.1677,-3.1597,-3.1316,-3.1142,-3.1661,-3.3059,-3.5137,-3.8313,-4.1539,-4.4218,-4.4168,-4.448,-4.5098,-4.5312,-4.5176,-4.4922,-4.4844,-4.4297,-4.373,-4.3691,-4.3691,-4.3691,-4.3691,-4.3691,-4.3691,-4.3691,-4.3691,-4.3691,-4.3691,-4.3691,-4.3691,-4.3691,-4.3691,-4.3691,-4.3691,-4.3691,-4.3691,-4.3691,-4.3691,-4.3691,-4.3691,-4.3691,-4.3691,-4.3691,-4.3691,-4.3691,-4.3691,-4.3691,-4.3856,-4.4021,-4.6846,-4.9853,-5.0916,-5.2319,-5.4646,-1.5608,-1.5404,-1.533,-1.5248,-1.5187,-1.5181,-1.5181,-1.5181,-1.5368,-1.7219,-2.0159,-2.2004,-2.4398,-2.7558,-2.9726,-3.0381,-3.0808,-3.1049,-3.1303,-3.145,-3.1597,-3.1677,-3.1677,-3.1677,-3.1677,-3.1664,-3.1664,-3.1677,-3.1677,-3.1664,-3.1677,-3.1677,-3.1677,-3.1677,-3.1677,-3.1677,-3.1677,-3.1677,-3.1677,-3.1677,-3.1677,-3.1677,-3.1677,-3.1677,-3.1677,-3.1677,-3.1677,-3.1677,-3.1677,-3.1677,-3.1677,-3.1677,-3.1677,-3.1677,-3.1677,-3.1677,-3.1677,-3.1677,-3.1677,-3.1677,-3.1677,-3.1637,-3.1396,-3.1249,-3.141,-3.2473,-3.425,-3.6961,-4.2039,-4.4547,-4.2706,-4.428,-4.541,-4.5527,-4.5293,-4.5058,-4.4824,-4.418,-4.3867,-4.3691,-4.3691,-4.3691,-4.3691,-4.3691,-4.3691,-4.3691,-4.3691,-4.3691,-4.3691,-4.3691,-4.3691,-4.3691,-4.3691,-4.3691,-4.3691,-4.3691,-4.3691,-4.3691,-4.3691,-4.3691,-4.3691,-4.3691,-4.3691,-4.3691,-4.3691,-4.3691,-4.3691,-4.3691,-4.3691,-4.3856,-4.6223,-4.8439,-4.9361,-5.0916,-5.3401,-1.5506,-1.5357,-1.5235,-1.5181,-1.5181,-1.5181,-1.5181,-1.5181,-1.5181,-1.6666,-1.9056,-2.0899,-2.3321,-2.6382,-2.909,-3.0795,-3.1236,-3.1276,-3.1463,-3.1597,-3.1664,-3.1677,-3.1677,-3.1677,-3.1677,-3.1677,-3.1677,-3.1677,-3.1677,-3.1677,-3.1677,-3.1677,-3.1677,-3.1677,-3.1677,-3.1677,-3.1677,-3.1677,-3.1677,-3.1677,-3.1677,-3.1677,-3.1677,-3.1677,-3.1677,-3.1677,-3.1677,-3.1677,-3.1677,-3.1677,-3.1677,-3.1677,-3.1677,-3.1677,-3.1677,-3.1677,-3.1677,-3.1677,-3.1677,-3.1677,-3.1677,-3.1664,-3.145,-3.1343,-3.1691,-3.2239,-3.3201,-3.5227,-4.0155,-4.3898,-4.2321,-4.3956,-4.5394,-4.5586,-4.5312,-4.4941,-4.4687,-4.4238,-4.3808,-4.3691,-4.3691,-4.3691,-4.3691,-4.3691,-4.3691,-4.3691,-4.3691,-4.3691,-4.3691,-4.3691,-4.3691,-4.3691,-4.3691,-4.3691,-4.3691,-4.3691,-4.3691,-4.3691,-4.3691,-4.3691,-4.3691,-4.3691,-4.3691,-4.3691,-4.3691,-4.3691,-4.3691,-4.3691,-4.3691,-4.433,-4.5758,-4.7027,-4.8122,-4.9674,-5.1861,-1.535,-1.5208,-1.5187,-1.5181,-1.5181,-1.5181,-1.5181,-1.5181,-1.5181,-1.6658,-1.8685,-1.9427,-2.2288,-2.6433,-2.9525,-3.0942,-3.1289,-3.1476,-3.1597,-3.1664,-3.1677,-3.1677,-3.1677,-3.1677,-3.1677,-3.1677,-3.1677,-3.1677,-3.1677,-3.1677,-3.1677,-3.1677,-3.1677,-3.1677,-3.1677,-3.1677,-3.1677,-3.1677,-3.1677,-3.1677,-3.1677,-3.1677,-3.1677,-3.1677,-3.1677,-3.1677,-3.1677,-3.1677,-3.1677,-3.1677,-3.1677,-3.1677,-3.1677,-3.1677,-3.1677,-3.1677,-3.1677,-3.1677,-3.1677,-3.1704,-3.169,-3.169,-3.1623,-3.161,-3.1921,-3.3327,-3.4212,-3.423,-3.9481,-4.1864,-4.1749,-4.3974,-4.526,-4.5355,-4.4931,-4.4694,-4.4531,-4.418,-4.3769,-4.3691,-4.3691,-4.3691,-4.3691,-4.3691,-4.3691,-4.3691,-4.3691,-4.3691,-4.3691,-4.3691,-4.3691,-4.3691,-4.3691,-4.3691,-4.3691,-4.3691,-4.3691,-4.3691,-4.3691,-4.3691,-4.3691,-4.3691,-4.3691,-4.3691,-4.3691,-4.3691,-4.3691,-4.3691,-4.3691,-4.4166,-4.5128,-4.6082,-4.6867,-4.8575,-5.0297,-1.5371,-1.5303,-1.5215,-1.5181,-1.5181,-1.5181,-1.5181,-1.5181,-1.5181,-1.5737,-1.7025,-1.8313,-2.1811,-2.6283,-2.858,-2.996,-3.1086,-3.161,-3.1664,-3.1677,-3.1677,-3.1677,-3.1677,-3.1677,-3.1677,-3.1677,-3.1677,-3.1677,-3.1677,-3.1677,-3.1677,-3.1677,-3.1677,-3.1677,-3.1677,-3.1677,-3.1677,-3.1677,-3.1677,-3.1677,-3.1677,-3.1677,-3.1677,-3.1677,-3.1677,-3.1677,-3.1677,-3.1677,-3.1677,-3.1677,-3.1677,-3.1677,-3.1677,-3.1677,-3.1677,-3.1677,-3.1837,-3.1837,-3.1717,-3.1824,-3.181,-3.1757,-3.1784,-3.1837,-3.2259,-3.3514,-3.4085,-3.2704,-3.8529,-4.086,-4.0631,-4.2347,-4.4159,-4.4741,-4.4186,-4.4296,-4.4039,-4.3984,-4.3691,-4.3691,-4.3691,-4.3691,-4.3691,-4.3691,-4.3691,-4.3691,-4.3691,-4.3691,-4.3691,-4.3691,-4.3691,-4.3691,-4.3691,-4.3691,-4.3691,-4.3691,-4.3691,-4.3691,-4.3691,-4.3691,-4.3691,-4.3691,-4.3691,-4.3691,-4.3691,-4.3691,-4.3691,-4.3691,-4.3691,-4.4021,-4.433,-4.4965,-4.5596,-4.6706,-4.8417,-1.5466,-1.5452,-1.5262,-1.5181,-1.5181,-1.5181,-1.5181,-1.5181,-1.5181,-1.5181,-1.5946,-1.7866,-2.1452,-2.4985,-2.68,-2.876,-3.0674,-3.1284,-3.1677,-3.1677,-3.1677,-3.1677,-3.1677,-3.1677,-3.1677,-3.1677,-3.1677,-3.1677,-3.1677,-3.1677,-3.1677,-3.1677,-3.1677,-3.1677,-3.1677,-3.1677,-3.1677,-3.1677,-3.1677,-3.1677,-3.1677,-3.1677,-3.1677,-3.1677,-3.1677,-3.1677,-3.1677,-3.1677,-3.1677,-3.1677,-3.1677,-3.1677,-3.1677,-3.1677,-3.1744,-3.181,-3.1984,-3.2051,-3.2024,-3.2078,-3.2024,-3.1931,-3.1824,-3.1837,-3.1867,-3.3228,-3.3585,-3.1556,-3.6079,-3.8448,-3.8694,-4.001,-4.2066,-4.2886,-4.2691,-4.3159,-4.3626,-4.3427,-4.3526,-4.3691,-4.3691,-4.3691,-4.3691,-4.3691,-4.3691,-4.3691,-4.3691,-4.3691,-4.3691,-4.3691,-4.3691,-4.3691,-4.3691,-4.3691,-4.3691,-4.3691,-4.3691,-4.3691,-4.3691,-4.3691,-4.3691,-4.3691,-4.3691,-4.3691,-4.3691,-4.3691,-4.3691,-4.3691,-4.3691,-4.3856,-4.4021,-4.3856,-4.433,-4.5454,-4.6545,-1.5622,-1.5601,-1.5303,-1.5181,-1.5181,-1.5181,-1.5181,-1.5181,-1.5181,-1.5187,-1.5612,-1.7899,-1.9454,-2.1413,-2.5057,-2.7337,-2.8368,-3.0687,-3.1284,-3.1677,-3.1677,-3.1677,-3.1677,-3.1677,-3.1677,-3.1677,-3.1677,-3.1677,-3.1677,-3.1677,-3.1677,-3.1677,-3.1677,-3.1677,-3.1677,-3.1677,-3.1677,-3.1677,-3.1677,-3.1677,-3.1677,-3.1677,-3.1677,-3.1677,-3.1677,-3.1677,-3.1677,-3.1677,-3.1677,-3.1677,-3.1677,-3.1677,-3.1677,-3.1717,-3.1824,-3.1984,-3.2171,-3.2265,-3.2345,-3.2358,-3.2305,-3.2091,-3.1877,-3.1744,-3.1853,-3.1396,-3.1249,-3.161,-3.5074,-3.5959,-3.6401,-3.759,-3.9925,-4.0755,-4.0753,-4.0916,-4.1767,-4.2869,-4.3029,-4.3526,-4.3691,-4.3691,-4.3691,-4.3691,-4.3691,-4.3691,-4.3691,-4.3691,-4.3691,-4.3691,-4.3691,-4.3691,-4.3691,-4.3691,-4.3691,-4.3691,-4.3691,-4.3691,-4.3691,-4.3691,-4.3691,-4.3691,-4.3691,-4.3691,-4.3691,-4.3691,-4.3691,-4.3691,-4.3691,-4.3691,-4.3691,-4.3691,-4.3691,-4.4494,-4.5454,-1.5635,-1.5608,-1.5309,-1.5181,-1.5181,-1.5181,-1.5181,-1.5181,-1.5181,-1.5242,-1.5337,-1.6678,-1.8206,-2.0113,-2.1633,-2.5045,-2.7588,-2.8752,-3.0306,-3.1284,-3.1677,-3.1677,-3.1677,-3.1677,-3.1677,-3.1677,-3.1677,-3.1677,-3.1677,-3.1677,-3.1677,-3.1677,-3.1677,-3.1677,-3.1677,-3.1677,-3.1677,-3.1677,-3.1677,-3.1677,-3.1677,-3.1677,-3.1677,-3.1677,-3.1677,-3.1677,-3.1677,-3.1677,-3.1677,-3.1677,-3.1677,-3.169,-3.1744,-3.1837,-3.1998,-3.2185,-3.2398,-3.2559,-3.2519,-3.2532,-3.2412,-3.2131,-3.1851,-3.1677,-3.165,-3.1396,-3.137,-3.2093,-3.3315,-3.4537,-3.5329,-3.6129,-3.7289,-3.8184,-3.8653,-3.8697,-3.9766,-4.121,-4.1992,-4.2159,-4.3176,-4.3691,-4.3691,-4.3691,-4.3691,-4.3691,-4.3691,-4.3691,-4.3691,-4.3691,-4.3691,-4.3691,-4.3691,-4.3691,-4.3691,-4.3691,-4.3691,-4.3691,-4.3691,-4.3691,-4.3691,-4.3691,-4.3691,-4.3691,-4.3691,-4.3691,-4.3691,-4.3691,-4.3691,-4.3691,-4.3691,-4.3691,-4.3691,-4.3691,-4.433,-1.5635,-1.5601,-1.5309,-1.5181,-1.5181,-1.5181,-1.5181,-1.5181,-1.5181,-1.5303,-1.5486,-1.5635,-1.6745,-1.8442,-1.9911,-2.2312,-2.5829,-2.7576,-2.9529,-3.089,-3.1677,-3.1677,-3.1677,-3.1677,-3.1677,-3.1677,-3.1677,-3.1677,-3.1677,-3.1677,-3.1677,-3.1677,-3.1677,-3.1677,-3.1677,-3.1677,-3.1677,-3.1677,-3.1677,-3.1677,-3.1677,-3.1677,-3.1677,-3.1677,-3.1677,-3.1677,-3.1677,-3.1677,-3.1677,-3.1704,-3.1757,-3.1797,-3.1904,-3.2038,-3.2238,-3.2465,-3.2666,-3.2853,-3.2719,-3.2465,-3.2345,-3.2091,-3.1837,-3.1704,-3.1597,-3.141,-3.1356,-3.1759,-3.3056,-3.3886,-3.419,-3.4391,-3.5024,-3.5965,-3.5973,-3.6225,-3.8011,-3.9413,-4.0259,-4.0764,-4.2141,-4.3691,-4.3691,-4.3691,-4.3691,-4.3691,-4.3691,-4.3691,-4.3691,-4.3691,-4.3691,-4.3691,-4.3691,-4.3691,-4.3691,-4.3691,-4.3691,-4.3691,-4.3691,-4.3691,-4.3691,-4.3691,-4.3691,-4.3691,-4.3691,-4.3691,-4.3691,-4.3691,-4.3691,-4.3691,-4.3691,-4.3691,-4.3691,-4.3691,-4.3691,-1.5635,-1.5601,-1.5309,-1.5181,-1.5181,-1.5181,-1.5181,-1.5187,-1.5201,-1.5364,-1.5628,-1.5778,-1.5913,-1.7012,-1.8608,-2.1343,-2.4269,-2.6602,-2.8943,-3.1093,-3.1677,-3.1677,-3.1677,-3.1677,-3.1677,-3.1677,-3.1677,-3.1677,-3.1677,-3.1677,-3.1677,-3.1677,-3.1677,-3.1677,-3.1677,-3.1677,-3.1677,-3.1677,-3.1677,-3.1677,-3.1677,-3.1677,-3.1677,-3.1677,-3.1677,-3.1677,-3.1677,-3.1677,-3.169,-3.177,-3.1931,-3.2024,-3.2131,-3.2385,-3.2625,-3.2866,-3.2919,-3.2946,-3.2893,-3.2398,-3.2131,-3.2024,-3.177,-3.169,-3.161,-3.1463,-3.137,-3.1813,-3.2001,-3.1974,-3.1921,-3.2178,-3.3301,-3.3509,-3.3518,-3.3782,-3.5589,-3.8032,-3.8885,-3.8885,-4.1453,-4.3526,-4.3526,-4.3526,-4.3691,-4.3691,-4.3691,-4.3691,-4.3691,-4.3691,-4.3691,-4.3691,-4.3691,-4.3691,-4.3691,-4.3691,-4.3691,-4.3691,-4.3691,-4.3691,-4.3691,-4.3691,-4.3691,-4.3691,-4.3691,-4.3691,-4.3691,-4.3691,-4.3691,-4.3691,-4.3691,-4.3691,-4.3691,-4.3691,-4.3691,-1.5635,-1.5608,-1.5309,-1.5181,-1.5181,-1.5181,-1.5181,-1.5201,-1.5303,-1.5506,-1.5744,-1.5839,-1.594,-1.6432,-1.7253,-1.979,-2.3686,-2.4463,-2.6987,-3.1474,-3.1677,-3.1677,-3.1677,-3.1677,-3.1677,-3.1677,-3.1677,-3.1677,-3.1677,-3.1677,-3.1677,-3.1677,-3.1677,-3.1677,-3.1677,-3.1677,-3.1677,-3.1677,-3.1677,-3.1677,-3.1677,-3.1677,-3.1677,-3.1677,-3.1677,-3.1704,-3.1717,-3.1717,-3.181,-3.1944,-3.2131,-3.2238,-3.2398,-3.2679,-3.2866,-3.2973,-3.2959,-3.2772,-3.2465,-3.2024,-3.1837,-3.1797,-3.1784,-3.1704,-3.1637,-3.1597,-3.161,-3.1637,-3.157,-3.157,-3.184,-3.1853,-3.2322,-3.1868,-3.1606,-3.1512,-3.2761,-3.589,-3.7518,-3.7003,-3.8374,-4.0764,-4.1639,-4.2659,-4.301,-4.3691,-4.3691,-4.3691,-4.3691,-4.3691,-4.3691,-4.3691,-4.3691,-4.3691,-4.3691,-4.3691,-4.3691,-4.3691,-4.3691,-4.3691,-4.3691,-4.3633,-4.3594,-4.3535,-4.3613,-4.3691,-4.3691,-4.3691,-4.3691,-4.3691,-4.3691,-4.3691,-4.3691,-4.3691,-4.3691,-1.5635,-1.5601,-1.5309,-1.5181,-1.5181,-1.5181,-1.5208,-1.5282,-1.5425,-1.5628,-1.5825,-1.59,-1.5981,-1.6062,-1.6474,-1.9018,-2.3491,-2.4074,-2.6795,-3.108,-3.1677,-3.1677,-3.1677,-3.1677,-3.1677,-3.1677,-3.1677,-3.1677,-3.1677,-3.1677,-3.1677,-3.1677,-3.1677,-3.1677,-3.1677,-3.1677,-3.1677,-3.1677,-3.1677,-3.1677,-3.1677,-3.1677,-3.1677,-3.1704,-3.1757,-3.1837,-3.1851,-3.1931,-3.2051,-3.2211,-3.2358,-3.2478,-3.2719,-3.2933,-3.3053,-3.3013,-3.2719,-3.2505,-3.2158,-3.1864,-3.177,-3.1864,-3.181,-3.1757,-3.1744,-3.1757,-3.1717,-3.1717,-3.1677,-3.1677,-3.1664,-3.1677,-3.141,-3.0969,-3.0688,-3.0603,-3.1153,-3.4097,-3.562,-3.5099,-3.614,-3.8203,-3.9921,-4.1286,-4.2326,-4.301,-4.3691,-4.3691,-4.3691,-4.3691,-4.3691,-4.3691,-4.3691,-4.3691,-4.3691,-4.3691,-4.3691,-4.3691,-4.3691,-4.3691,-4.3457,-4.3359,-4.3359,-4.3359,-4.334,-4.3398,-4.3633,-4.3691,-4.3672,-4.3672,-4.3691,-4.3691,-4.3691,-4.3691,-4.3691,-1.5635,-1.5594,-1.5309,-1.5181,-1.5181,-1.5194,-1.5282,-1.5425,-1.5581,-1.573,-1.5872,-1.6015,-1.6069,-1.6076,-1.6083,-1.901,-2.3101,-2.388,-2.718,-3.0306,-3.1677,-3.1677,-3.1677,-3.1677,-3.1677,-3.1677,-3.1677,-3.1677,-3.1677,-3.1677,-3.1677,-3.1677,-3.1677,-3.1704,-3.173,-3.1757,-3.1757,-3.177,-3.1851,-3.1864,-3.1891,-3.1824,-3.1851,-3.1904,-3.2011,-3.2091,-3.2171,-3.2291,-3.2438,-3.2612,-3.2786,-3.2893,-3.3053,-3.324,-3.316,-3.2879,-3.2385,-3.2211,-3.2024,-3.177,-3.1851,-3.1998,-3.2104,-3.1944,-3.1864,-3.1904,-3.1864,-3.1757,-3.1677,-3.1677,-3.1677,-3.153,-3.137,-3.1049,-3.0768,-3.0603,-3.0573,-3.182,-3.3204,-3.3892,-3.5273,-3.683,-3.8357,-3.9734,-4.0782,-4.1974,-4.2659,-4.3361,-4.3361,-4.3691,-4.3691,-4.3691,-4.3691,-4.3691,-4.3691,-4.3691,-4.3691,-4.3691,-4.3672,-4.3633,-4.3359,-4.3105,-4.3066,-4.3027,-4.2988,-4.3105,-4.3379,-4.3535,-4.3633,-4.3652,-4.3691,-4.3691,-4.3691,-4.3691,-4.3691,-1.5635,-1.5601,-1.5309,-1.5181,-1.5201,-1.5296,-1.5432,-1.5581,-1.573,-1.5879,-1.6022,-1.6056,-1.6083,-1.6083,-1.6083,-1.9396,-2.2126,-2.4657,-2.7384,-2.9721,-3.1284,-3.1474,-3.1677,-3.1677,-3.1677,-3.1677,-3.1677,-3.1677,-3.1677,-3.1677,-3.1677,-3.1677,-3.1704,-3.1784,-3.1904,-3.1984,-3.1998,-3.2038,-3.2158,-3.2185,-3.2225,-3.2211,-3.2225,-3.2265,-3.2332,-3.2412,-3.2465,-3.2532,-3.2666,-3.2866,-3.2933,-3.2986,-3.3,-3.304,-3.2919,-3.2412,-3.2158,-3.2024,-3.1864,-3.1917,-3.2038,-3.2171,-3.2291,-3.2238,-3.2118,-3.2011,-3.1971,-3.1784,-3.1677,-3.1677,-3.1597,-3.1463,-3.1249,-3.0969,-3.0688,-3.0536,-3.0546,-3.1137,-3.2351,-3.2174,-3.338,-3.4766,-3.6296,-3.7347,-3.8374,-4.0259,-4.1453,-4.1974,-4.301,-4.3176,-4.3691,-4.3691,-4.3691,-4.3691,-4.3691,-4.3691,-4.3691,-4.3691,-4.3672,-4.3535,-4.3183,-4.2949,-4.2793,-4.2676,-4.2598,-4.2812,-4.3164,-4.3262,-4.3301,-4.3594,-4.3691,-4.3691,-4.3691,-4.3691,-4.3691,-1.5608,-1.552,-1.5289,-1.5181,-1.5221,-1.5411,-1.556,-1.5655,-1.5791,-1.594,-1.6069,-1.6083,-1.6083,-1.6083,-1.6275,-1.8228,-2.193,-2.2321,-2.4851,-2.8752,-3.0115,-3.089,-3.1284,-3.1664,-3.1677,-3.1677,-3.1677,-3.1677,-3.169,-3.1677,-3.1677,-3.1677,-3.1744,-3.1931,-3.2104,-3.2318,-3.2465,-3.2478,-3.2505,-3.2545,-3.2559,-3.2572,-3.2545,-3.2585,-3.2639,-3.2706,-3.2746,-3.2772,-3.2973,-3.308,-3.308,-3.2986,-3.2906,-3.2786,-3.2572,-3.2158,-3.2118,-3.2038,-3.1971,-3.2158,-3.2291,-3.2412,-3.2492,-3.2412,-3.2291,-3.2171,-3.1957,-3.1744,-3.1704,-3.165,-3.1543,-3.141,-3.1116,-3.0822,-3.0541,-3.0261,-3.0614,-3.1165,-3.0959,-3.0437,-3.1137,-3.2351,-3.3556,-3.4766,-3.614,-3.8032,-3.8885,-3.9225,-4.0782,-4.2493,-4.3176,-4.3691,-4.3691,-4.3691,-4.3691,-4.3691,-4.3691,-4.3691,-4.3691,-4.3496,-4.3066,-4.2715,-4.25,-4.2324,-4.2187,-4.2461,-4.2754,-4.2832,-4.291,-4.3223,-4.3496,-4.3496,-4.3555,-4.3691,-4.3691,-1.5554,-1.5404,-1.5262,-1.5228,-1.5262,-1.5533,-1.5662,-1.5676,-1.5825,-1.5947,-1.6069,-1.6083,-1.6083,-1.6083,-1.6275,-1.7642,-1.9978,-2.0755,-2.2897,-2.7384,-2.7576,-2.8356,-2.9721,-3.1093,-3.07,-3.1093,-3.169,-3.1704,-3.173,-3.1824,-3.1891,-3.1757,-3.1998,-3.2211,-3.2358,-3.2652,-3.2839,-3.2919,-3.2812,-3.2759,-3.2706,-3.2652,-3.2612,-3.2706,-3.2866,-3.3013,-3.308,-3.3213,-3.34,-3.328,-3.316,-3.2986,-3.2692,-3.2398,-3.2144,-3.2118,-3.2104,-3.2144,-3.2198,-3.2412,-3.2612,-3.2692,-3.2692,-3.2505,-3.2332,-3.2198,-3.1971,-3.1744,-3.1677,-3.1677,-3.1597,-3.1289,-3.0969,-3.0715,-3.0448,-3.0194,-3.0353,-3.0616,-3.0437,-3.0093,-3.0258,-3.1301,-3.1997,-3.3219,-3.4082,-3.5793,-3.6658,-3.6658,-3.8203,-4.0614,-4.1807,-4.2825,-4.3526,-4.3526,-4.3691,-4.3691,-4.3691,-4.3691,-4.3652,-4.3301,-4.2773,-4.2441,-4.2168,-4.1953,-4.1758,-4.2012,-4.2246,-4.2344,-4.2519,-4.2851,-4.3086,-4.3223,-4.3359,-4.3476,-4.3672,-1.5554,-1.5411,-1.5371,-1.5418,-1.5547,-1.5723,-1.5798,-1.5818,-1.5961,-1.6042,-1.6076,-1.6083,-1.6083,-1.6083,-1.6083,-1.7444,-1.9199,-1.9585,-2.193,-2.388,-2.4851,-2.5432,-2.6409,-2.8164,-2.856,-2.9529,-3.0331,-3.162,-3.16,-3.1965,-3.2318,-3.2318,-3.2438,-3.2505,-3.2679,-3.2986,-3.308,-3.3227,-3.3173,-3.3106,-3.3106,-3.3173,-3.3213,-3.32,-3.3293,-3.3253,-3.3293,-3.332,-3.3253,-3.3106,-3.304,-3.2746,-3.2332,-3.1984,-3.1931,-3.2051,-3.2158,-3.2278,-3.2452,-3.2652,-3.2786,-3.2679,-3.2572,-3.2398,-3.2265,-3.2158,-3.1998,-3.1784,-3.1677,-3.1677,-3.1557,-3.1196,-3.0875,-3.0621,-3.0354,-3.014,-2.9927,-2.9913,-2.9913,-2.9913,-2.9913,-3.0258,-3.0781,-3.1301,-3.2174,-3.3043,-3.3907,-3.4591,-3.5967,-3.7861,-3.9055,-4.0259,-4.2844,-4.3361,-4.3526,-4.3691,-4.3691,-4.3574,-4.3476,-4.3027,-4.25,-4.2051,-4.168,-4.1484,-4.1387,-4.1641,-4.1816,-4.1894,-4.2129,-4.2461,-4.2637,-4.2734,-4.2871,-4.3008,-4.334,-1.5355,-1.5425,-1.5486,-1.556,-1.5655,-1.5791,-1.5852,-1.5879,-1.6015,-1.6083,-1.6083,-1.6083,-1.6083,-1.6083,-1.6083,-1.6665,-1.8228,-1.8228,-1.9782,-2.1539,-2.2321,-2.3101,-2.4074,-2.5238,-2.5819,-2.6806,-2.8897,-3.024,-3.0505,-3.1996,-3.2519,-3.239,-3.2456,-3.2616,-3.3013,-3.3093,-3.3227,-3.3387,-3.3414,-3.3414,-3.3414,-3.3414,-3.3414,-3.3414,-3.34,-3.336,-3.3227,-3.32,-3.304,-3.2812,-3.2639,-3.2478,-3.2185,-3.2011,-3.2051,-3.2265,-3.2438,-3.2559,-3.2732,-3.2839,-3.2893,-3.2732,-3.2398,-3.2225,-3.2144,-3.2024,-3.1864,-3.1677,-3.1677,-3.1677,-3.1517,-3.1209,-3.0942,-3.0688,-3.0314,-2.9993,-2.9913,-2.9913,-2.9913,-2.9913,-2.9913,-2.9913,-3.0437,-3.0437,-3.0959,-3.1137,-3.1834,-3.1997,-3.3556,-3.5114,-3.614,-3.7861,-4.0427,-4.2844,-4.3691,-4.3691,-4.3691,-4.3535,-4.3301,-4.2773,-4.2226,-4.1641,-4.1191,-4.1191,-4.1211,-4.1289,-4.1445,-4.1562,-4.1758,-4.2051,-4.2168,-4.2226,-4.2383,-4.2558,-4.2832,-1.5395,-1.5493,-1.5608,-1.5683,-1.571,-1.5832,-1.5893,-1.5906,-1.6022,-1.6083,-1.6083,-1.6083,-1.6083,-1.6083,-1.6083,-1.6083,-1.6275,-1.6864,-1.8031,-1.9002,-1.9396,-2.0175,-2.1539,-2.3101,-2.3716,-2.4824,-2.6778,-2.7558,-2.7973,-2.9489,-3.0763,-3.1723,-3.2248,-3.2432,-3.2696,-3.324,-3.3414,-3.34,-3.3414,-3.3414,-3.3414,-3.3414,-3.3414,-3.3414,-3.336,-3.3227,-3.3053,-3.2893,-3.2772,-3.2545,-3.2318,-3.2211,-3.2198,-3.2144,-3.2358,-3.2545,-3.2746,-3.2893,-3.3013,-3.2986,-3.2946,-3.2772,-3.2345,-3.2091,-3.2011,-3.1891,-3.1717,-3.1677,-3.1677,-3.161,-3.1463,-3.1209,-3.0942,-3.0688,-3.0274,-2.9913,-2.9913,-2.9913,-2.9913,-2.9913,-2.9913,-2.9913,-2.9913,-2.9913,-2.9913,-2.9913,-2.9913,-2.9913,-3.0437,-3.2174,-3.3731,-3.562,-3.8032,-4.0259,-4.2493,-4.3672,-4.3652,-4.3359,-4.3066,-4.2519,-4.1973,-4.1465,-4.1172,-4.1172,-4.1191,-4.123,-4.1211,-4.1289,-4.1504,-4.1699,-4.1719,-4.1777,-4.1953,-4.2109,-4.2266,-1.5596,-1.5771,-1.5805,-1.5879,-1.5988,-1.6022,-1.6035,-1.6042,-1.6062,-1.6083,-1.6083,-1.6083,-1.6083,-1.6083,-1.6083,-1.6083,-1.6083,-1.6083,-1.6083,-1.6864,-1.7452,-1.7452,-1.8441,-2.0414,-2.2051,-2.3434,-2.4497,-2.5322,-2.5829,-2.6382,-2.6905,-2.7087,-2.9356,-3.0045,-3.046,-3.1567,-3.3,-3.3213,-3.3414,-3.3414,-3.34,-3.34,-3.3414,-3.3334,-3.3173,-3.3066,-3.2933,-3.2746,-3.2478,-3.2265,-3.2171,-3.2131,-3.2251,-3.2385,-3.2612,-3.2812,-3.3013,-3.3066,-3.312,-3.3,-3.2893,-3.2599,-3.2211,-3.1957,-3.1877,-3.177,-3.1677,-3.1677,-3.1664,-3.165,-3.1476,-3.1089,-3.0782,-3.0568,-3.0247,-3.002,-2.9913,-2.9913,-2.9913,-2.9913,-2.9913,-2.9913,-2.9913,-2.9913,-2.9913,-2.9913,-2.9913,-2.9913,-2.9913,-3.0616,-3.1479,-3.338,-3.562,-3.8032,-4.0596,-4.3099,-4.3535,-4.3223,-4.2812,-4.2226,-4.1738,-4.1387,-4.1172,-4.1172,-4.1172,-4.1191,-4.1172,-4.1172,-4.123,-4.1387,-4.1308,-4.1348,-4.1523,-4.168,-4.1855]}]]